<?xml version="1.0" encoding="UTF-8" standalone="no" ?>
<gpx xmlns="http://www.topografix.com/GPX/1/1" xmlns:xsi="http://www.w3.org/2001/XMLSchema-instance" xsi:schemaLocation="http://www.topografix.com/GPX/1/1 http://www.topografix.com/GPX/1/1/gpx.xsd" version="1.1" creator="VisuGPX - https://www.visugpx.com">
  <metadata>
    <name>110522 Trail de la roanne 26km</name>
    <desc><![CDATA[110522 Trail de la roanne 26km]]></desc>
  </metadata>
  <trk>
    <name><![CDATA[2011-05-22T07:08:16Z]]></name>
    <trkseg>
      <trkpt lat="44.69529" lon="5.29905">
        <ele>445.2276611</ele>
        <time>2011-05-22T07:08:16Z</time>
      </trkpt>
      <trkpt lat="44.69529" lon="5.29904">
        <ele>444.7470703</ele>
        <time>2011-05-22T07:08:17Z</time>
      </trkpt>
      <trkpt lat="44.69531" lon="5.29902">
        <ele>444.7470703</ele>
        <time>2011-05-22T07:08:18Z</time>
      </trkpt>
      <trkpt lat="44.69533" lon="5.29902">
        <ele>444.7470703</ele>
        <time>2011-05-22T07:08:19Z</time>
      </trkpt>
      <trkpt lat="44.69542" lon="5.29905">
        <ele>444.2664795</ele>
        <time>2011-05-22T07:08:23Z</time>
      </trkpt>
      <trkpt lat="44.69554" lon="5.29916">
        <ele>444.2664795</ele>
        <time>2011-05-22T07:08:28Z</time>
      </trkpt>
      <trkpt lat="44.6956" lon="5.29927">
        <ele>442.8244629</ele>
        <time>2011-05-22T07:08:32Z</time>
      </trkpt>
      <trkpt lat="44.69569" lon="5.29934">
        <ele>440.9018555</ele>
        <time>2011-05-22T07:08:36Z</time>
      </trkpt>
      <trkpt lat="44.69581" lon="5.29946">
        <ele>438.0178223</ele>
        <time>2011-05-22T07:08:41Z</time>
      </trkpt>
      <trkpt lat="44.696" lon="5.29959">
        <ele>434.6533203</ele>
        <time>2011-05-22T07:08:47Z</time>
      </trkpt>
      <trkpt lat="44.69612" lon="5.29973">
        <ele>434.6533203</ele>
        <time>2011-05-22T07:08:52Z</time>
      </trkpt>
      <trkpt lat="44.69626" lon="5.29988">
        <ele>435.1339111</ele>
        <time>2011-05-22T07:08:58Z</time>
      </trkpt>
      <trkpt lat="44.69634" lon="5.29999">
        <ele>433.6918945</ele>
        <time>2011-05-22T07:09:02Z</time>
      </trkpt>
      <trkpt lat="44.69643" lon="5.30008">
        <ele>434.1726074</ele>
        <time>2011-05-22T07:09:06Z</time>
      </trkpt>
      <trkpt lat="44.69653" lon="5.30023">
        <ele>434.6533203</ele>
        <time>2011-05-22T07:09:11Z</time>
      </trkpt>
      <trkpt lat="44.69661" lon="5.3004">
        <ele>434.6533203</ele>
        <time>2011-05-22T07:09:16Z</time>
      </trkpt>
      <trkpt lat="44.69665" lon="5.30055">
        <ele>433.2113037</ele>
        <time>2011-05-22T07:09:20Z</time>
      </trkpt>
      <trkpt lat="44.69665" lon="5.30073">
        <ele>431.769165</ele>
        <time>2011-05-22T07:09:25Z</time>
      </trkpt>
      <trkpt lat="44.69654" lon="5.30089">
        <ele>430.8079834</ele>
        <time>2011-05-22T07:09:30Z</time>
      </trkpt>
      <trkpt lat="44.69648" lon="5.30098">
        <ele>430.3272705</ele>
        <time>2011-05-22T07:09:33Z</time>
      </trkpt>
      <trkpt lat="44.69636" lon="5.30116">
        <ele>428.4046631</ele>
        <time>2011-05-22T07:09:39Z</time>
      </trkpt>
      <trkpt lat="44.69624" lon="5.30129">
        <ele>426.9627686</ele>
        <time>2011-05-22T07:09:44Z</time>
      </trkpt>
      <trkpt lat="44.6961" lon="5.30135">
        <ele>425.0401611</ele>
        <time>2011-05-22T07:09:49Z</time>
      </trkpt>
      <trkpt lat="44.69595" lon="5.30135">
        <ele>424.0787354</ele>
        <time>2011-05-22T07:09:54Z</time>
      </trkpt>
      <trkpt lat="44.69584" lon="5.30151">
        <ele>424.5594482</ele>
        <time>2011-05-22T07:09:59Z</time>
      </trkpt>
      <trkpt lat="44.69576" lon="5.30168">
        <ele>425.0401611</ele>
        <time>2011-05-22T07:10:04Z</time>
      </trkpt>
      <trkpt lat="44.69569" lon="5.3019">
        <ele>425.520752</ele>
        <time>2011-05-22T07:10:10Z</time>
      </trkpt>
      <trkpt lat="44.69567" lon="5.30209">
        <ele>425.520752</ele>
        <time>2011-05-22T07:10:15Z</time>
      </trkpt>
      <trkpt lat="44.69563" lon="5.30233">
        <ele>426.4820557</ele>
        <time>2011-05-22T07:10:22Z</time>
      </trkpt>
      <trkpt lat="44.69558" lon="5.30251">
        <ele>427.4433594</ele>
        <time>2011-05-22T07:10:28Z</time>
      </trkpt>
      <trkpt lat="44.69555" lon="5.30256">
        <ele>428.4046631</ele>
        <time>2011-05-22T07:10:30Z</time>
      </trkpt>
      <trkpt lat="44.69541" lon="5.30264">
        <ele>427.9239502</ele>
        <time>2011-05-22T07:10:36Z</time>
      </trkpt>
      <trkpt lat="44.69533" lon="5.30255">
        <ele>428.4046631</ele>
        <time>2011-05-22T07:10:40Z</time>
      </trkpt>
      <trkpt lat="44.69526" lon="5.30228">
        <ele>428.885376</ele>
        <time>2011-05-22T07:10:47Z</time>
      </trkpt>
      <trkpt lat="44.69523" lon="5.30213">
        <ele>427.9239502</ele>
        <time>2011-05-22T07:10:51Z</time>
      </trkpt>
      <trkpt lat="44.69518" lon="5.30196">
        <ele>426.0013428</ele>
        <time>2011-05-22T07:10:55Z</time>
      </trkpt>
      <trkpt lat="44.69513" lon="5.30171">
        <ele>422.6367188</ele>
        <time>2011-05-22T07:11:01Z</time>
      </trkpt>
      <trkpt lat="44.6951" lon="5.3015">
        <ele>420.2333984</ele>
        <time>2011-05-22T07:11:06Z</time>
      </trkpt>
      <trkpt lat="44.69505" lon="5.30124">
        <ele>418.310791</ele>
        <time>2011-05-22T07:11:12Z</time>
      </trkpt>
      <trkpt lat="44.69501" lon="5.30104">
        <ele>416.8688965</ele>
        <time>2011-05-22T07:11:17Z</time>
      </trkpt>
      <trkpt lat="44.69493" lon="5.30081">
        <ele>414.946167</ele>
        <time>2011-05-22T07:11:23Z</time>
      </trkpt>
      <trkpt lat="44.69482" lon="5.30066">
        <ele>412.5428467</ele>
        <time>2011-05-22T07:11:28Z</time>
      </trkpt>
      <trkpt lat="44.69468" lon="5.30056">
        <ele>411.1009521</ele>
        <time>2011-05-22T07:11:32Z</time>
      </trkpt>
      <trkpt lat="44.69453" lon="5.30045">
        <ele>409.6590576</ele>
        <time>2011-05-22T07:11:37Z</time>
      </trkpt>
      <trkpt lat="44.69435" lon="5.3003">
        <ele>409.1783447</ele>
        <time>2011-05-22T07:11:43Z</time>
      </trkpt>
      <trkpt lat="44.69427" lon="5.30022">
        <ele>409.1783447</ele>
        <time>2011-05-22T07:11:46Z</time>
      </trkpt>
      <trkpt lat="44.69416" lon="5.3001">
        <ele>409.1783447</ele>
        <time>2011-05-22T07:11:50Z</time>
      </trkpt>
      <trkpt lat="44.694" lon="5.2999">
        <ele>409.1783447</ele>
        <time>2011-05-22T07:11:57Z</time>
      </trkpt>
      <trkpt lat="44.69389" lon="5.29974">
        <ele>408.217041</ele>
        <time>2011-05-22T07:12:02Z</time>
      </trkpt>
      <trkpt lat="44.69381" lon="5.2996">
        <ele>407.2556152</ele>
        <time>2011-05-22T07:12:06Z</time>
      </trkpt>
      <trkpt lat="44.69371" lon="5.29944">
        <ele>407.2556152</ele>
        <time>2011-05-22T07:12:11Z</time>
      </trkpt>
      <trkpt lat="44.69358" lon="5.29931">
        <ele>407.2556152</ele>
        <time>2011-05-22T07:12:16Z</time>
      </trkpt>
      <trkpt lat="44.69345" lon="5.29919">
        <ele>407.2556152</ele>
        <time>2011-05-22T07:12:21Z</time>
      </trkpt>
      <trkpt lat="44.69334" lon="5.29908">
        <ele>407.2556152</ele>
        <time>2011-05-22T07:12:25Z</time>
      </trkpt>
      <trkpt lat="44.6932" lon="5.29898">
        <ele>406.7749023</ele>
        <time>2011-05-22T07:12:30Z</time>
      </trkpt>
      <trkpt lat="44.69305" lon="5.29888">
        <ele>407.7363281</ele>
        <time>2011-05-22T07:12:35Z</time>
      </trkpt>
      <trkpt lat="44.69292" lon="5.29886">
        <ele>409.1783447</ele>
        <time>2011-05-22T07:12:40Z</time>
      </trkpt>
      <trkpt lat="44.69281" lon="5.29892">
        <ele>409.1783447</ele>
        <time>2011-05-22T07:12:45Z</time>
      </trkpt>
      <trkpt lat="44.69266" lon="5.29896">
        <ele>410.1396484</ele>
        <time>2011-05-22T07:12:51Z</time>
      </trkpt>
      <trkpt lat="44.69255" lon="5.29895">
        <ele>410.6202393</ele>
        <time>2011-05-22T07:12:55Z</time>
      </trkpt>
      <trkpt lat="44.69243" lon="5.29892">
        <ele>412.0622559</ele>
        <time>2011-05-22T07:13:00Z</time>
      </trkpt>
      <trkpt lat="44.69229" lon="5.29887">
        <ele>413.0235596</ele>
        <time>2011-05-22T07:13:05Z</time>
      </trkpt>
      <trkpt lat="44.69214" lon="5.2988">
        <ele>413.0235596</ele>
        <time>2011-05-22T07:13:10Z</time>
      </trkpt>
      <trkpt lat="44.69203" lon="5.29873">
        <ele>411.581665</ele>
        <time>2011-05-22T07:13:14Z</time>
      </trkpt>
      <trkpt lat="44.69191" lon="5.2986">
        <ele>410.6202393</ele>
        <time>2011-05-22T07:13:19Z</time>
      </trkpt>
      <trkpt lat="44.69182" lon="5.2985">
        <ele>409.6590576</ele>
        <time>2011-05-22T07:13:23Z</time>
      </trkpt>
      <trkpt lat="44.69169" lon="5.29833">
        <ele>407.7363281</ele>
        <time>2011-05-22T07:13:29Z</time>
      </trkpt>
      <trkpt lat="44.69161" lon="5.2982">
        <ele>406.2943115</ele>
        <time>2011-05-22T07:13:33Z</time>
      </trkpt>
      <trkpt lat="44.69152" lon="5.29803">
        <ele>403.4104004</ele>
        <time>2011-05-22T07:13:38Z</time>
      </trkpt>
      <trkpt lat="44.69144" lon="5.29779">
        <ele>401.9685059</ele>
        <time>2011-05-22T07:13:44Z</time>
      </trkpt>
      <trkpt lat="44.69138" lon="5.29758">
        <ele>401.9685059</ele>
        <time>2011-05-22T07:13:49Z</time>
      </trkpt>
      <trkpt lat="44.69132" lon="5.29739">
        <ele>401.487793</ele>
        <time>2011-05-22T07:13:54Z</time>
      </trkpt>
      <trkpt lat="44.69123" lon="5.29722">
        <ele>401.487793</ele>
        <time>2011-05-22T07:13:59Z</time>
      </trkpt>
      <trkpt lat="44.69116" lon="5.29706">
        <ele>401.0070801</ele>
        <time>2011-05-22T07:14:04Z</time>
      </trkpt>
      <trkpt lat="44.69107" lon="5.29686">
        <ele>399.5650635</ele>
        <time>2011-05-22T07:14:10Z</time>
      </trkpt>
      <trkpt lat="44.69099" lon="5.29669">
        <ele>399.0843506</ele>
        <time>2011-05-22T07:14:15Z</time>
      </trkpt>
      <trkpt lat="44.69086" lon="5.29642">
        <ele>400.5264893</ele>
        <time>2011-05-22T07:14:23Z</time>
      </trkpt>
      <trkpt lat="44.69074" lon="5.2961">
        <ele>402.4490967</ele>
        <time>2011-05-22T07:14:31Z</time>
      </trkpt>
      <trkpt lat="44.69066" lon="5.29585">
        <ele>402.4490967</ele>
        <time>2011-05-22T07:14:37Z</time>
      </trkpt>
      <trkpt lat="44.69058" lon="5.29555">
        <ele>401.9685059</ele>
        <time>2011-05-22T07:14:45Z</time>
      </trkpt>
      <trkpt lat="44.69053" lon="5.29532">
        <ele>401.9685059</ele>
        <time>2011-05-22T07:14:51Z</time>
      </trkpt>
      <trkpt lat="44.69048" lon="5.29517">
        <ele>401.0070801</ele>
        <time>2011-05-22T07:14:55Z</time>
      </trkpt>
      <trkpt lat="44.6904" lon="5.29498">
        <ele>401.0070801</ele>
        <time>2011-05-22T07:15:01Z</time>
      </trkpt>
      <trkpt lat="44.69036" lon="5.2949">
        <ele>401.0070801</ele>
        <time>2011-05-22T07:15:03Z</time>
      </trkpt>
      <trkpt lat="44.69037" lon="5.29468">
        <ele>399.5650635</ele>
        <time>2011-05-22T07:15:08Z</time>
      </trkpt>
      <trkpt lat="44.69042" lon="5.29454">
        <ele>400.5264893</ele>
        <time>2011-05-22T07:15:12Z</time>
      </trkpt>
      <trkpt lat="44.69051" lon="5.29434">
        <ele>400.0458984</ele>
        <time>2011-05-22T07:15:18Z</time>
      </trkpt>
      <trkpt lat="44.69056" lon="5.29416">
        <ele>398.6037598</ele>
        <time>2011-05-22T07:15:23Z</time>
      </trkpt>
      <trkpt lat="44.69059" lon="5.29398">
        <ele>398.1231689</ele>
        <time>2011-05-22T07:15:28Z</time>
      </trkpt>
      <trkpt lat="44.69058" lon="5.29381">
        <ele>397.1617432</ele>
        <time>2011-05-22T07:15:32Z</time>
      </trkpt>
      <trkpt lat="44.6906" lon="5.2936">
        <ele>396.2005615</ele>
        <time>2011-05-22T07:15:37Z</time>
      </trkpt>
      <trkpt lat="44.69062" lon="5.29336">
        <ele>396.6811523</ele>
        <time>2011-05-22T07:15:43Z</time>
      </trkpt>
      <trkpt lat="44.69066" lon="5.29312">
        <ele>396.2005615</ele>
        <time>2011-05-22T07:15:49Z</time>
      </trkpt>
      <trkpt lat="44.69069" lon="5.29291">
        <ele>396.6811523</ele>
        <time>2011-05-22T07:15:54Z</time>
      </trkpt>
      <trkpt lat="44.6907" lon="5.29269">
        <ele>396.6811523</ele>
        <time>2011-05-22T07:15:59Z</time>
      </trkpt>
      <trkpt lat="44.69069" lon="5.29244">
        <ele>395.7198486</ele>
        <time>2011-05-22T07:16:05Z</time>
      </trkpt>
      <trkpt lat="44.6907" lon="5.29219">
        <ele>395.2391357</ele>
        <time>2011-05-22T07:16:11Z</time>
      </trkpt>
      <trkpt lat="44.69078" lon="5.29201">
        <ele>393.7972412</ele>
        <time>2011-05-22T07:16:16Z</time>
      </trkpt>
      <trkpt lat="44.69083" lon="5.29185">
        <ele>393.3165283</ele>
        <time>2011-05-22T07:16:20Z</time>
      </trkpt>
      <trkpt lat="44.6908" lon="5.29169">
        <ele>391.8745117</ele>
        <time>2011-05-22T07:16:24Z</time>
      </trkpt>
      <trkpt lat="44.69082" lon="5.29142">
        <ele>389.9519043</ele>
        <time>2011-05-22T07:16:30Z</time>
      </trkpt>
      <trkpt lat="44.69088" lon="5.29123">
        <ele>387.0679932</ele>
        <time>2011-05-22T07:16:35Z</time>
      </trkpt>
      <trkpt lat="44.69097" lon="5.29102">
        <ele>384.184082</ele>
        <time>2011-05-22T07:16:41Z</time>
      </trkpt>
      <trkpt lat="44.69105" lon="5.29085">
        <ele>381.7806396</ele>
        <time>2011-05-22T07:16:46Z</time>
      </trkpt>
      <trkpt lat="44.69109" lon="5.2906">
        <ele>379.8580322</ele>
        <time>2011-05-22T07:16:52Z</time>
      </trkpt>
      <trkpt lat="44.69111" lon="5.29033">
        <ele>377.9354248</ele>
        <time>2011-05-22T07:16:58Z</time>
      </trkpt>
      <trkpt lat="44.69114" lon="5.29008">
        <ele>376.9742432</ele>
        <time>2011-05-22T07:17:04Z</time>
      </trkpt>
      <trkpt lat="44.69122" lon="5.28988">
        <ele>374.5708008</ele>
        <time>2011-05-22T07:17:10Z</time>
      </trkpt>
      <trkpt lat="44.69134" lon="5.28968">
        <ele>374.0900879</ele>
        <time>2011-05-22T07:17:16Z</time>
      </trkpt>
      <trkpt lat="44.69138" lon="5.28951">
        <ele>372.6481934</ele>
        <time>2011-05-22T07:17:20Z</time>
      </trkpt>
      <trkpt lat="44.6914" lon="5.2893">
        <ele>371.6868896</ele>
        <time>2011-05-22T07:17:25Z</time>
      </trkpt>
      <trkpt lat="44.69141" lon="5.28908">
        <ele>371.6868896</ele>
        <time>2011-05-22T07:17:30Z</time>
      </trkpt>
      <trkpt lat="44.69143" lon="5.2888">
        <ele>371.2062988</ele>
        <time>2011-05-22T07:17:37Z</time>
      </trkpt>
      <trkpt lat="44.69145" lon="5.28856">
        <ele>371.2062988</ele>
        <time>2011-05-22T07:17:43Z</time>
      </trkpt>
      <trkpt lat="44.69145" lon="5.28826">
        <ele>370.244873</ele>
        <time>2011-05-22T07:17:50Z</time>
      </trkpt>
      <trkpt lat="44.69144" lon="5.28792">
        <ele>369.7642822</ele>
        <time>2011-05-22T07:17:58Z</time>
      </trkpt>
      <trkpt lat="44.69143" lon="5.28767">
        <ele>368.3222656</ele>
        <time>2011-05-22T07:18:04Z</time>
      </trkpt>
      <trkpt lat="44.69142" lon="5.28746">
        <ele>367.8415527</ele>
        <time>2011-05-22T07:18:09Z</time>
      </trkpt>
      <trkpt lat="44.69139" lon="5.28711">
        <ele>366.880249</ele>
        <time>2011-05-22T07:18:17Z</time>
      </trkpt>
      <trkpt lat="44.69136" lon="5.28686">
        <ele>365.9189453</ele>
        <time>2011-05-22T07:18:23Z</time>
      </trkpt>
      <trkpt lat="44.69133" lon="5.28663">
        <ele>364.4769287</ele>
        <time>2011-05-22T07:18:28Z</time>
      </trkpt>
      <trkpt lat="44.69132" lon="5.28643">
        <ele>362.5543213</ele>
        <time>2011-05-22T07:18:33Z</time>
      </trkpt>
      <trkpt lat="44.6913" lon="5.28622">
        <ele>361.5931396</ele>
        <time>2011-05-22T07:18:38Z</time>
      </trkpt>
      <trkpt lat="44.69128" lon="5.28601">
        <ele>360.6317139</ele>
        <time>2011-05-22T07:18:43Z</time>
      </trkpt>
      <trkpt lat="44.69127" lon="5.28575">
        <ele>360.151123</ele>
        <time>2011-05-22T07:18:49Z</time>
      </trkpt>
      <trkpt lat="44.69126" lon="5.28557">
        <ele>359.1896973</ele>
        <time>2011-05-22T07:18:53Z</time>
      </trkpt>
      <trkpt lat="44.69126" lon="5.28527">
        <ele>358.2283936</ele>
        <time>2011-05-22T07:19:00Z</time>
      </trkpt>
      <trkpt lat="44.69128" lon="5.28506">
        <ele>356.786377</ele>
        <time>2011-05-22T07:19:05Z</time>
      </trkpt>
      <trkpt lat="44.69125" lon="5.28484">
        <ele>354.8637695</ele>
        <time>2011-05-22T07:19:10Z</time>
      </trkpt>
      <trkpt lat="44.69121" lon="5.28467">
        <ele>353.9025879</ele>
        <time>2011-05-22T07:19:14Z</time>
      </trkpt>
      <trkpt lat="44.69124" lon="5.28445">
        <ele>353.421875</ele>
        <time>2011-05-22T07:19:19Z</time>
      </trkpt>
      <trkpt lat="44.69133" lon="5.28432">
        <ele>352.9411621</ele>
        <time>2011-05-22T07:19:23Z</time>
      </trkpt>
      <trkpt lat="44.69147" lon="5.28413">
        <ele>351.9798584</ele>
        <time>2011-05-22T07:19:29Z</time>
      </trkpt>
      <trkpt lat="44.69149" lon="5.28411">
        <ele>351.4991455</ele>
        <time>2011-05-22T07:19:30Z</time>
      </trkpt>
      <trkpt lat="44.69159" lon="5.28399">
        <ele>351.0184326</ele>
        <time>2011-05-22T07:19:34Z</time>
      </trkpt>
      <trkpt lat="44.69174" lon="5.28381">
        <ele>349.0958252</ele>
        <time>2011-05-22T07:19:40Z</time>
      </trkpt>
      <trkpt lat="44.69186" lon="5.28366">
        <ele>349.0958252</ele>
        <time>2011-05-22T07:19:45Z</time>
      </trkpt>
      <trkpt lat="44.69201" lon="5.28349">
        <ele>347.1732178</ele>
        <time>2011-05-22T07:19:51Z</time>
      </trkpt>
      <trkpt lat="44.6921" lon="5.28336">
        <ele>345.7313232</ele>
        <time>2011-05-22T07:19:55Z</time>
      </trkpt>
      <trkpt lat="44.69214" lon="5.28329">
        <ele>344.7700195</ele>
        <time>2011-05-22T07:19:57Z</time>
      </trkpt>
      <trkpt lat="44.69218" lon="5.28303">
        <ele>343.8085938</ele>
        <time>2011-05-22T07:20:03Z</time>
      </trkpt>
      <trkpt lat="44.69219" lon="5.28282">
        <ele>343.3278809</ele>
        <time>2011-05-22T07:20:08Z</time>
      </trkpt>
      <trkpt lat="44.69222" lon="5.28265">
        <ele>342.84729</ele>
        <time>2011-05-22T07:20:12Z</time>
      </trkpt>
      <trkpt lat="44.69222" lon="5.28244">
        <ele>342.84729</ele>
        <time>2011-05-22T07:20:17Z</time>
      </trkpt>
      <trkpt lat="44.69221" lon="5.28227">
        <ele>341.8859863</ele>
        <time>2011-05-22T07:20:21Z</time>
      </trkpt>
      <trkpt lat="44.69219" lon="5.2821">
        <ele>341.4052734</ele>
        <time>2011-05-22T07:20:25Z</time>
      </trkpt>
      <trkpt lat="44.69217" lon="5.28193">
        <ele>341.4052734</ele>
        <time>2011-05-22T07:20:29Z</time>
      </trkpt>
      <trkpt lat="44.69213" lon="5.28172">
        <ele>340.9246826</ele>
        <time>2011-05-22T07:20:34Z</time>
      </trkpt>
      <trkpt lat="44.69208" lon="5.28151">
        <ele>340.9246826</ele>
        <time>2011-05-22T07:20:39Z</time>
      </trkpt>
      <trkpt lat="44.69205" lon="5.28118">
        <ele>341.4052734</ele>
        <time>2011-05-22T07:20:47Z</time>
      </trkpt>
      <trkpt lat="44.69204" lon="5.28088">
        <ele>340.9246826</ele>
        <time>2011-05-22T07:20:54Z</time>
      </trkpt>
      <trkpt lat="44.69203" lon="5.28072">
        <ele>340.9246826</ele>
        <time>2011-05-22T07:20:58Z</time>
      </trkpt>
      <trkpt lat="44.692" lon="5.2805">
        <ele>339.9633789</ele>
        <time>2011-05-22T07:21:03Z</time>
      </trkpt>
      <trkpt lat="44.69197" lon="5.28028">
        <ele>339.0020752</ele>
        <time>2011-05-22T07:21:08Z</time>
      </trkpt>
      <trkpt lat="44.69192" lon="5.28012">
        <ele>338.5214844</ele>
        <time>2011-05-22T07:21:12Z</time>
      </trkpt>
      <trkpt lat="44.69187" lon="5.27993">
        <ele>339.0020752</ele>
        <time>2011-05-22T07:21:17Z</time>
      </trkpt>
      <trkpt lat="44.69182" lon="5.27981">
        <ele>339.0020752</ele>
        <time>2011-05-22T07:21:20Z</time>
      </trkpt>
      <trkpt lat="44.6917" lon="5.27976">
        <ele>339.9633789</ele>
        <time>2011-05-22T07:21:25Z</time>
      </trkpt>
      <trkpt lat="44.69168" lon="5.27977">
        <ele>340.4440918</ele>
        <time>2011-05-22T07:21:26Z</time>
      </trkpt>
      <trkpt lat="44.69162" lon="5.27981">
        <ele>340.4440918</ele>
        <time>2011-05-22T07:21:28Z</time>
      </trkpt>
      <trkpt lat="44.69152" lon="5.27995">
        <ele>341.4052734</ele>
        <time>2011-05-22T07:21:33Z</time>
      </trkpt>
      <trkpt lat="44.69136" lon="5.28001">
        <ele>341.4052734</ele>
        <time>2011-05-22T07:21:39Z</time>
      </trkpt>
      <trkpt lat="44.69129" lon="5.27991">
        <ele>341.8859863</ele>
        <time>2011-05-22T07:21:43Z</time>
      </trkpt>
      <trkpt lat="44.69124" lon="5.2796">
        <ele>342.3666992</ele>
        <time>2011-05-22T07:21:51Z</time>
      </trkpt>
      <trkpt lat="44.6912" lon="5.27941">
        <ele>345.7313232</ele>
        <time>2011-05-22T07:21:57Z</time>
      </trkpt>
      <trkpt lat="44.69117" lon="5.27924">
        <ele>350.057251</ele>
        <time>2011-05-22T07:22:03Z</time>
      </trkpt>
      <trkpt lat="44.69115" lon="5.27917">
        <ele>350.057251</ele>
        <time>2011-05-22T07:22:05Z</time>
      </trkpt>
      <trkpt lat="44.6911" lon="5.27905">
        <ele>350.057251</ele>
        <time>2011-05-22T07:22:09Z</time>
      </trkpt>
      <trkpt lat="44.69096" lon="5.27894">
        <ele>350.057251</ele>
        <time>2011-05-22T07:22:15Z</time>
      </trkpt>
      <trkpt lat="44.69083" lon="5.27886">
        <ele>349.0958252</ele>
        <time>2011-05-22T07:22:20Z</time>
      </trkpt>
      <trkpt lat="44.69071" lon="5.27865">
        <ele>348.6152344</ele>
        <time>2011-05-22T07:22:27Z</time>
      </trkpt>
      <trkpt lat="44.69062" lon="5.2785">
        <ele>348.6152344</ele>
        <time>2011-05-22T07:22:32Z</time>
      </trkpt>
      <trkpt lat="44.69048" lon="5.27831">
        <ele>347.1732178</ele>
        <time>2011-05-22T07:22:39Z</time>
      </trkpt>
      <trkpt lat="44.69038" lon="5.27821">
        <ele>345.7313232</ele>
        <time>2011-05-22T07:22:43Z</time>
      </trkpt>
      <trkpt lat="44.69023" lon="5.2781">
        <ele>344.2894287</ele>
        <time>2011-05-22T07:22:48Z</time>
      </trkpt>
      <trkpt lat="44.6901" lon="5.27801">
        <ele>342.84729</ele>
        <time>2011-05-22T07:22:54Z</time>
      </trkpt>
      <trkpt lat="44.68999" lon="5.27787">
        <ele>344.2894287</ele>
        <time>2011-05-22T07:23:00Z</time>
      </trkpt>
      <trkpt lat="44.68991" lon="5.27776">
        <ele>346.2120361</ele>
        <time>2011-05-22T07:23:05Z</time>
      </trkpt>
      <trkpt lat="44.68982" lon="5.27766">
        <ele>347.6539307</ele>
        <time>2011-05-22T07:23:10Z</time>
      </trkpt>
      <trkpt lat="44.68969" lon="5.27756">
        <ele>348.1346436</ele>
        <time>2011-05-22T07:23:15Z</time>
      </trkpt>
      <trkpt lat="44.68965" lon="5.27751">
        <ele>348.1346436</ele>
        <time>2011-05-22T07:23:17Z</time>
      </trkpt>
      <trkpt lat="44.6896" lon="5.27731">
        <ele>349.0958252</ele>
        <time>2011-05-22T07:23:23Z</time>
      </trkpt>
      <trkpt lat="44.68954" lon="5.2771">
        <ele>351.4991455</ele>
        <time>2011-05-22T07:23:29Z</time>
      </trkpt>
      <trkpt lat="44.68951" lon="5.27694">
        <ele>352.9411621</ele>
        <time>2011-05-22T07:23:34Z</time>
      </trkpt>
      <trkpt lat="44.6895" lon="5.27672">
        <ele>354.3831787</ele>
        <time>2011-05-22T07:23:40Z</time>
      </trkpt>
      <trkpt lat="44.6895" lon="5.27653">
        <ele>353.9025879</ele>
        <time>2011-05-22T07:23:45Z</time>
      </trkpt>
      <trkpt lat="44.6895" lon="5.27633">
        <ele>353.9025879</ele>
        <time>2011-05-22T07:23:50Z</time>
      </trkpt>
      <trkpt lat="44.68951" lon="5.27606">
        <ele>351.4991455</ele>
        <time>2011-05-22T07:23:57Z</time>
      </trkpt>
      <trkpt lat="44.6895" lon="5.27589">
        <ele>352.9411621</ele>
        <time>2011-05-22T07:24:02Z</time>
      </trkpt>
      <trkpt lat="44.68949" lon="5.2757">
        <ele>353.9025879</ele>
        <time>2011-05-22T07:24:07Z</time>
      </trkpt>
      <trkpt lat="44.68946" lon="5.27552">
        <ele>355.3444824</ele>
        <time>2011-05-22T07:24:12Z</time>
      </trkpt>
      <trkpt lat="44.68938" lon="5.27529">
        <ele>356.3057861</ele>
        <time>2011-05-22T07:24:19Z</time>
      </trkpt>
      <trkpt lat="44.6893" lon="5.2751">
        <ele>355.8251953</ele>
        <time>2011-05-22T07:24:25Z</time>
      </trkpt>
      <trkpt lat="44.68924" lon="5.27505">
        <ele>354.8637695</ele>
        <time>2011-05-22T07:24:27Z</time>
      </trkpt>
      <trkpt lat="44.68921" lon="5.27492">
        <ele>353.421875</ele>
        <time>2011-05-22T07:24:30Z</time>
      </trkpt>
      <trkpt lat="44.6892" lon="5.27479">
        <ele>352.9411621</ele>
        <time>2011-05-22T07:24:33Z</time>
      </trkpt>
      <trkpt lat="44.6892" lon="5.27459">
        <ele>354.3831787</ele>
        <time>2011-05-22T07:24:39Z</time>
      </trkpt>
      <trkpt lat="44.68919" lon="5.27444">
        <ele>355.3444824</ele>
        <time>2011-05-22T07:24:43Z</time>
      </trkpt>
      <trkpt lat="44.68916" lon="5.27425">
        <ele>355.3444824</ele>
        <time>2011-05-22T07:24:49Z</time>
      </trkpt>
      <trkpt lat="44.68914" lon="5.27413">
        <ele>356.3057861</ele>
        <time>2011-05-22T07:24:53Z</time>
      </trkpt>
      <trkpt lat="44.68913" lon="5.27398">
        <ele>358.2283936</ele>
        <time>2011-05-22T07:24:58Z</time>
      </trkpt>
      <trkpt lat="44.68916" lon="5.27386">
        <ele>359.1896973</ele>
        <time>2011-05-22T07:25:02Z</time>
      </trkpt>
      <trkpt lat="44.68919" lon="5.27375">
        <ele>360.6317139</ele>
        <time>2011-05-22T07:25:06Z</time>
      </trkpt>
      <trkpt lat="44.68916" lon="5.27356">
        <ele>362.0737305</ele>
        <time>2011-05-22T07:25:10Z</time>
      </trkpt>
      <trkpt lat="44.68915" lon="5.27352">
        <ele>363.0350342</ele>
        <time>2011-05-22T07:25:11Z</time>
      </trkpt>
      <trkpt lat="44.68913" lon="5.27335">
        <ele>366.880249</ele>
        <time>2011-05-22T07:25:17Z</time>
      </trkpt>
      <trkpt lat="44.68913" lon="5.27321">
        <ele>369.2836914</ele>
        <time>2011-05-22T07:25:22Z</time>
      </trkpt>
      <trkpt lat="44.68913" lon="5.27311">
        <ele>369.7642822</ele>
        <time>2011-05-22T07:25:26Z</time>
      </trkpt>
      <trkpt lat="44.68915" lon="5.27301">
        <ele>370.7255859</ele>
        <time>2011-05-22T07:25:31Z</time>
      </trkpt>
      <trkpt lat="44.68916" lon="5.27288">
        <ele>372.1674805</ele>
        <time>2011-05-22T07:25:37Z</time>
      </trkpt>
      <trkpt lat="44.68914" lon="5.27279">
        <ele>374.0900879</ele>
        <time>2011-05-22T07:25:42Z</time>
      </trkpt>
      <trkpt lat="44.6891" lon="5.27271">
        <ele>376.0128174</ele>
        <time>2011-05-22T07:25:47Z</time>
      </trkpt>
      <trkpt lat="44.68904" lon="5.27262">
        <ele>378.4161377</ele>
        <time>2011-05-22T07:25:54Z</time>
      </trkpt>
      <trkpt lat="44.689" lon="5.27254">
        <ele>379.8580322</ele>
        <time>2011-05-22T07:25:59Z</time>
      </trkpt>
      <trkpt lat="44.689" lon="5.27246">
        <ele>379.3774414</ele>
        <time>2011-05-22T07:26:02Z</time>
      </trkpt>
      <trkpt lat="44.68899" lon="5.27237">
        <ele>380.3387451</ele>
        <time>2011-05-22T07:26:06Z</time>
      </trkpt>
      <trkpt lat="44.68899" lon="5.27223">
        <ele>381.7806396</ele>
        <time>2011-05-22T07:26:12Z</time>
      </trkpt>
      <trkpt lat="44.689" lon="5.27212">
        <ele>383.2226563</ele>
        <time>2011-05-22T07:26:18Z</time>
      </trkpt>
      <trkpt lat="44.68901" lon="5.27204">
        <ele>385.6259766</ele>
        <time>2011-05-22T07:26:23Z</time>
      </trkpt>
      <trkpt lat="44.68901" lon="5.27191">
        <ele>389.4711914</ele>
        <time>2011-05-22T07:26:31Z</time>
      </trkpt>
      <trkpt lat="44.689" lon="5.27185">
        <ele>390.913208</ele>
        <time>2011-05-22T07:26:34Z</time>
      </trkpt>
      <trkpt lat="44.68905" lon="5.27179">
        <ele>392.3553467</ele>
        <time>2011-05-22T07:26:38Z</time>
      </trkpt>
      <trkpt lat="44.68905" lon="5.27177">
        <ele>392.3553467</ele>
        <time>2011-05-22T07:26:39Z</time>
      </trkpt>
      <trkpt lat="44.68905" lon="5.27174">
        <ele>392.8359375</ele>
        <time>2011-05-22T07:26:46Z</time>
      </trkpt>
      <trkpt lat="44.68905" lon="5.27174">
        <ele>392.8359375</ele>
        <time>2011-05-22T07:26:48Z</time>
      </trkpt>
      <trkpt lat="44.68893" lon="5.27173">
        <ele>391.8745117</ele>
        <time>2011-05-22T07:26:54Z</time>
      </trkpt>
      <trkpt lat="44.6889" lon="5.27172">
        <ele>391.3937988</ele>
        <time>2011-05-22T07:26:56Z</time>
      </trkpt>
      <trkpt lat="44.68879" lon="5.27172">
        <ele>392.3553467</ele>
        <time>2011-05-22T07:27:02Z</time>
      </trkpt>
      <trkpt lat="44.6887" lon="5.27174">
        <ele>392.8359375</ele>
        <time>2011-05-22T07:27:07Z</time>
      </trkpt>
      <trkpt lat="44.68859" lon="5.27175">
        <ele>394.7585449</ele>
        <time>2011-05-22T07:27:15Z</time>
      </trkpt>
      <trkpt lat="44.68852" lon="5.27175">
        <ele>396.6811523</ele>
        <time>2011-05-22T07:27:20Z</time>
      </trkpt>
      <trkpt lat="44.68848" lon="5.27175">
        <ele>398.1231689</ele>
        <time>2011-05-22T07:27:23Z</time>
      </trkpt>
      <trkpt lat="44.68838" lon="5.27174">
        <ele>400.5264893</ele>
        <time>2011-05-22T07:27:29Z</time>
      </trkpt>
      <trkpt lat="44.68828" lon="5.27171">
        <ele>402.9296875</ele>
        <time>2011-05-22T07:27:35Z</time>
      </trkpt>
      <trkpt lat="44.68825" lon="5.27168">
        <ele>403.8911133</ele>
        <time>2011-05-22T07:27:38Z</time>
      </trkpt>
      <trkpt lat="44.68816" lon="5.27159">
        <ele>405.3330078</ele>
        <time>2011-05-22T07:27:45Z</time>
      </trkpt>
      <trkpt lat="44.68811" lon="5.2715">
        <ele>407.2556152</ele>
        <time>2011-05-22T07:27:50Z</time>
      </trkpt>
      <trkpt lat="44.68805" lon="5.27145">
        <ele>409.1783447</ele>
        <time>2011-05-22T07:27:55Z</time>
      </trkpt>
      <trkpt lat="44.68797" lon="5.27141">
        <ele>410.1396484</ele>
        <time>2011-05-22T07:28:00Z</time>
      </trkpt>
      <trkpt lat="44.68796" lon="5.27141">
        <ele>410.6202393</ele>
        <time>2011-05-22T07:28:01Z</time>
      </trkpt>
      <trkpt lat="44.68788" lon="5.27136">
        <ele>412.0622559</ele>
        <time>2011-05-22T07:28:06Z</time>
      </trkpt>
      <trkpt lat="44.68781" lon="5.27132">
        <ele>413.0235596</ele>
        <time>2011-05-22T07:28:10Z</time>
      </trkpt>
      <trkpt lat="44.68776" lon="5.27128">
        <ele>413.5042725</ele>
        <time>2011-05-22T07:28:14Z</time>
      </trkpt>
      <trkpt lat="44.68773" lon="5.27125">
        <ele>414.946167</ele>
        <time>2011-05-22T07:28:17Z</time>
      </trkpt>
      <trkpt lat="44.68767" lon="5.27122">
        <ele>416.8688965</ele>
        <time>2011-05-22T07:28:22Z</time>
      </trkpt>
      <trkpt lat="44.68766" lon="5.27119">
        <ele>420.2333984</ele>
        <time>2011-05-22T07:28:28Z</time>
      </trkpt>
      <trkpt lat="44.68763" lon="5.27117">
        <ele>421.675415</ele>
        <time>2011-05-22T07:28:31Z</time>
      </trkpt>
      <trkpt lat="44.68762" lon="5.27116">
        <ele>422.6367188</ele>
        <time>2011-05-22T07:28:32Z</time>
      </trkpt>
      <trkpt lat="44.68758" lon="5.27112">
        <ele>424.0787354</ele>
        <time>2011-05-22T07:28:36Z</time>
      </trkpt>
      <trkpt lat="44.68757" lon="5.27107">
        <ele>425.520752</ele>
        <time>2011-05-22T07:28:40Z</time>
      </trkpt>
      <trkpt lat="44.68755" lon="5.27103">
        <ele>425.0401611</ele>
        <time>2011-05-22T07:28:42Z</time>
      </trkpt>
      <trkpt lat="44.68756" lon="5.27092">
        <ele>426.0013428</ele>
        <time>2011-05-22T07:28:48Z</time>
      </trkpt>
      <trkpt lat="44.68753" lon="5.27083">
        <ele>426.4820557</ele>
        <time>2011-05-22T07:28:53Z</time>
      </trkpt>
      <trkpt lat="44.68753" lon="5.27082">
        <ele>427.4433594</ele>
        <time>2011-05-22T07:28:54Z</time>
      </trkpt>
      <trkpt lat="44.68751" lon="5.27075">
        <ele>430.8079834</ele>
        <time>2011-05-22T07:28:59Z</time>
      </trkpt>
      <trkpt lat="44.6875" lon="5.27074">
        <ele>431.2885742</ele>
        <time>2011-05-22T07:29:00Z</time>
      </trkpt>
      <trkpt lat="44.68744" lon="5.27067">
        <ele>432.7307129</ele>
        <time>2011-05-22T07:29:06Z</time>
      </trkpt>
      <trkpt lat="44.68739" lon="5.2706">
        <ele>435.614502</ele>
        <time>2011-05-22T07:29:12Z</time>
      </trkpt>
      <trkpt lat="44.68737" lon="5.27054">
        <ele>438.979126</ele>
        <time>2011-05-22T07:29:16Z</time>
      </trkpt>
      <trkpt lat="44.68735" lon="5.27047">
        <ele>442.8244629</ele>
        <time>2011-05-22T07:29:21Z</time>
      </trkpt>
      <trkpt lat="44.68733" lon="5.27044">
        <ele>445.708374</ele>
        <time>2011-05-22T07:29:24Z</time>
      </trkpt>
      <trkpt lat="44.6873" lon="5.27042">
        <ele>445.708374</ele>
        <time>2011-05-22T07:29:26Z</time>
      </trkpt>
      <trkpt lat="44.68726" lon="5.27034">
        <ele>449.072998</ele>
        <time>2011-05-22T07:29:32Z</time>
      </trkpt>
      <trkpt lat="44.68718" lon="5.27026">
        <ele>446.1890869</ele>
        <time>2011-05-22T07:29:37Z</time>
      </trkpt>
      <trkpt lat="44.68714" lon="5.27021">
        <ele>446.6696777</ele>
        <time>2011-05-22T07:29:41Z</time>
      </trkpt>
      <trkpt lat="44.6871" lon="5.27014">
        <ele>445.2276611</ele>
        <time>2011-05-22T07:29:46Z</time>
      </trkpt>
      <trkpt lat="44.68709" lon="5.27007">
        <ele>445.708374</ele>
        <time>2011-05-22T07:29:51Z</time>
      </trkpt>
      <trkpt lat="44.68708" lon="5.27001">
        <ele>448.5924072</ele>
        <time>2011-05-22T07:29:57Z</time>
      </trkpt>
      <trkpt lat="44.68706" lon="5.2699">
        <ele>450.0344238</ele>
        <time>2011-05-22T07:30:03Z</time>
      </trkpt>
      <trkpt lat="44.68705" lon="5.26984">
        <ele>451.4763184</ele>
        <time>2011-05-22T07:30:09Z</time>
      </trkpt>
      <trkpt lat="44.68706" lon="5.26978">
        <ele>452.9182129</ele>
        <time>2011-05-22T07:30:13Z</time>
      </trkpt>
      <trkpt lat="44.68705" lon="5.26975">
        <ele>453.8796387</ele>
        <time>2011-05-22T07:30:15Z</time>
      </trkpt>
      <trkpt lat="44.68707" lon="5.26967">
        <ele>453.3989258</ele>
        <time>2011-05-22T07:30:20Z</time>
      </trkpt>
      <trkpt lat="44.68708" lon="5.26963">
        <ele>453.3989258</ele>
        <time>2011-05-22T07:30:22Z</time>
      </trkpt>
      <trkpt lat="44.68708" lon="5.26956">
        <ele>453.3989258</ele>
        <time>2011-05-22T07:30:27Z</time>
      </trkpt>
      <trkpt lat="44.68709" lon="5.26953">
        <ele>453.8796387</ele>
        <time>2011-05-22T07:30:29Z</time>
      </trkpt>
      <trkpt lat="44.68711" lon="5.26949">
        <ele>455.3215332</ele>
        <time>2011-05-22T07:30:32Z</time>
      </trkpt>
      <trkpt lat="44.68712" lon="5.26943">
        <ele>456.7635498</ele>
        <time>2011-05-22T07:30:36Z</time>
      </trkpt>
      <trkpt lat="44.68713" lon="5.26935">
        <ele>457.2442627</ele>
        <time>2011-05-22T07:30:40Z</time>
      </trkpt>
      <trkpt lat="44.68711" lon="5.26932">
        <ele>458.2055664</ele>
        <time>2011-05-22T07:30:43Z</time>
      </trkpt>
      <trkpt lat="44.68706" lon="5.26923">
        <ele>461.0894775</ele>
        <time>2011-05-22T07:30:50Z</time>
      </trkpt>
      <trkpt lat="44.687" lon="5.26914">
        <ele>463.4927979</ele>
        <time>2011-05-22T07:30:56Z</time>
      </trkpt>
      <trkpt lat="44.68698" lon="5.26909">
        <ele>465.8961182</ele>
        <time>2011-05-22T07:31:00Z</time>
      </trkpt>
      <trkpt lat="44.68693" lon="5.269">
        <ele>467.8187256</ele>
        <time>2011-05-22T07:31:06Z</time>
      </trkpt>
      <trkpt lat="44.68692" lon="5.26899">
        <ele>468.2993164</ele>
        <time>2011-05-22T07:31:07Z</time>
      </trkpt>
      <trkpt lat="44.68694" lon="5.26892">
        <ele>469.2607422</ele>
        <time>2011-05-22T07:31:12Z</time>
      </trkpt>
      <trkpt lat="44.6869" lon="5.26884">
        <ele>471.6639404</ele>
        <time>2011-05-22T07:31:18Z</time>
      </trkpt>
      <trkpt lat="44.68687" lon="5.26882">
        <ele>474.5479736</ele>
        <time>2011-05-22T07:31:22Z</time>
      </trkpt>
      <trkpt lat="44.68682" lon="5.26885">
        <ele>474.5479736</ele>
        <time>2011-05-22T07:31:26Z</time>
      </trkpt>
      <trkpt lat="44.68671" lon="5.26881">
        <ele>474.0672607</ele>
        <time>2011-05-22T07:31:31Z</time>
      </trkpt>
      <trkpt lat="44.68665" lon="5.26873">
        <ele>474.5479736</ele>
        <time>2011-05-22T07:31:35Z</time>
      </trkpt>
      <trkpt lat="44.68658" lon="5.26861">
        <ele>477.4318848</ele>
        <time>2011-05-22T07:31:41Z</time>
      </trkpt>
      <trkpt lat="44.68651" lon="5.26856">
        <ele>481.7578125</ele>
        <time>2011-05-22T07:31:46Z</time>
      </trkpt>
      <trkpt lat="44.68646" lon="5.26854">
        <ele>482.7192383</ele>
        <time>2011-05-22T07:31:51Z</time>
      </trkpt>
      <trkpt lat="44.68641" lon="5.26853">
        <ele>482.7192383</ele>
        <time>2011-05-22T07:31:56Z</time>
      </trkpt>
      <trkpt lat="44.68639" lon="5.26851">
        <ele>482.2385254</ele>
        <time>2011-05-22T07:31:58Z</time>
      </trkpt>
      <trkpt lat="44.68635" lon="5.2684">
        <ele>482.7192383</ele>
        <time>2011-05-22T07:32:05Z</time>
      </trkpt>
      <trkpt lat="44.68634" lon="5.26834">
        <ele>486.0837402</ele>
        <time>2011-05-22T07:32:09Z</time>
      </trkpt>
      <trkpt lat="44.68633" lon="5.26829">
        <ele>488.9677734</ele>
        <time>2011-05-22T07:32:14Z</time>
      </trkpt>
      <trkpt lat="44.68632" lon="5.26826">
        <ele>488.4871826</ele>
        <time>2011-05-22T07:32:16Z</time>
      </trkpt>
      <trkpt lat="44.68629" lon="5.2681">
        <ele>486.0837402</ele>
        <time>2011-05-22T07:32:23Z</time>
      </trkpt>
      <trkpt lat="44.68629" lon="5.268">
        <ele>486.0837402</ele>
        <time>2011-05-22T07:32:28Z</time>
      </trkpt>
      <trkpt lat="44.68627" lon="5.2679">
        <ele>485.1224365</ele>
        <time>2011-05-22T07:32:33Z</time>
      </trkpt>
      <trkpt lat="44.68627" lon="5.26784">
        <ele>487.5256348</ele>
        <time>2011-05-22T07:32:37Z</time>
      </trkpt>
      <trkpt lat="44.68625" lon="5.26776">
        <ele>489.9290771</ele>
        <time>2011-05-22T07:32:43Z</time>
      </trkpt>
      <trkpt lat="44.68627" lon="5.26769">
        <ele>491.8516846</ele>
        <time>2011-05-22T07:32:47Z</time>
      </trkpt>
      <trkpt lat="44.68627" lon="5.26767">
        <ele>492.3323975</ele>
        <time>2011-05-22T07:32:48Z</time>
      </trkpt>
      <trkpt lat="44.68628" lon="5.26754">
        <ele>491.8516846</ele>
        <time>2011-05-22T07:32:55Z</time>
      </trkpt>
      <trkpt lat="44.68629" lon="5.26752">
        <ele>491.3709717</ele>
        <time>2011-05-22T07:32:56Z</time>
      </trkpt>
      <trkpt lat="44.68632" lon="5.26744">
        <ele>490.8903809</ele>
        <time>2011-05-22T07:33:00Z</time>
      </trkpt>
      <trkpt lat="44.68633" lon="5.26739">
        <ele>490.8903809</ele>
        <time>2011-05-22T07:33:02Z</time>
      </trkpt>
      <trkpt lat="44.68633" lon="5.26729">
        <ele>489.9290771</ele>
        <time>2011-05-22T07:33:08Z</time>
      </trkpt>
      <trkpt lat="44.68631" lon="5.26724">
        <ele>489.4483643</ele>
        <time>2011-05-22T07:33:12Z</time>
      </trkpt>
      <trkpt lat="44.68627" lon="5.26717">
        <ele>489.4483643</ele>
        <time>2011-05-22T07:33:18Z</time>
      </trkpt>
      <trkpt lat="44.68625" lon="5.26708">
        <ele>492.8129883</ele>
        <time>2011-05-22T07:33:24Z</time>
      </trkpt>
      <trkpt lat="44.68625" lon="5.26704">
        <ele>495.2161865</ele>
        <time>2011-05-22T07:33:27Z</time>
      </trkpt>
      <trkpt lat="44.68626" lon="5.26699">
        <ele>497.138916</ele>
        <time>2011-05-22T07:33:30Z</time>
      </trkpt>
      <trkpt lat="44.68627" lon="5.26694">
        <ele>497.6196289</ele>
        <time>2011-05-22T07:33:34Z</time>
      </trkpt>
      <trkpt lat="44.68626" lon="5.26684">
        <ele>497.6196289</ele>
        <time>2011-05-22T07:33:40Z</time>
      </trkpt>
      <trkpt lat="44.68627" lon="5.26679">
        <ele>500.50354</ele>
        <time>2011-05-22T07:33:44Z</time>
      </trkpt>
      <trkpt lat="44.68624" lon="5.26669">
        <ele>499.5422363</ele>
        <time>2011-05-22T07:33:49Z</time>
      </trkpt>
      <trkpt lat="44.68622" lon="5.26663">
        <ele>499.5422363</ele>
        <time>2011-05-22T07:33:53Z</time>
      </trkpt>
      <trkpt lat="44.68621" lon="5.26657">
        <ele>501.4648438</ele>
        <time>2011-05-22T07:33:57Z</time>
      </trkpt>
      <trkpt lat="44.68624" lon="5.2664">
        <ele>501.9455566</ele>
        <time>2011-05-22T07:34:03Z</time>
      </trkpt>
      <trkpt lat="44.68621" lon="5.26632">
        <ele>502.4261475</ele>
        <time>2011-05-22T07:34:06Z</time>
      </trkpt>
      <trkpt lat="44.6862" lon="5.2663">
        <ele>502.4261475</ele>
        <time>2011-05-22T07:34:07Z</time>
      </trkpt>
      <trkpt lat="44.68617" lon="5.2662">
        <ele>503.8681641</ele>
        <time>2011-05-22T07:34:12Z</time>
      </trkpt>
      <trkpt lat="44.68616" lon="5.26618">
        <ele>503.8681641</ele>
        <time>2011-05-22T07:34:13Z</time>
      </trkpt>
      <trkpt lat="44.68616" lon="5.26604">
        <ele>505.3101807</ele>
        <time>2011-05-22T07:34:19Z</time>
      </trkpt>
      <trkpt lat="44.6861" lon="5.26588">
        <ele>506.2714844</ele>
        <time>2011-05-22T07:34:26Z</time>
      </trkpt>
      <trkpt lat="44.68608" lon="5.26579">
        <ele>506.2714844</ele>
        <time>2011-05-22T07:34:30Z</time>
      </trkpt>
      <trkpt lat="44.68612" lon="5.2656">
        <ele>511.0780029</ele>
        <time>2011-05-22T07:34:36Z</time>
      </trkpt>
      <trkpt lat="44.68613" lon="5.26546">
        <ele>512.0394287</ele>
        <time>2011-05-22T07:34:40Z</time>
      </trkpt>
      <trkpt lat="44.68612" lon="5.26541">
        <ele>511.0780029</ele>
        <time>2011-05-22T07:34:42Z</time>
      </trkpt>
      <trkpt lat="44.68607" lon="5.2653">
        <ele>513.0007324</ele>
        <time>2011-05-22T07:34:47Z</time>
      </trkpt>
      <trkpt lat="44.68606" lon="5.26525">
        <ele>513.9620361</ele>
        <time>2011-05-22T07:34:51Z</time>
      </trkpt>
      <trkpt lat="44.68604" lon="5.26521">
        <ele>517.3266602</ele>
        <time>2011-05-22T07:34:57Z</time>
      </trkpt>
      <trkpt lat="44.68605" lon="5.26516">
        <ele>517.807251</ele>
        <time>2011-05-22T07:35:01Z</time>
      </trkpt>
      <trkpt lat="44.68605" lon="5.26513">
        <ele>517.807251</ele>
        <time>2011-05-22T07:35:03Z</time>
      </trkpt>
      <trkpt lat="44.686" lon="5.26508">
        <ele>520.2105713</ele>
        <time>2011-05-22T07:35:08Z</time>
      </trkpt>
      <trkpt lat="44.68594" lon="5.26501">
        <ele>520.6912842</ele>
        <time>2011-05-22T07:35:12Z</time>
      </trkpt>
      <trkpt lat="44.68585" lon="5.26494">
        <ele>521.1719971</ele>
        <time>2011-05-22T07:35:16Z</time>
      </trkpt>
      <trkpt lat="44.68572" lon="5.26486">
        <ele>519.7298584</ele>
        <time>2011-05-22T07:35:22Z</time>
      </trkpt>
      <trkpt lat="44.68562" lon="5.26486">
        <ele>518.2878418</ele>
        <time>2011-05-22T07:35:27Z</time>
      </trkpt>
      <trkpt lat="44.68553" lon="5.26486">
        <ele>517.807251</ele>
        <time>2011-05-22T07:35:32Z</time>
      </trkpt>
      <trkpt lat="44.68542" lon="5.26491">
        <ele>517.3266602</ele>
        <time>2011-05-22T07:35:38Z</time>
      </trkpt>
      <trkpt lat="44.68527" lon="5.26498">
        <ele>518.2878418</ele>
        <time>2011-05-22T07:35:44Z</time>
      </trkpt>
      <trkpt lat="44.68517" lon="5.26505">
        <ele>518.7685547</ele>
        <time>2011-05-22T07:35:49Z</time>
      </trkpt>
      <trkpt lat="44.68503" lon="5.26511">
        <ele>518.2878418</ele>
        <time>2011-05-22T07:35:54Z</time>
      </trkpt>
      <trkpt lat="44.68492" lon="5.26516">
        <ele>518.7685547</ele>
        <time>2011-05-22T07:35:58Z</time>
      </trkpt>
      <trkpt lat="44.6848" lon="5.26521">
        <ele>519.2492676</ele>
        <time>2011-05-22T07:36:03Z</time>
      </trkpt>
      <trkpt lat="44.68469" lon="5.26524">
        <ele>518.7685547</ele>
        <time>2011-05-22T07:36:08Z</time>
      </trkpt>
      <trkpt lat="44.68454" lon="5.26523">
        <ele>517.3266602</ele>
        <time>2011-05-22T07:36:14Z</time>
      </trkpt>
      <trkpt lat="44.68439" lon="5.26519">
        <ele>516.3652344</ele>
        <time>2011-05-22T07:36:20Z</time>
      </trkpt>
      <trkpt lat="44.68426" lon="5.26515">
        <ele>514.442627</ele>
        <time>2011-05-22T07:36:25Z</time>
      </trkpt>
      <trkpt lat="44.68417" lon="5.26522">
        <ele>512.5200195</ele>
        <time>2011-05-22T07:36:29Z</time>
      </trkpt>
      <trkpt lat="44.68408" lon="5.2653">
        <ele>511.0780029</ele>
        <time>2011-05-22T07:36:33Z</time>
      </trkpt>
      <trkpt lat="44.68406" lon="5.26549">
        <ele>508.6746826</ele>
        <time>2011-05-22T07:36:38Z</time>
      </trkpt>
      <trkpt lat="44.68405" lon="5.26557">
        <ele>507.713501</ele>
        <time>2011-05-22T07:36:40Z</time>
      </trkpt>
      <trkpt lat="44.684" lon="5.26573">
        <ele>503.3874512</ele>
        <time>2011-05-22T07:36:45Z</time>
      </trkpt>
      <trkpt lat="44.68393" lon="5.26586">
        <ele>500.0229492</ele>
        <time>2011-05-22T07:36:49Z</time>
      </trkpt>
      <trkpt lat="44.68387" lon="5.26596">
        <ele>499.0615234</ele>
        <time>2011-05-22T07:36:53Z</time>
      </trkpt>
      <trkpt lat="44.68384" lon="5.26598">
        <ele>499.5422363</ele>
        <time>2011-05-22T07:36:54Z</time>
      </trkpt>
      <trkpt lat="44.68367" lon="5.26603">
        <ele>500.9841309</ele>
        <time>2011-05-22T07:37:00Z</time>
      </trkpt>
      <trkpt lat="44.68354" lon="5.26598">
        <ele>500.9841309</ele>
        <time>2011-05-22T07:37:05Z</time>
      </trkpt>
      <trkpt lat="44.68339" lon="5.26599">
        <ele>501.9455566</ele>
        <time>2011-05-22T07:37:10Z</time>
      </trkpt>
      <trkpt lat="44.68328" lon="5.26598">
        <ele>501.4648438</ele>
        <time>2011-05-22T07:37:14Z</time>
      </trkpt>
      <trkpt lat="44.68312" lon="5.26597">
        <ele>501.4648438</ele>
        <time>2011-05-22T07:37:20Z</time>
      </trkpt>
      <trkpt lat="44.68299" lon="5.26598">
        <ele>500.0229492</ele>
        <time>2011-05-22T07:37:25Z</time>
      </trkpt>
      <trkpt lat="44.68288" lon="5.26598">
        <ele>497.6196289</ele>
        <time>2011-05-22T07:37:29Z</time>
      </trkpt>
      <trkpt lat="44.68284" lon="5.26598">
        <ele>498.1003418</ele>
        <time>2011-05-22T07:37:30Z</time>
      </trkpt>
      <trkpt lat="44.68267" lon="5.26604">
        <ele>495.6968994</ele>
        <time>2011-05-22T07:37:36Z</time>
      </trkpt>
      <trkpt lat="44.68251" lon="5.26611">
        <ele>491.3709717</ele>
        <time>2011-05-22T07:37:42Z</time>
      </trkpt>
      <trkpt lat="44.6824" lon="5.2662">
        <ele>487.0450439</ele>
        <time>2011-05-22T07:37:46Z</time>
      </trkpt>
      <trkpt lat="44.68229" lon="5.26626">
        <ele>482.7192383</ele>
        <time>2011-05-22T07:37:51Z</time>
      </trkpt>
      <trkpt lat="44.68221" lon="5.26631">
        <ele>480.315918</ele>
        <time>2011-05-22T07:37:55Z</time>
      </trkpt>
      <trkpt lat="44.68219" lon="5.26632">
        <ele>479.835083</ele>
        <time>2011-05-22T07:37:56Z</time>
      </trkpt>
      <trkpt lat="44.68207" lon="5.26638">
        <ele>475.5092773</ele>
        <time>2011-05-22T07:38:01Z</time>
      </trkpt>
      <trkpt lat="44.68197" lon="5.26639">
        <ele>472.1446533</ele>
        <time>2011-05-22T07:38:06Z</time>
      </trkpt>
      <trkpt lat="44.68194" lon="5.2664">
        <ele>472.1446533</ele>
        <time>2011-05-22T07:38:07Z</time>
      </trkpt>
      <trkpt lat="44.68184" lon="5.26649">
        <ele>470.2219238</ele>
        <time>2011-05-22T07:38:11Z</time>
      </trkpt>
      <trkpt lat="44.68179" lon="5.26653">
        <ele>468.7800293</ele>
        <time>2011-05-22T07:38:13Z</time>
      </trkpt>
      <trkpt lat="44.68166" lon="5.26668">
        <ele>465.8961182</ele>
        <time>2011-05-22T07:38:18Z</time>
      </trkpt>
      <trkpt lat="44.68155" lon="5.26674">
        <ele>462.5313721</ele>
        <time>2011-05-22T07:38:22Z</time>
      </trkpt>
      <trkpt lat="44.6814" lon="5.26682">
        <ele>459.1668701</ele>
        <time>2011-05-22T07:38:27Z</time>
      </trkpt>
      <trkpt lat="44.68128" lon="5.2669">
        <ele>459.1668701</ele>
        <time>2011-05-22T07:38:32Z</time>
      </trkpt>
      <trkpt lat="44.68116" lon="5.26701">
        <ele>460.1281738</ele>
        <time>2011-05-22T07:38:38Z</time>
      </trkpt>
      <trkpt lat="44.68114" lon="5.26703">
        <ele>460.1281738</ele>
        <time>2011-05-22T07:38:39Z</time>
      </trkpt>
      <trkpt lat="44.68103" lon="5.26716">
        <ele>461.0894775</ele>
        <time>2011-05-22T07:38:45Z</time>
      </trkpt>
      <trkpt lat="44.68095" lon="5.26727">
        <ele>460.1281738</ele>
        <time>2011-05-22T07:38:50Z</time>
      </trkpt>
      <trkpt lat="44.68086" lon="5.26742">
        <ele>457.7249756</ele>
        <time>2011-05-22T07:38:56Z</time>
      </trkpt>
      <trkpt lat="44.68079" lon="5.26758">
        <ele>457.2442627</ele>
        <time>2011-05-22T07:39:01Z</time>
      </trkpt>
      <trkpt lat="44.68075" lon="5.26777">
        <ele>457.2442627</ele>
        <time>2011-05-22T07:39:06Z</time>
      </trkpt>
      <trkpt lat="44.68065" lon="5.26785">
        <ele>457.7249756</ele>
        <time>2011-05-22T07:39:10Z</time>
      </trkpt>
      <trkpt lat="44.68063" lon="5.26788">
        <ele>457.7249756</ele>
        <time>2011-05-22T07:39:11Z</time>
      </trkpt>
      <trkpt lat="44.68053" lon="5.26802">
        <ele>460.1281738</ele>
        <time>2011-05-22T07:39:17Z</time>
      </trkpt>
      <trkpt lat="44.68045" lon="5.26813">
        <ele>461.5701904</ele>
        <time>2011-05-22T07:39:21Z</time>
      </trkpt>
      <trkpt lat="44.68037" lon="5.26827">
        <ele>463.012085</ele>
        <time>2011-05-22T07:39:26Z</time>
      </trkpt>
      <trkpt lat="44.68031" lon="5.26841">
        <ele>463.9733887</ele>
        <time>2011-05-22T07:39:31Z</time>
      </trkpt>
      <trkpt lat="44.68024" lon="5.26852">
        <ele>464.4541016</ele>
        <time>2011-05-22T07:39:36Z</time>
      </trkpt>
      <trkpt lat="44.68015" lon="5.26865">
        <ele>463.4927979</ele>
        <time>2011-05-22T07:39:42Z</time>
      </trkpt>
      <trkpt lat="44.68011" lon="5.26877">
        <ele>462.0507813</ele>
        <time>2011-05-22T07:39:47Z</time>
      </trkpt>
      <trkpt lat="44.6801" lon="5.26896">
        <ele>459.647583</ele>
        <time>2011-05-22T07:39:53Z</time>
      </trkpt>
      <trkpt lat="44.68009" lon="5.26902">
        <ele>458.6861572</ele>
        <time>2011-05-22T07:39:55Z</time>
      </trkpt>
      <trkpt lat="44.68011" lon="5.26918">
        <ele>457.2442627</ele>
        <time>2011-05-22T07:40:00Z</time>
      </trkpt>
      <trkpt lat="44.68006" lon="5.26919">
        <ele>455.3215332</ele>
        <time>2011-05-22T07:40:03Z</time>
      </trkpt>
      <trkpt lat="44.67988" lon="5.26916">
        <ele>454.8408203</ele>
        <time>2011-05-22T07:40:09Z</time>
      </trkpt>
      <trkpt lat="44.67976" lon="5.26916">
        <ele>454.3602295</ele>
        <time>2011-05-22T07:40:13Z</time>
      </trkpt>
      <trkpt lat="44.67969" lon="5.26912">
        <ele>453.3989258</ele>
        <time>2011-05-22T07:40:16Z</time>
      </trkpt>
      <trkpt lat="44.67951" lon="5.26908">
        <ele>448.5924072</ele>
        <time>2011-05-22T07:40:23Z</time>
      </trkpt>
      <trkpt lat="44.67932" lon="5.26908">
        <ele>445.708374</ele>
        <time>2011-05-22T07:40:29Z</time>
      </trkpt>
      <trkpt lat="44.67916" lon="5.26907">
        <ele>444.7470703</ele>
        <time>2011-05-22T07:40:34Z</time>
      </trkpt>
      <trkpt lat="44.67904" lon="5.26909">
        <ele>444.2664795</ele>
        <time>2011-05-22T07:40:38Z</time>
      </trkpt>
      <trkpt lat="44.67893" lon="5.26906">
        <ele>445.2276611</ele>
        <time>2011-05-22T07:40:42Z</time>
      </trkpt>
      <trkpt lat="44.67878" lon="5.269">
        <ele>448.5924072</ele>
        <time>2011-05-22T07:40:48Z</time>
      </trkpt>
      <trkpt lat="44.6787" lon="5.26897">
        <ele>449.5537109</ele>
        <time>2011-05-22T07:40:51Z</time>
      </trkpt>
      <trkpt lat="44.67859" lon="5.26893">
        <ele>450.9956055</ele>
        <time>2011-05-22T07:40:56Z</time>
      </trkpt>
      <trkpt lat="44.67854" lon="5.26892">
        <ele>451.4763184</ele>
        <time>2011-05-22T07:40:58Z</time>
      </trkpt>
      <trkpt lat="44.6784" lon="5.2689">
        <ele>452.9182129</ele>
        <time>2011-05-22T07:41:05Z</time>
      </trkpt>
      <trkpt lat="44.67836" lon="5.26889">
        <ele>453.8796387</ele>
        <time>2011-05-22T07:41:09Z</time>
      </trkpt>
      <trkpt lat="44.67827" lon="5.26888">
        <ele>456.282959</ele>
        <time>2011-05-22T07:41:15Z</time>
      </trkpt>
      <trkpt lat="44.67824" lon="5.26888">
        <ele>457.2442627</ele>
        <time>2011-05-22T07:41:17Z</time>
      </trkpt>
      <trkpt lat="44.6781" lon="5.2688">
        <ele>460.1281738</ele>
        <time>2011-05-22T07:41:25Z</time>
      </trkpt>
      <trkpt lat="44.67803" lon="5.26875">
        <ele>458.6861572</ele>
        <time>2011-05-22T07:41:30Z</time>
      </trkpt>
      <trkpt lat="44.67801" lon="5.26871">
        <ele>459.1668701</ele>
        <time>2011-05-22T07:41:32Z</time>
      </trkpt>
      <trkpt lat="44.67794" lon="5.26865">
        <ele>461.0894775</ele>
        <time>2011-05-22T07:41:37Z</time>
      </trkpt>
      <trkpt lat="44.67788" lon="5.26868">
        <ele>462.0507813</ele>
        <time>2011-05-22T07:41:42Z</time>
      </trkpt>
      <trkpt lat="44.67779" lon="5.26871">
        <ele>463.4927979</ele>
        <time>2011-05-22T07:41:47Z</time>
      </trkpt>
      <trkpt lat="44.67776" lon="5.26873">
        <ele>463.4927979</ele>
        <time>2011-05-22T07:41:49Z</time>
      </trkpt>
      <trkpt lat="44.67771" lon="5.26882">
        <ele>464.9348145</ele>
        <time>2011-05-22T07:41:55Z</time>
      </trkpt>
      <trkpt lat="44.67767" lon="5.26891">
        <ele>465.8961182</ele>
        <time>2011-05-22T07:41:59Z</time>
      </trkpt>
      <trkpt lat="44.67758" lon="5.26904">
        <ele>466.8574219</ele>
        <time>2011-05-22T07:42:05Z</time>
      </trkpt>
      <trkpt lat="44.67755" lon="5.26914">
        <ele>467.3381348</ele>
        <time>2011-05-22T07:42:09Z</time>
      </trkpt>
      <trkpt lat="44.67748" lon="5.26928">
        <ele>469.2607422</ele>
        <time>2011-05-22T07:42:16Z</time>
      </trkpt>
      <trkpt lat="44.67743" lon="5.26944">
        <ele>470.2219238</ele>
        <time>2011-05-22T07:42:22Z</time>
      </trkpt>
      <trkpt lat="44.67738" lon="5.26955">
        <ele>469.741333</ele>
        <time>2011-05-22T07:42:26Z</time>
      </trkpt>
      <trkpt lat="44.67729" lon="5.26972">
        <ele>467.3381348</ele>
        <time>2011-05-22T07:42:32Z</time>
      </trkpt>
      <trkpt lat="44.67724" lon="5.26983">
        <ele>464.9348145</ele>
        <time>2011-05-22T07:42:36Z</time>
      </trkpt>
      <trkpt lat="44.67719" lon="5.26994">
        <ele>463.9733887</ele>
        <time>2011-05-22T07:42:40Z</time>
      </trkpt>
      <trkpt lat="44.67713" lon="5.27011">
        <ele>463.4927979</ele>
        <time>2011-05-22T07:42:45Z</time>
      </trkpt>
      <trkpt lat="44.67703" lon="5.27027">
        <ele>462.0507813</ele>
        <time>2011-05-22T07:42:51Z</time>
      </trkpt>
      <trkpt lat="44.67698" lon="5.27038">
        <ele>460.6087646</ele>
        <time>2011-05-22T07:42:54Z</time>
      </trkpt>
      <trkpt lat="44.67688" lon="5.27054">
        <ele>459.1668701</ele>
        <time>2011-05-22T07:43:00Z</time>
      </trkpt>
      <trkpt lat="44.67683" lon="5.27064">
        <ele>458.6861572</ele>
        <time>2011-05-22T07:43:04Z</time>
      </trkpt>
      <trkpt lat="44.67668" lon="5.27075">
        <ele>459.647583</ele>
        <time>2011-05-22T07:43:12Z</time>
      </trkpt>
      <trkpt lat="44.6766" lon="5.27077">
        <ele>461.0894775</ele>
        <time>2011-05-22T07:43:16Z</time>
      </trkpt>
      <trkpt lat="44.67648" lon="5.27079">
        <ele>463.4927979</ele>
        <time>2011-05-22T07:43:21Z</time>
      </trkpt>
      <trkpt lat="44.67634" lon="5.27083">
        <ele>465.4155273</ele>
        <time>2011-05-22T07:43:27Z</time>
      </trkpt>
      <trkpt lat="44.67621" lon="5.27092">
        <ele>464.4541016</ele>
        <time>2011-05-22T07:43:33Z</time>
      </trkpt>
      <trkpt lat="44.67609" lon="5.27105">
        <ele>463.4927979</ele>
        <time>2011-05-22T07:43:39Z</time>
      </trkpt>
      <trkpt lat="44.67599" lon="5.2712">
        <ele>462.0507813</ele>
        <time>2011-05-22T07:43:44Z</time>
      </trkpt>
      <trkpt lat="44.6759" lon="5.27134">
        <ele>462.5313721</ele>
        <time>2011-05-22T07:43:49Z</time>
      </trkpt>
      <trkpt lat="44.67576" lon="5.27146">
        <ele>460.1281738</ele>
        <time>2011-05-22T07:43:55Z</time>
      </trkpt>
      <trkpt lat="44.67572" lon="5.2715">
        <ele>459.647583</ele>
        <time>2011-05-22T07:43:57Z</time>
      </trkpt>
      <trkpt lat="44.67559" lon="5.27154">
        <ele>458.6861572</ele>
        <time>2011-05-22T07:44:02Z</time>
      </trkpt>
      <trkpt lat="44.67547" lon="5.27159">
        <ele>456.7635498</ele>
        <time>2011-05-22T07:44:06Z</time>
      </trkpt>
      <trkpt lat="44.67534" lon="5.27167">
        <ele>457.2442627</ele>
        <time>2011-05-22T07:44:11Z</time>
      </trkpt>
      <trkpt lat="44.67519" lon="5.2717">
        <ele>457.2442627</ele>
        <time>2011-05-22T07:44:16Z</time>
      </trkpt>
      <trkpt lat="44.6751" lon="5.27172">
        <ele>457.2442627</ele>
        <time>2011-05-22T07:44:20Z</time>
      </trkpt>
      <trkpt lat="44.67501" lon="5.27175">
        <ele>459.1668701</ele>
        <time>2011-05-22T07:44:24Z</time>
      </trkpt>
      <trkpt lat="44.67491" lon="5.27177">
        <ele>460.6087646</ele>
        <time>2011-05-22T07:44:28Z</time>
      </trkpt>
      <trkpt lat="44.67481" lon="5.27182">
        <ele>463.4927979</ele>
        <time>2011-05-22T07:44:33Z</time>
      </trkpt>
      <trkpt lat="44.67472" lon="5.27193">
        <ele>466.376709</ele>
        <time>2011-05-22T07:44:38Z</time>
      </trkpt>
      <trkpt lat="44.67466" lon="5.272">
        <ele>467.3381348</ele>
        <time>2011-05-22T07:44:41Z</time>
      </trkpt>
      <trkpt lat="44.67462" lon="5.27212">
        <ele>468.7800293</ele>
        <time>2011-05-22T07:44:47Z</time>
      </trkpt>
      <trkpt lat="44.67459" lon="5.27222">
        <ele>468.7800293</ele>
        <time>2011-05-22T07:44:52Z</time>
      </trkpt>
      <trkpt lat="44.67456" lon="5.27234">
        <ele>469.2607422</ele>
        <time>2011-05-22T07:44:58Z</time>
      </trkpt>
      <trkpt lat="44.67456" lon="5.27236">
        <ele>469.2607422</ele>
        <time>2011-05-22T07:44:59Z</time>
      </trkpt>
      <trkpt lat="44.67452" lon="5.27245">
        <ele>469.741333</ele>
        <time>2011-05-22T07:45:04Z</time>
      </trkpt>
      <trkpt lat="44.67447" lon="5.27253">
        <ele>470.2219238</ele>
        <time>2011-05-22T07:45:08Z</time>
      </trkpt>
      <trkpt lat="44.67443" lon="5.27262">
        <ele>471.1833496</ele>
        <time>2011-05-22T07:45:12Z</time>
      </trkpt>
      <trkpt lat="44.67437" lon="5.27277">
        <ele>473.1060791</ele>
        <time>2011-05-22T07:45:18Z</time>
      </trkpt>
      <trkpt lat="44.67434" lon="5.27286">
        <ele>474.5479736</ele>
        <time>2011-05-22T07:45:23Z</time>
      </trkpt>
      <trkpt lat="44.6743" lon="5.2729">
        <ele>476.4705811</ele>
        <time>2011-05-22T07:45:27Z</time>
      </trkpt>
      <trkpt lat="44.67426" lon="5.273">
        <ele>477.4318848</ele>
        <time>2011-05-22T07:45:33Z</time>
      </trkpt>
      <trkpt lat="44.67424" lon="5.27308">
        <ele>479.3544922</ele>
        <time>2011-05-22T07:45:38Z</time>
      </trkpt>
      <trkpt lat="44.67423" lon="5.27319">
        <ele>480.7966309</ele>
        <time>2011-05-22T07:45:42Z</time>
      </trkpt>
      <trkpt lat="44.67421" lon="5.27329">
        <ele>482.2385254</ele>
        <time>2011-05-22T07:45:46Z</time>
      </trkpt>
      <trkpt lat="44.6742" lon="5.27332">
        <ele>482.2385254</ele>
        <time>2011-05-22T07:45:47Z</time>
      </trkpt>
      <trkpt lat="44.67411" lon="5.27345">
        <ele>483.1998291</ele>
        <time>2011-05-22T07:45:53Z</time>
      </trkpt>
      <trkpt lat="44.67406" lon="5.27353">
        <ele>483.6804199</ele>
        <time>2011-05-22T07:45:57Z</time>
      </trkpt>
      <trkpt lat="44.674" lon="5.27362">
        <ele>485.1224365</ele>
        <time>2011-05-22T07:46:01Z</time>
      </trkpt>
      <trkpt lat="44.67392" lon="5.27372">
        <ele>485.6030273</ele>
        <time>2011-05-22T07:46:06Z</time>
      </trkpt>
      <trkpt lat="44.67386" lon="5.27383">
        <ele>485.1224365</ele>
        <time>2011-05-22T07:46:11Z</time>
      </trkpt>
      <trkpt lat="44.67379" lon="5.27389">
        <ele>485.1224365</ele>
        <time>2011-05-22T07:46:15Z</time>
      </trkpt>
      <trkpt lat="44.67378" lon="5.27389">
        <ele>485.1224365</ele>
        <time>2011-05-22T07:46:16Z</time>
      </trkpt>
      <trkpt lat="44.67367" lon="5.27392">
        <ele>485.1224365</ele>
        <time>2011-05-22T07:46:22Z</time>
      </trkpt>
      <trkpt lat="44.67358" lon="5.27385">
        <ele>487.0450439</ele>
        <time>2011-05-22T07:46:28Z</time>
      </trkpt>
      <trkpt lat="44.67356" lon="5.27375">
        <ele>488.9677734</ele>
        <time>2011-05-22T07:46:32Z</time>
      </trkpt>
      <trkpt lat="44.6735" lon="5.27371">
        <ele>487.0450439</ele>
        <time>2011-05-22T07:46:36Z</time>
      </trkpt>
      <trkpt lat="44.67345" lon="5.2737">
        <ele>486.5644531</ele>
        <time>2011-05-22T07:46:38Z</time>
      </trkpt>
      <trkpt lat="44.67341" lon="5.27371">
        <ele>487.0450439</ele>
        <time>2011-05-22T07:46:40Z</time>
      </trkpt>
      <trkpt lat="44.67332" lon="5.27373">
        <ele>487.5256348</ele>
        <time>2011-05-22T07:46:45Z</time>
      </trkpt>
      <trkpt lat="44.6733" lon="5.27374">
        <ele>488.0064697</ele>
        <time>2011-05-22T07:46:46Z</time>
      </trkpt>
      <trkpt lat="44.67314" lon="5.27383">
        <ele>486.5644531</ele>
        <time>2011-05-22T07:46:53Z</time>
      </trkpt>
      <trkpt lat="44.67306" lon="5.2739">
        <ele>487.5256348</ele>
        <time>2011-05-22T07:46:57Z</time>
      </trkpt>
      <trkpt lat="44.67303" lon="5.27393">
        <ele>487.5256348</ele>
        <time>2011-05-22T07:46:59Z</time>
      </trkpt>
      <trkpt lat="44.67298" lon="5.27404">
        <ele>488.4871826</ele>
        <time>2011-05-22T07:47:05Z</time>
      </trkpt>
      <trkpt lat="44.67294" lon="5.27415">
        <ele>489.4483643</ele>
        <time>2011-05-22T07:47:10Z</time>
      </trkpt>
      <trkpt lat="44.67288" lon="5.27422">
        <ele>490.40979</ele>
        <time>2011-05-22T07:47:14Z</time>
      </trkpt>
      <trkpt lat="44.67284" lon="5.27433">
        <ele>492.3323975</ele>
        <time>2011-05-22T07:47:19Z</time>
      </trkpt>
      <trkpt lat="44.67281" lon="5.27442">
        <ele>493.774292</ele>
        <time>2011-05-22T07:47:23Z</time>
      </trkpt>
      <trkpt lat="44.67279" lon="5.27448">
        <ele>494.7355957</ele>
        <time>2011-05-22T07:47:26Z</time>
      </trkpt>
      <trkpt lat="44.67278" lon="5.27458">
        <ele>496.1777344</ele>
        <time>2011-05-22T07:47:30Z</time>
      </trkpt>
      <trkpt lat="44.67273" lon="5.27466">
        <ele>496.6583252</ele>
        <time>2011-05-22T07:47:34Z</time>
      </trkpt>
      <trkpt lat="44.67264" lon="5.27477">
        <ele>496.6583252</ele>
        <time>2011-05-22T07:47:39Z</time>
      </trkpt>
      <trkpt lat="44.67257" lon="5.27486">
        <ele>497.138916</ele>
        <time>2011-05-22T07:47:43Z</time>
      </trkpt>
      <trkpt lat="44.67247" lon="5.27495">
        <ele>498.1003418</ele>
        <time>2011-05-22T07:47:48Z</time>
      </trkpt>
      <trkpt lat="44.67232" lon="5.27503">
        <ele>499.5422363</ele>
        <time>2011-05-22T07:47:54Z</time>
      </trkpt>
      <trkpt lat="44.67224" lon="5.27506">
        <ele>499.0615234</ele>
        <time>2011-05-22T07:47:57Z</time>
      </trkpt>
      <trkpt lat="44.67213" lon="5.27511">
        <ele>499.5422363</ele>
        <time>2011-05-22T07:48:03Z</time>
      </trkpt>
      <trkpt lat="44.67203" lon="5.27511">
        <ele>501.4648438</ele>
        <time>2011-05-22T07:48:08Z</time>
      </trkpt>
      <trkpt lat="44.67196" lon="5.27508">
        <ele>503.3874512</ele>
        <time>2011-05-22T07:48:12Z</time>
      </trkpt>
      <trkpt lat="44.67185" lon="5.27512">
        <ele>504.348877</ele>
        <time>2011-05-22T07:48:19Z</time>
      </trkpt>
      <trkpt lat="44.67177" lon="5.27516">
        <ele>505.3101807</ele>
        <time>2011-05-22T07:48:25Z</time>
      </trkpt>
      <trkpt lat="44.67172" lon="5.27519">
        <ele>507.2327881</ele>
        <time>2011-05-22T07:48:30Z</time>
      </trkpt>
      <trkpt lat="44.67163" lon="5.27521">
        <ele>506.7520752</ele>
        <time>2011-05-22T07:48:36Z</time>
      </trkpt>
      <trkpt lat="44.67159" lon="5.27521">
        <ele>506.2714844</ele>
        <time>2011-05-22T07:48:38Z</time>
      </trkpt>
      <trkpt lat="44.67147" lon="5.27527">
        <ele>510.59729</ele>
        <time>2011-05-22T07:48:45Z</time>
      </trkpt>
      <trkpt lat="44.67135" lon="5.27532">
        <ele>515.8846436</ele>
        <time>2011-05-22T07:48:51Z</time>
      </trkpt>
      <trkpt lat="44.67129" lon="5.27536">
        <ele>517.3266602</ele>
        <time>2011-05-22T07:48:56Z</time>
      </trkpt>
      <trkpt lat="44.67128" lon="5.27536">
        <ele>518.2878418</ele>
        <time>2011-05-22T07:48:57Z</time>
      </trkpt>
      <trkpt lat="44.67121" lon="5.27539">
        <ele>519.7298584</ele>
        <time>2011-05-22T07:49:01Z</time>
      </trkpt>
      <trkpt lat="44.67108" lon="5.2754">
        <ele>519.7298584</ele>
        <time>2011-05-22T07:49:07Z</time>
      </trkpt>
      <trkpt lat="44.67105" lon="5.27541">
        <ele>519.2492676</ele>
        <time>2011-05-22T07:49:09Z</time>
      </trkpt>
      <trkpt lat="44.67094" lon="5.27541">
        <ele>518.2878418</ele>
        <time>2011-05-22T07:49:14Z</time>
      </trkpt>
      <trkpt lat="44.6709" lon="5.27541">
        <ele>518.7685547</ele>
        <time>2011-05-22T07:49:16Z</time>
      </trkpt>
      <trkpt lat="44.67078" lon="5.27531">
        <ele>518.7685547</ele>
        <time>2011-05-22T07:49:21Z</time>
      </trkpt>
      <trkpt lat="44.6707" lon="5.27526">
        <ele>517.807251</ele>
        <time>2011-05-22T07:49:25Z</time>
      </trkpt>
      <trkpt lat="44.67059" lon="5.27518">
        <ele>514.442627</ele>
        <time>2011-05-22T07:49:30Z</time>
      </trkpt>
      <trkpt lat="44.67055" lon="5.27515">
        <ele>512.5200195</ele>
        <time>2011-05-22T07:49:32Z</time>
      </trkpt>
      <trkpt lat="44.67042" lon="5.27503">
        <ele>505.7908936</ele>
        <time>2011-05-22T07:49:38Z</time>
      </trkpt>
      <trkpt lat="44.67031" lon="5.27499">
        <ele>502.4261475</ele>
        <time>2011-05-22T07:49:42Z</time>
      </trkpt>
      <trkpt lat="44.67019" lon="5.27496">
        <ele>498.5809326</ele>
        <time>2011-05-22T07:49:46Z</time>
      </trkpt>
      <trkpt lat="44.67006" lon="5.27495">
        <ele>494.2550049</ele>
        <time>2011-05-22T07:49:51Z</time>
      </trkpt>
      <trkpt lat="44.66995" lon="5.27495">
        <ele>489.9290771</ele>
        <time>2011-05-22T07:49:55Z</time>
      </trkpt>
      <trkpt lat="44.66983" lon="5.27489">
        <ele>484.1611328</ele>
        <time>2011-05-22T07:49:59Z</time>
      </trkpt>
      <trkpt lat="44.66972" lon="5.27481">
        <ele>478.3931885</ele>
        <time>2011-05-22T07:50:03Z</time>
      </trkpt>
      <trkpt lat="44.66965" lon="5.27489">
        <ele>476.9512939</ele>
        <time>2011-05-22T07:50:07Z</time>
      </trkpt>
      <trkpt lat="44.66964" lon="5.2751">
        <ele>475.5092773</ele>
        <time>2011-05-22T07:50:12Z</time>
      </trkpt>
      <trkpt lat="44.66964" lon="5.27514">
        <ele>475.5092773</ele>
        <time>2011-05-22T07:50:13Z</time>
      </trkpt>
      <trkpt lat="44.66962" lon="5.27526">
        <ele>475.0286865</ele>
        <time>2011-05-22T07:50:16Z</time>
      </trkpt>
      <trkpt lat="44.66949" lon="5.27534">
        <ele>473.5866699</ele>
        <time>2011-05-22T07:50:21Z</time>
      </trkpt>
      <trkpt lat="44.6695" lon="5.27519">
        <ele>471.1833496</ele>
        <time>2011-05-22T07:50:25Z</time>
      </trkpt>
      <trkpt lat="44.66953" lon="5.27502">
        <ele>470.2219238</ele>
        <time>2011-05-22T07:50:29Z</time>
      </trkpt>
      <trkpt lat="44.66951" lon="5.27474">
        <ele>468.7800293</ele>
        <time>2011-05-22T07:50:35Z</time>
      </trkpt>
      <trkpt lat="44.6695" lon="5.27469">
        <ele>468.7800293</ele>
        <time>2011-05-22T07:50:36Z</time>
      </trkpt>
      <trkpt lat="44.66955" lon="5.27449">
        <ele>467.3381348</ele>
        <time>2011-05-22T07:50:40Z</time>
      </trkpt>
      <trkpt lat="44.66954" lon="5.27438">
        <ele>467.8187256</ele>
        <time>2011-05-22T07:50:43Z</time>
      </trkpt>
      <trkpt lat="44.66944" lon="5.27438">
        <ele>466.376709</ele>
        <time>2011-05-22T07:50:46Z</time>
      </trkpt>
      <trkpt lat="44.66934" lon="5.27445">
        <ele>465.8961182</ele>
        <time>2011-05-22T07:50:49Z</time>
      </trkpt>
      <trkpt lat="44.66914" lon="5.27457">
        <ele>464.9348145</ele>
        <time>2011-05-22T07:50:55Z</time>
      </trkpt>
      <trkpt lat="44.669" lon="5.27469">
        <ele>463.9733887</ele>
        <time>2011-05-22T07:51:00Z</time>
      </trkpt>
      <trkpt lat="44.66888" lon="5.27484">
        <ele>461.5701904</ele>
        <time>2011-05-22T07:51:05Z</time>
      </trkpt>
      <trkpt lat="44.66878" lon="5.27502">
        <ele>458.2055664</ele>
        <time>2011-05-22T07:51:10Z</time>
      </trkpt>
      <trkpt lat="44.66868" lon="5.27512">
        <ele>457.2442627</ele>
        <time>2011-05-22T07:51:14Z</time>
      </trkpt>
      <trkpt lat="44.66852" lon="5.27523">
        <ele>455.3215332</ele>
        <time>2011-05-22T07:51:20Z</time>
      </trkpt>
      <trkpt lat="44.6684" lon="5.27528">
        <ele>454.3602295</ele>
        <time>2011-05-22T07:51:24Z</time>
      </trkpt>
      <trkpt lat="44.66828" lon="5.27529">
        <ele>452.4376221</ele>
        <time>2011-05-22T07:51:28Z</time>
      </trkpt>
      <trkpt lat="44.66812" lon="5.2753">
        <ele>450.5150146</ele>
        <time>2011-05-22T07:51:33Z</time>
      </trkpt>
      <trkpt lat="44.66803" lon="5.27531">
        <ele>449.5537109</ele>
        <time>2011-05-22T07:51:36Z</time>
      </trkpt>
      <trkpt lat="44.66791" lon="5.27533">
        <ele>449.072998</ele>
        <time>2011-05-22T07:51:40Z</time>
      </trkpt>
      <trkpt lat="44.66777" lon="5.27535">
        <ele>447.1502686</ele>
        <time>2011-05-22T07:51:45Z</time>
      </trkpt>
      <trkpt lat="44.66763" lon="5.27533">
        <ele>446.1890869</ele>
        <time>2011-05-22T07:51:50Z</time>
      </trkpt>
      <trkpt lat="44.66745" lon="5.27529">
        <ele>443.7857666</ele>
        <time>2011-05-22T07:51:56Z</time>
      </trkpt>
      <trkpt lat="44.66729" lon="5.27536">
        <ele>442.3438721</ele>
        <time>2011-05-22T07:52:01Z</time>
      </trkpt>
      <trkpt lat="44.66717" lon="5.27544">
        <ele>440.9018555</ele>
        <time>2011-05-22T07:52:05Z</time>
      </trkpt>
      <trkpt lat="44.66703" lon="5.27554">
        <ele>438.0178223</ele>
        <time>2011-05-22T07:52:10Z</time>
      </trkpt>
      <trkpt lat="44.66691" lon="5.27561">
        <ele>435.614502</ele>
        <time>2011-05-22T07:52:14Z</time>
      </trkpt>
      <trkpt lat="44.66679" lon="5.27568">
        <ele>433.2113037</ele>
        <time>2011-05-22T07:52:18Z</time>
      </trkpt>
      <trkpt lat="44.66663" lon="5.27578">
        <ele>430.8079834</ele>
        <time>2011-05-22T07:52:24Z</time>
      </trkpt>
      <trkpt lat="44.66649" lon="5.27591">
        <ele>429.8465576</ele>
        <time>2011-05-22T07:52:30Z</time>
      </trkpt>
      <trkpt lat="44.66644" lon="5.27597">
        <ele>428.4046631</ele>
        <time>2011-05-22T07:52:32Z</time>
      </trkpt>
      <trkpt lat="44.66636" lon="5.27592">
        <ele>426.0013428</ele>
        <time>2011-05-22T07:52:36Z</time>
      </trkpt>
      <trkpt lat="44.66636" lon="5.27587">
        <ele>425.520752</ele>
        <time>2011-05-22T07:52:37Z</time>
      </trkpt>
      <trkpt lat="44.66643" lon="5.27568">
        <ele>423.5980225</ele>
        <time>2011-05-22T07:52:42Z</time>
      </trkpt>
      <trkpt lat="44.66645" lon="5.27547">
        <ele>422.6367188</ele>
        <time>2011-05-22T07:52:47Z</time>
      </trkpt>
      <trkpt lat="44.66646" lon="5.27525">
        <ele>422.1560059</ele>
        <time>2011-05-22T07:52:52Z</time>
      </trkpt>
      <trkpt lat="44.66649" lon="5.27499">
        <ele>421.1948242</ele>
        <time>2011-05-22T07:52:58Z</time>
      </trkpt>
      <trkpt lat="44.66646" lon="5.27473">
        <ele>422.1560059</ele>
        <time>2011-05-22T07:53:04Z</time>
      </trkpt>
      <trkpt lat="44.66644" lon="5.27461">
        <ele>423.5980225</ele>
        <time>2011-05-22T07:53:07Z</time>
      </trkpt>
      <trkpt lat="44.66642" lon="5.27443">
        <ele>423.5980225</ele>
        <time>2011-05-22T07:53:12Z</time>
      </trkpt>
      <trkpt lat="44.6664" lon="5.27428">
        <ele>424.5594482</ele>
        <time>2011-05-22T07:53:16Z</time>
      </trkpt>
      <trkpt lat="44.66645" lon="5.2741">
        <ele>423.5980225</ele>
        <time>2011-05-22T07:53:21Z</time>
      </trkpt>
      <trkpt lat="44.66637" lon="5.2741">
        <ele>422.6367188</ele>
        <time>2011-05-22T07:53:25Z</time>
      </trkpt>
      <trkpt lat="44.66636" lon="5.27414">
        <ele>422.6367188</ele>
        <time>2011-05-22T07:53:26Z</time>
      </trkpt>
      <trkpt lat="44.66631" lon="5.27439">
        <ele>422.1560059</ele>
        <time>2011-05-22T07:53:32Z</time>
      </trkpt>
      <trkpt lat="44.66628" lon="5.27461">
        <ele>420.2333984</ele>
        <time>2011-05-22T07:53:37Z</time>
      </trkpt>
      <trkpt lat="44.66624" lon="5.27487">
        <ele>416.8688965</ele>
        <time>2011-05-22T07:53:43Z</time>
      </trkpt>
      <trkpt lat="44.66618" lon="5.27508">
        <ele>415.4268799</ele>
        <time>2011-05-22T07:53:48Z</time>
      </trkpt>
      <trkpt lat="44.66607" lon="5.27524">
        <ele>413.9848633</ele>
        <time>2011-05-22T07:53:53Z</time>
      </trkpt>
      <trkpt lat="44.66595" lon="5.27533">
        <ele>413.5042725</ele>
        <time>2011-05-22T07:53:57Z</time>
      </trkpt>
      <trkpt lat="44.6658" lon="5.27536">
        <ele>412.5428467</ele>
        <time>2011-05-22T07:54:02Z</time>
      </trkpt>
      <trkpt lat="44.66566" lon="5.27534">
        <ele>411.1009521</ele>
        <time>2011-05-22T07:54:07Z</time>
      </trkpt>
      <trkpt lat="44.66552" lon="5.27531">
        <ele>408.217041</ele>
        <time>2011-05-22T07:54:12Z</time>
      </trkpt>
      <trkpt lat="44.66538" lon="5.27534">
        <ele>407.7363281</ele>
        <time>2011-05-22T07:54:17Z</time>
      </trkpt>
      <trkpt lat="44.66523" lon="5.27538">
        <ele>405.8137207</ele>
        <time>2011-05-22T07:54:22Z</time>
      </trkpt>
      <trkpt lat="44.6651" lon="5.27546">
        <ele>403.4104004</ele>
        <time>2011-05-22T07:54:27Z</time>
      </trkpt>
      <trkpt lat="44.66498" lon="5.27564">
        <ele>401.0070801</ele>
        <time>2011-05-22T07:54:33Z</time>
      </trkpt>
      <trkpt lat="44.66491" lon="5.27577">
        <ele>399.0843506</ele>
        <time>2011-05-22T07:54:37Z</time>
      </trkpt>
      <trkpt lat="44.66482" lon="5.27597">
        <ele>396.6811523</ele>
        <time>2011-05-22T07:54:43Z</time>
      </trkpt>
      <trkpt lat="44.66474" lon="5.27618">
        <ele>394.2779541</ele>
        <time>2011-05-22T07:54:49Z</time>
      </trkpt>
      <trkpt lat="44.66472" lon="5.27622">
        <ele>393.3165283</ele>
        <time>2011-05-22T07:54:50Z</time>
      </trkpt>
      <trkpt lat="44.66466" lon="5.27618">
        <ele>391.3937988</ele>
        <time>2011-05-22T07:54:54Z</time>
      </trkpt>
      <trkpt lat="44.66472" lon="5.27601">
        <ele>389.9519043</ele>
        <time>2011-05-22T07:54:58Z</time>
      </trkpt>
      <trkpt lat="44.66473" lon="5.27597">
        <ele>389.9519043</ele>
        <time>2011-05-22T07:54:59Z</time>
      </trkpt>
      <trkpt lat="44.66477" lon="5.27576">
        <ele>388.9906006</ele>
        <time>2011-05-22T07:55:04Z</time>
      </trkpt>
      <trkpt lat="44.66479" lon="5.27555">
        <ele>389.4711914</ele>
        <time>2011-05-22T07:55:09Z</time>
      </trkpt>
      <trkpt lat="44.66479" lon="5.27538">
        <ele>388.9906006</ele>
        <time>2011-05-22T07:55:13Z</time>
      </trkpt>
      <trkpt lat="44.66476" lon="5.27523">
        <ele>387.548584</ele>
        <time>2011-05-22T07:55:17Z</time>
      </trkpt>
      <trkpt lat="44.6647" lon="5.27494">
        <ele>386.1066895</ele>
        <time>2011-05-22T07:55:24Z</time>
      </trkpt>
      <trkpt lat="44.66467" lon="5.27482">
        <ele>384.6647949</ele>
        <time>2011-05-22T07:55:27Z</time>
      </trkpt>
      <trkpt lat="44.66466" lon="5.27462">
        <ele>381.7806396</ele>
        <time>2011-05-22T07:55:32Z</time>
      </trkpt>
      <trkpt lat="44.66466" lon="5.27454">
        <ele>380.819458</ele>
        <time>2011-05-22T07:55:34Z</time>
      </trkpt>
      <trkpt lat="44.66473" lon="5.27442">
        <ele>377.9354248</ele>
        <time>2011-05-22T07:55:38Z</time>
      </trkpt>
      <trkpt lat="44.66486" lon="5.27434">
        <ele>377.454834</ele>
        <time>2011-05-22T07:55:43Z</time>
      </trkpt>
      <trkpt lat="44.66498" lon="5.27435">
        <ele>377.9354248</ele>
        <time>2011-05-22T07:55:47Z</time>
      </trkpt>
      <trkpt lat="44.66516" lon="5.27439">
        <ele>378.4161377</ele>
        <time>2011-05-22T07:55:53Z</time>
      </trkpt>
      <trkpt lat="44.66534" lon="5.27435">
        <ele>379.3774414</ele>
        <time>2011-05-22T07:55:59Z</time>
      </trkpt>
      <trkpt lat="44.6655" lon="5.27432">
        <ele>379.3774414</ele>
        <time>2011-05-22T07:56:04Z</time>
      </trkpt>
      <trkpt lat="44.66565" lon="5.27418">
        <ele>378.4161377</ele>
        <time>2011-05-22T07:56:10Z</time>
      </trkpt>
      <trkpt lat="44.66569" lon="5.27396">
        <ele>375.5321045</ele>
        <time>2011-05-22T07:56:15Z</time>
      </trkpt>
      <trkpt lat="44.66571" lon="5.2737">
        <ele>373.6094971</ele>
        <time>2011-05-22T07:56:21Z</time>
      </trkpt>
      <trkpt lat="44.66579" lon="5.27352">
        <ele>373.1289063</ele>
        <time>2011-05-22T07:56:26Z</time>
      </trkpt>
      <trkpt lat="44.6658" lon="5.27349">
        <ele>372.6481934</ele>
        <time>2011-05-22T07:56:27Z</time>
      </trkpt>
      <trkpt lat="44.66573" lon="5.27348">
        <ele>370.7255859</ele>
        <time>2011-05-22T07:56:31Z</time>
      </trkpt>
      <trkpt lat="44.66572" lon="5.27352">
        <ele>370.7255859</ele>
        <time>2011-05-22T07:56:32Z</time>
      </trkpt>
      <trkpt lat="44.66561" lon="5.27374">
        <ele>370.244873</ele>
        <time>2011-05-22T07:56:38Z</time>
      </trkpt>
      <trkpt lat="44.66548" lon="5.27388">
        <ele>369.2836914</ele>
        <time>2011-05-22T07:56:43Z</time>
      </trkpt>
      <trkpt lat="44.66532" lon="5.27394">
        <ele>367.3609619</ele>
        <time>2011-05-22T07:56:48Z</time>
      </trkpt>
      <trkpt lat="44.66515" lon="5.27393">
        <ele>365.9189453</ele>
        <time>2011-05-22T07:56:53Z</time>
      </trkpt>
      <trkpt lat="44.66499" lon="5.27389">
        <ele>363.5157471</ele>
        <time>2011-05-22T07:56:58Z</time>
      </trkpt>
      <trkpt lat="44.66481" lon="5.27385">
        <ele>360.6317139</ele>
        <time>2011-05-22T07:57:04Z</time>
      </trkpt>
      <trkpt lat="44.66465" lon="5.27384">
        <ele>359.1896973</ele>
        <time>2011-05-22T07:57:09Z</time>
      </trkpt>
      <trkpt lat="44.66452" lon="5.27385">
        <ele>356.786377</ele>
        <time>2011-05-22T07:57:13Z</time>
      </trkpt>
      <trkpt lat="44.66436" lon="5.27388">
        <ele>355.8251953</ele>
        <time>2011-05-22T07:57:18Z</time>
      </trkpt>
      <trkpt lat="44.66418" lon="5.27396">
        <ele>355.8251953</ele>
        <time>2011-05-22T07:57:24Z</time>
      </trkpt>
      <trkpt lat="44.66406" lon="5.27406">
        <ele>354.8637695</ele>
        <time>2011-05-22T07:57:28Z</time>
      </trkpt>
      <trkpt lat="44.664" lon="5.27426">
        <ele>352.9411621</ele>
        <time>2011-05-22T07:57:33Z</time>
      </trkpt>
      <trkpt lat="44.66402" lon="5.27448">
        <ele>352.4605713</ele>
        <time>2011-05-22T07:57:38Z</time>
      </trkpt>
      <trkpt lat="44.66408" lon="5.27464">
        <ele>351.0184326</ele>
        <time>2011-05-22T07:57:42Z</time>
      </trkpt>
      <trkpt lat="44.66414" lon="5.27487">
        <ele>349.5765381</ele>
        <time>2011-05-22T07:57:48Z</time>
      </trkpt>
      <trkpt lat="44.66415" lon="5.27494">
        <ele>349.0958252</ele>
        <time>2011-05-22T07:57:50Z</time>
      </trkpt>
      <trkpt lat="44.66415" lon="5.27522">
        <ele>349.5765381</ele>
        <time>2011-05-22T07:57:57Z</time>
      </trkpt>
      <trkpt lat="44.66416" lon="5.27543">
        <ele>350.5378418</ele>
        <time>2011-05-22T07:58:02Z</time>
      </trkpt>
      <trkpt lat="44.66415" lon="5.27564">
        <ele>351.4991455</ele>
        <time>2011-05-22T07:58:07Z</time>
      </trkpt>
      <trkpt lat="44.66416" lon="5.27582">
        <ele>352.4605713</ele>
        <time>2011-05-22T07:58:11Z</time>
      </trkpt>
      <trkpt lat="44.66416" lon="5.27602">
        <ele>352.4605713</ele>
        <time>2011-05-22T07:58:16Z</time>
      </trkpt>
      <trkpt lat="44.66415" lon="5.27606">
        <ele>353.421875</ele>
        <time>2011-05-22T07:58:17Z</time>
      </trkpt>
      <trkpt lat="44.66415" lon="5.27619">
        <ele>353.9025879</ele>
        <time>2011-05-22T07:58:20Z</time>
      </trkpt>
      <trkpt lat="44.66414" lon="5.27639">
        <ele>354.3831787</ele>
        <time>2011-05-22T07:58:25Z</time>
      </trkpt>
      <trkpt lat="44.66413" lon="5.27651">
        <ele>354.3831787</ele>
        <time>2011-05-22T07:58:28Z</time>
      </trkpt>
      <trkpt lat="44.66407" lon="5.27668">
        <ele>354.3831787</ele>
        <time>2011-05-22T07:58:33Z</time>
      </trkpt>
      <trkpt lat="44.664" lon="5.2768">
        <ele>354.8637695</ele>
        <time>2011-05-22T07:58:37Z</time>
      </trkpt>
      <trkpt lat="44.66387" lon="5.27683">
        <ele>355.8251953</ele>
        <time>2011-05-22T07:58:42Z</time>
      </trkpt>
      <trkpt lat="44.66373" lon="5.2768">
        <ele>356.3057861</ele>
        <time>2011-05-22T07:58:47Z</time>
      </trkpt>
      <trkpt lat="44.66356" lon="5.27676">
        <ele>357.7478027</ele>
        <time>2011-05-22T07:58:53Z</time>
      </trkpt>
      <trkpt lat="44.66349" lon="5.27671">
        <ele>358.7089844</ele>
        <time>2011-05-22T07:58:57Z</time>
      </trkpt>
      <trkpt lat="44.66348" lon="5.2767">
        <ele>359.6704102</ele>
        <time>2011-05-22T07:58:58Z</time>
      </trkpt>
      <trkpt lat="44.66339" lon="5.27658">
        <ele>361.1124268</ele>
        <time>2011-05-22T07:59:03Z</time>
      </trkpt>
      <trkpt lat="44.66335" lon="5.27648">
        <ele>363.5157471</ele>
        <time>2011-05-22T07:59:07Z</time>
      </trkpt>
      <trkpt lat="44.66333" lon="5.27642">
        <ele>366.880249</ele>
        <time>2011-05-22T07:59:10Z</time>
      </trkpt>
      <trkpt lat="44.6633" lon="5.27622">
        <ele>378.8968506</ele>
        <time>2011-05-22T07:59:17Z</time>
      </trkpt>
      <trkpt lat="44.66328" lon="5.27615">
        <ele>381.3000488</ele>
        <time>2011-05-22T07:59:20Z</time>
      </trkpt>
      <trkpt lat="44.66319" lon="5.27603">
        <ele>383.2226563</ele>
        <time>2011-05-22T07:59:27Z</time>
      </trkpt>
      <trkpt lat="44.66313" lon="5.27593">
        <ele>381.7806396</ele>
        <time>2011-05-22T07:59:32Z</time>
      </trkpt>
      <trkpt lat="44.66309" lon="5.2758">
        <ele>385.6259766</ele>
        <time>2011-05-22T07:59:38Z</time>
      </trkpt>
      <trkpt lat="44.66309" lon="5.27567">
        <ele>391.3937988</ele>
        <time>2011-05-22T07:59:43Z</time>
      </trkpt>
      <trkpt lat="44.66305" lon="5.2756">
        <ele>390.913208</ele>
        <time>2011-05-22T07:59:48Z</time>
      </trkpt>
      <trkpt lat="44.66304" lon="5.27561">
        <ele>393.3165283</ele>
        <time>2011-05-22T07:59:51Z</time>
      </trkpt>
      <trkpt lat="44.66308" lon="5.27576">
        <ele>393.3165283</ele>
        <time>2011-05-22T07:59:57Z</time>
      </trkpt>
      <trkpt lat="44.66311" lon="5.27581">
        <ele>394.7585449</ele>
        <time>2011-05-22T07:59:59Z</time>
      </trkpt>
      <trkpt lat="44.66312" lon="5.2759">
        <ele>393.3165283</ele>
        <time>2011-05-22T08:00:03Z</time>
      </trkpt>
      <trkpt lat="44.66312" lon="5.27593">
        <ele>392.8359375</ele>
        <time>2011-05-22T08:00:06Z</time>
      </trkpt>
      <trkpt lat="44.66309" lon="5.2759">
        <ele>391.8745117</ele>
        <time>2011-05-22T08:00:10Z</time>
      </trkpt>
      <trkpt lat="44.66299" lon="5.27578">
        <ele>387.548584</ele>
        <time>2011-05-22T08:00:16Z</time>
      </trkpt>
      <trkpt lat="44.66292" lon="5.27565">
        <ele>386.1066895</ele>
        <time>2011-05-22T08:00:22Z</time>
      </trkpt>
      <trkpt lat="44.66292" lon="5.27555">
        <ele>387.548584</ele>
        <time>2011-05-22T08:00:26Z</time>
      </trkpt>
      <trkpt lat="44.66294" lon="5.2754">
        <ele>389.4711914</ele>
        <time>2011-05-22T08:00:32Z</time>
      </trkpt>
      <trkpt lat="44.66294" lon="5.2753">
        <ele>391.8745117</ele>
        <time>2011-05-22T08:00:37Z</time>
      </trkpt>
      <trkpt lat="44.66294" lon="5.27527">
        <ele>392.3553467</ele>
        <time>2011-05-22T08:00:38Z</time>
      </trkpt>
      <trkpt lat="44.66293" lon="5.27516">
        <ele>393.3165283</ele>
        <time>2011-05-22T08:00:43Z</time>
      </trkpt>
      <trkpt lat="44.66294" lon="5.27511">
        <ele>393.7972412</ele>
        <time>2011-05-22T08:00:45Z</time>
      </trkpt>
      <trkpt lat="44.66293" lon="5.27491">
        <ele>392.8359375</ele>
        <time>2011-05-22T08:00:53Z</time>
      </trkpt>
      <trkpt lat="44.66293" lon="5.27474">
        <ele>394.7585449</ele>
        <time>2011-05-22T08:00:59Z</time>
      </trkpt>
      <trkpt lat="44.66288" lon="5.27454">
        <ele>392.8359375</ele>
        <time>2011-05-22T08:01:06Z</time>
      </trkpt>
      <trkpt lat="44.66285" lon="5.27437">
        <ele>391.8745117</ele>
        <time>2011-05-22T08:01:12Z</time>
      </trkpt>
      <trkpt lat="44.66285" lon="5.27434">
        <ele>392.3553467</ele>
        <time>2011-05-22T08:01:18Z</time>
      </trkpt>
      <trkpt lat="44.66284" lon="5.27433">
        <ele>392.3553467</ele>
        <time>2011-05-22T08:01:19Z</time>
      </trkpt>
      <trkpt lat="44.66281" lon="5.27413">
        <ele>393.3165283</ele>
        <time>2011-05-22T08:01:26Z</time>
      </trkpt>
      <trkpt lat="44.66283" lon="5.27399">
        <ele>394.7585449</ele>
        <time>2011-05-22T08:01:30Z</time>
      </trkpt>
      <trkpt lat="44.66284" lon="5.27385">
        <ele>397.6424561</ele>
        <time>2011-05-22T08:01:35Z</time>
      </trkpt>
      <trkpt lat="44.66284" lon="5.27373">
        <ele>398.1231689</ele>
        <time>2011-05-22T08:01:39Z</time>
      </trkpt>
      <trkpt lat="44.66288" lon="5.27359">
        <ele>398.6037598</ele>
        <time>2011-05-22T08:01:43Z</time>
      </trkpt>
      <trkpt lat="44.66293" lon="5.2734">
        <ele>395.2391357</ele>
        <time>2011-05-22T08:01:48Z</time>
      </trkpt>
      <trkpt lat="44.66295" lon="5.27319">
        <ele>391.8745117</ele>
        <time>2011-05-22T08:01:53Z</time>
      </trkpt>
      <trkpt lat="44.663" lon="5.27301">
        <ele>390.913208</ele>
        <time>2011-05-22T08:01:58Z</time>
      </trkpt>
      <trkpt lat="44.66303" lon="5.27278">
        <ele>392.8359375</ele>
        <time>2011-05-22T08:02:04Z</time>
      </trkpt>
      <trkpt lat="44.66311" lon="5.27258">
        <ele>392.3553467</ele>
        <time>2011-05-22T08:02:10Z</time>
      </trkpt>
      <trkpt lat="44.66315" lon="5.27247">
        <ele>392.8359375</ele>
        <time>2011-05-22T08:02:13Z</time>
      </trkpt>
      <trkpt lat="44.66319" lon="5.27233">
        <ele>392.8359375</ele>
        <time>2011-05-22T08:02:17Z</time>
      </trkpt>
      <trkpt lat="44.66322" lon="5.27221">
        <ele>392.3553467</ele>
        <time>2011-05-22T08:02:20Z</time>
      </trkpt>
      <trkpt lat="44.66332" lon="5.27205">
        <ele>391.3937988</ele>
        <time>2011-05-22T08:02:26Z</time>
      </trkpt>
      <trkpt lat="44.66333" lon="5.272">
        <ele>391.3937988</ele>
        <time>2011-05-22T08:02:31Z</time>
      </trkpt>
      <trkpt lat="44.66334" lon="5.272">
        <ele>391.8745117</ele>
        <time>2011-05-22T08:02:32Z</time>
      </trkpt>
      <trkpt lat="44.66344" lon="5.27192">
        <ele>392.8359375</ele>
        <time>2011-05-22T08:02:37Z</time>
      </trkpt>
      <trkpt lat="44.66345" lon="5.27183">
        <ele>392.3553467</ele>
        <time>2011-05-22T08:02:40Z</time>
      </trkpt>
      <trkpt lat="44.66341" lon="5.2718">
        <ele>392.8359375</ele>
        <time>2011-05-22T08:02:42Z</time>
      </trkpt>
      <trkpt lat="44.66322" lon="5.27174">
        <ele>392.8359375</ele>
        <time>2011-05-22T08:02:49Z</time>
      </trkpt>
      <trkpt lat="44.66302" lon="5.27169">
        <ele>391.8745117</ele>
        <time>2011-05-22T08:02:56Z</time>
      </trkpt>
      <trkpt lat="44.66288" lon="5.27167">
        <ele>391.8745117</ele>
        <time>2011-05-22T08:03:01Z</time>
      </trkpt>
      <trkpt lat="44.66276" lon="5.27164">
        <ele>392.3553467</ele>
        <time>2011-05-22T08:03:05Z</time>
      </trkpt>
      <trkpt lat="44.66265" lon="5.27161">
        <ele>393.3165283</ele>
        <time>2011-05-22T08:03:09Z</time>
      </trkpt>
      <trkpt lat="44.66252" lon="5.27158">
        <ele>390.4326172</ele>
        <time>2011-05-22T08:03:14Z</time>
      </trkpt>
      <trkpt lat="44.66238" lon="5.27158">
        <ele>389.4711914</ele>
        <time>2011-05-22T08:03:19Z</time>
      </trkpt>
      <trkpt lat="44.66229" lon="5.27148">
        <ele>388.9906006</ele>
        <time>2011-05-22T08:03:23Z</time>
      </trkpt>
      <trkpt lat="44.66232" lon="5.27136">
        <ele>389.9519043</ele>
        <time>2011-05-22T08:03:26Z</time>
      </trkpt>
      <trkpt lat="44.66237" lon="5.27115">
        <ele>393.3165283</ele>
        <time>2011-05-22T08:03:32Z</time>
      </trkpt>
      <trkpt lat="44.66236" lon="5.271">
        <ele>394.2779541</ele>
        <time>2011-05-22T08:03:36Z</time>
      </trkpt>
      <trkpt lat="44.66233" lon="5.27088">
        <ele>397.1617432</ele>
        <time>2011-05-22T08:03:40Z</time>
      </trkpt>
      <trkpt lat="44.66227" lon="5.27078">
        <ele>399.0843506</ele>
        <time>2011-05-22T08:03:44Z</time>
      </trkpt>
      <trkpt lat="44.66219" lon="5.27065">
        <ele>402.9296875</ele>
        <time>2011-05-22T08:03:49Z</time>
      </trkpt>
      <trkpt lat="44.66211" lon="5.27052">
        <ele>405.8137207</ele>
        <time>2011-05-22T08:03:55Z</time>
      </trkpt>
      <trkpt lat="44.66206" lon="5.27042">
        <ele>407.2556152</ele>
        <time>2011-05-22T08:03:59Z</time>
      </trkpt>
      <trkpt lat="44.66201" lon="5.27034">
        <ele>409.1783447</ele>
        <time>2011-05-22T08:04:03Z</time>
      </trkpt>
      <trkpt lat="44.66193" lon="5.27019">
        <ele>410.6202393</ele>
        <time>2011-05-22T08:04:10Z</time>
      </trkpt>
      <trkpt lat="44.66185" lon="5.27">
        <ele>411.1009521</ele>
        <time>2011-05-22T08:04:17Z</time>
      </trkpt>
      <trkpt lat="44.6618" lon="5.26986">
        <ele>411.581665</ele>
        <time>2011-05-22T08:04:22Z</time>
      </trkpt>
      <trkpt lat="44.66178" lon="5.26984">
        <ele>411.581665</ele>
        <time>2011-05-22T08:04:23Z</time>
      </trkpt>
      <trkpt lat="44.6617" lon="5.2697">
        <ele>412.5428467</ele>
        <time>2011-05-22T08:04:29Z</time>
      </trkpt>
      <trkpt lat="44.66167" lon="5.26966">
        <ele>413.0235596</ele>
        <time>2011-05-22T08:04:31Z</time>
      </trkpt>
      <trkpt lat="44.66157" lon="5.26957">
        <ele>415.4268799</ele>
        <time>2011-05-22T08:04:37Z</time>
      </trkpt>
      <trkpt lat="44.66148" lon="5.26953">
        <ele>417.8302002</ele>
        <time>2011-05-22T08:04:42Z</time>
      </trkpt>
      <trkpt lat="44.66141" lon="5.26948">
        <ele>419.2722168</ele>
        <time>2011-05-22T08:04:47Z</time>
      </trkpt>
      <trkpt lat="44.6613" lon="5.2694">
        <ele>419.2722168</ele>
        <time>2011-05-22T08:04:53Z</time>
      </trkpt>
      <trkpt lat="44.66125" lon="5.26933">
        <ele>421.1948242</ele>
        <time>2011-05-22T08:04:57Z</time>
      </trkpt>
      <trkpt lat="44.66119" lon="5.26928">
        <ele>422.6367188</ele>
        <time>2011-05-22T08:05:02Z</time>
      </trkpt>
      <trkpt lat="44.66126" lon="5.26938">
        <ele>425.520752</ele>
        <time>2011-05-22T08:05:07Z</time>
      </trkpt>
      <trkpt lat="44.66133" lon="5.26946">
        <ele>426.9627686</ele>
        <time>2011-05-22T08:05:11Z</time>
      </trkpt>
      <trkpt lat="44.66142" lon="5.26962">
        <ele>428.4046631</ele>
        <time>2011-05-22T08:05:18Z</time>
      </trkpt>
      <trkpt lat="44.66143" lon="5.26965">
        <ele>428.4046631</ele>
        <time>2011-05-22T08:05:19Z</time>
      </trkpt>
      <trkpt lat="44.66137" lon="5.26974">
        <ele>426.9627686</ele>
        <time>2011-05-22T08:05:24Z</time>
      </trkpt>
      <trkpt lat="44.66128" lon="5.26967">
        <ele>426.9627686</ele>
        <time>2011-05-22T08:05:28Z</time>
      </trkpt>
      <trkpt lat="44.66117" lon="5.26953">
        <ele>428.4046631</ele>
        <time>2011-05-22T08:05:35Z</time>
      </trkpt>
      <trkpt lat="44.6611" lon="5.26946">
        <ele>427.9239502</ele>
        <time>2011-05-22T08:05:40Z</time>
      </trkpt>
      <trkpt lat="44.66102" lon="5.26934">
        <ele>428.885376</ele>
        <time>2011-05-22T08:05:46Z</time>
      </trkpt>
      <trkpt lat="44.66096" lon="5.2692">
        <ele>432.25</ele>
        <time>2011-05-22T08:05:52Z</time>
      </trkpt>
      <trkpt lat="44.6609" lon="5.2691">
        <ele>435.614502</ele>
        <time>2011-05-22T08:05:57Z</time>
      </trkpt>
      <trkpt lat="44.66082" lon="5.26902">
        <ele>438.0178223</ele>
        <time>2011-05-22T08:06:02Z</time>
      </trkpt>
      <trkpt lat="44.66076" lon="5.26899">
        <ele>438.0178223</ele>
        <time>2011-05-22T08:06:06Z</time>
      </trkpt>
      <trkpt lat="44.66069" lon="5.26895">
        <ele>439.4597168</ele>
        <time>2011-05-22T08:06:10Z</time>
      </trkpt>
      <trkpt lat="44.66059" lon="5.26888">
        <ele>440.4212646</ele>
        <time>2011-05-22T08:06:16Z</time>
      </trkpt>
      <trkpt lat="44.66047" lon="5.2688">
        <ele>445.708374</ele>
        <time>2011-05-22T08:06:23Z</time>
      </trkpt>
      <trkpt lat="44.6604" lon="5.26876">
        <ele>443.7857666</ele>
        <time>2011-05-22T08:06:27Z</time>
      </trkpt>
      <trkpt lat="44.66034" lon="5.26871">
        <ele>444.2664795</ele>
        <time>2011-05-22T08:06:31Z</time>
      </trkpt>
      <trkpt lat="44.66021" lon="5.26871">
        <ele>445.2276611</ele>
        <time>2011-05-22T08:06:37Z</time>
      </trkpt>
      <trkpt lat="44.66009" lon="5.26866">
        <ele>443.3050537</ele>
        <time>2011-05-22T08:06:43Z</time>
      </trkpt>
      <trkpt lat="44.65999" lon="5.26859">
        <ele>441.3824463</ele>
        <time>2011-05-22T08:06:48Z</time>
      </trkpt>
      <trkpt lat="44.65988" lon="5.26854">
        <ele>441.3824463</ele>
        <time>2011-05-22T08:06:53Z</time>
      </trkpt>
      <trkpt lat="44.65977" lon="5.26852">
        <ele>442.8244629</ele>
        <time>2011-05-22T08:06:58Z</time>
      </trkpt>
      <trkpt lat="44.65973" lon="5.26851">
        <ele>443.7857666</ele>
        <time>2011-05-22T08:07:00Z</time>
      </trkpt>
      <trkpt lat="44.6596" lon="5.26852">
        <ele>446.1890869</ele>
        <time>2011-05-22T08:07:06Z</time>
      </trkpt>
      <trkpt lat="44.65946" lon="5.26859">
        <ele>448.5924072</ele>
        <time>2011-05-22T08:07:13Z</time>
      </trkpt>
      <trkpt lat="44.65932" lon="5.26864">
        <ele>449.072998</ele>
        <time>2011-05-22T08:07:19Z</time>
      </trkpt>
      <trkpt lat="44.65921" lon="5.26867">
        <ele>449.072998</ele>
        <time>2011-05-22T08:07:24Z</time>
      </trkpt>
      <trkpt lat="44.65906" lon="5.26872">
        <ele>449.5537109</ele>
        <time>2011-05-22T08:07:31Z</time>
      </trkpt>
      <trkpt lat="44.659" lon="5.26876">
        <ele>450.0344238</ele>
        <time>2011-05-22T08:07:34Z</time>
      </trkpt>
      <trkpt lat="44.65898" lon="5.26885">
        <ele>450.0344238</ele>
        <time>2011-05-22T08:07:38Z</time>
      </trkpt>
      <trkpt lat="44.65905" lon="5.26894">
        <ele>451.4763184</ele>
        <time>2011-05-22T08:07:43Z</time>
      </trkpt>
      <trkpt lat="44.65912" lon="5.26897">
        <ele>451.9570313</ele>
        <time>2011-05-22T08:07:46Z</time>
      </trkpt>
      <trkpt lat="44.65926" lon="5.26902">
        <ele>452.9182129</ele>
        <time>2011-05-22T08:07:52Z</time>
      </trkpt>
      <trkpt lat="44.65934" lon="5.26905">
        <ele>453.8796387</ele>
        <time>2011-05-22T08:07:56Z</time>
      </trkpt>
      <trkpt lat="44.65947" lon="5.26911">
        <ele>455.3215332</ele>
        <time>2011-05-22T08:08:02Z</time>
      </trkpt>
      <trkpt lat="44.65957" lon="5.26914">
        <ele>456.7635498</ele>
        <time>2011-05-22T08:08:07Z</time>
      </trkpt>
      <trkpt lat="44.6597" lon="5.26914">
        <ele>460.1281738</ele>
        <time>2011-05-22T08:08:13Z</time>
      </trkpt>
      <trkpt lat="44.65987" lon="5.26912">
        <ele>462.5313721</ele>
        <time>2011-05-22T08:08:21Z</time>
      </trkpt>
      <trkpt lat="44.65996" lon="5.26913">
        <ele>463.4927979</ele>
        <time>2011-05-22T08:08:26Z</time>
      </trkpt>
      <trkpt lat="44.66007" lon="5.26919">
        <ele>464.9348145</ele>
        <time>2011-05-22T08:08:32Z</time>
      </trkpt>
      <trkpt lat="44.66012" lon="5.26933">
        <ele>465.8961182</ele>
        <time>2011-05-22T08:08:38Z</time>
      </trkpt>
      <trkpt lat="44.66013" lon="5.26942">
        <ele>466.376709</ele>
        <time>2011-05-22T08:08:41Z</time>
      </trkpt>
      <trkpt lat="44.66024" lon="5.26957">
        <ele>468.7800293</ele>
        <time>2011-05-22T08:08:48Z</time>
      </trkpt>
      <trkpt lat="44.66029" lon="5.26965">
        <ele>470.7026367</ele>
        <time>2011-05-22T08:08:51Z</time>
      </trkpt>
      <trkpt lat="44.66035" lon="5.26975">
        <ele>471.1833496</ele>
        <time>2011-05-22T08:08:55Z</time>
      </trkpt>
      <trkpt lat="44.66036" lon="5.26977">
        <ele>471.1833496</ele>
        <time>2011-05-22T08:08:56Z</time>
      </trkpt>
      <trkpt lat="44.66042" lon="5.26994">
        <ele>471.6639404</ele>
        <time>2011-05-22T08:09:02Z</time>
      </trkpt>
      <trkpt lat="44.66049" lon="5.27007">
        <ele>471.1833496</ele>
        <time>2011-05-22T08:09:07Z</time>
      </trkpt>
      <trkpt lat="44.66052" lon="5.27014">
        <ele>470.7026367</ele>
        <time>2011-05-22T08:09:10Z</time>
      </trkpt>
      <trkpt lat="44.66054" lon="5.27019">
        <ele>470.7026367</ele>
        <time>2011-05-22T08:09:12Z</time>
      </trkpt>
      <trkpt lat="44.66058" lon="5.27034">
        <ele>473.1060791</ele>
        <time>2011-05-22T08:09:17Z</time>
      </trkpt>
      <trkpt lat="44.6606" lon="5.27046">
        <ele>473.1060791</ele>
        <time>2011-05-22T08:09:21Z</time>
      </trkpt>
      <trkpt lat="44.66063" lon="5.27057">
        <ele>473.1060791</ele>
        <time>2011-05-22T08:09:25Z</time>
      </trkpt>
      <trkpt lat="44.66064" lon="5.27063">
        <ele>473.1060791</ele>
        <time>2011-05-22T08:09:27Z</time>
      </trkpt>
      <trkpt lat="44.66066" lon="5.27079">
        <ele>473.1060791</ele>
        <time>2011-05-22T08:09:32Z</time>
      </trkpt>
      <trkpt lat="44.66061" lon="5.27094">
        <ele>474.5479736</ele>
        <time>2011-05-22T08:09:37Z</time>
      </trkpt>
      <trkpt lat="44.66051" lon="5.27106">
        <ele>475.9898682</ele>
        <time>2011-05-22T08:09:43Z</time>
      </trkpt>
      <trkpt lat="44.66043" lon="5.27116">
        <ele>475.9898682</ele>
        <time>2011-05-22T08:09:48Z</time>
      </trkpt>
      <trkpt lat="44.6603" lon="5.27131">
        <ele>478.3931885</ele>
        <time>2011-05-22T08:09:55Z</time>
      </trkpt>
      <trkpt lat="44.66021" lon="5.27145">
        <ele>476.4705811</ele>
        <time>2011-05-22T08:10:00Z</time>
      </trkpt>
      <trkpt lat="44.66019" lon="5.27152">
        <ele>475.9898682</ele>
        <time>2011-05-22T08:10:03Z</time>
      </trkpt>
      <trkpt lat="44.66015" lon="5.27168">
        <ele>476.9512939</ele>
        <time>2011-05-22T08:10:09Z</time>
      </trkpt>
      <trkpt lat="44.66008" lon="5.27181">
        <ele>478.3931885</ele>
        <time>2011-05-22T08:10:14Z</time>
      </trkpt>
      <trkpt lat="44.65997" lon="5.27195">
        <ele>479.835083</ele>
        <time>2011-05-22T08:10:20Z</time>
      </trkpt>
      <trkpt lat="44.65987" lon="5.27204">
        <ele>480.315918</ele>
        <time>2011-05-22T08:10:25Z</time>
      </trkpt>
      <trkpt lat="44.65976" lon="5.27213">
        <ele>481.2772217</ele>
        <time>2011-05-22T08:10:30Z</time>
      </trkpt>
      <trkpt lat="44.65963" lon="5.27229">
        <ele>480.7966309</ele>
        <time>2011-05-22T08:10:37Z</time>
      </trkpt>
      <trkpt lat="44.65948" lon="5.27247">
        <ele>479.3544922</ele>
        <time>2011-05-22T08:10:45Z</time>
      </trkpt>
      <trkpt lat="44.65939" lon="5.27255">
        <ele>478.8739014</ele>
        <time>2011-05-22T08:10:49Z</time>
      </trkpt>
      <trkpt lat="44.65929" lon="5.27269">
        <ele>479.835083</ele>
        <time>2011-05-22T08:10:54Z</time>
      </trkpt>
      <trkpt lat="44.65919" lon="5.27286">
        <ele>483.1998291</ele>
        <time>2011-05-22T08:11:01Z</time>
      </trkpt>
      <trkpt lat="44.65911" lon="5.27294">
        <ele>485.1224365</ele>
        <time>2011-05-22T08:11:06Z</time>
      </trkpt>
      <trkpt lat="44.65908" lon="5.27283">
        <ele>485.1224365</ele>
        <time>2011-05-22T08:11:11Z</time>
      </trkpt>
      <trkpt lat="44.65908" lon="5.27276">
        <ele>486.0837402</ele>
        <time>2011-05-22T08:11:13Z</time>
      </trkpt>
      <trkpt lat="44.6591" lon="5.27255">
        <ele>482.2385254</ele>
        <time>2011-05-22T08:11:19Z</time>
      </trkpt>
      <trkpt lat="44.65914" lon="5.27238">
        <ele>480.315918</ele>
        <time>2011-05-22T08:11:25Z</time>
      </trkpt>
      <trkpt lat="44.65921" lon="5.27225">
        <ele>481.7578125</ele>
        <time>2011-05-22T08:11:31Z</time>
      </trkpt>
      <trkpt lat="44.65928" lon="5.27213">
        <ele>484.1611328</ele>
        <time>2011-05-22T08:11:37Z</time>
      </trkpt>
      <trkpt lat="44.65929" lon="5.27211">
        <ele>485.1224365</ele>
        <time>2011-05-22T08:11:38Z</time>
      </trkpt>
      <trkpt lat="44.65934" lon="5.27204">
        <ele>486.5644531</ele>
        <time>2011-05-22T08:11:42Z</time>
      </trkpt>
      <trkpt lat="44.65941" lon="5.27194">
        <ele>488.0064697</ele>
        <time>2011-05-22T08:11:47Z</time>
      </trkpt>
      <trkpt lat="44.65944" lon="5.27188">
        <ele>488.9677734</ele>
        <time>2011-05-22T08:11:50Z</time>
      </trkpt>
      <trkpt lat="44.65949" lon="5.27177">
        <ele>488.4871826</ele>
        <time>2011-05-22T08:11:54Z</time>
      </trkpt>
      <trkpt lat="44.65951" lon="5.27173">
        <ele>488.9677734</ele>
        <time>2011-05-22T08:11:56Z</time>
      </trkpt>
      <trkpt lat="44.65958" lon="5.27165">
        <ele>489.4483643</ele>
        <time>2011-05-22T08:12:01Z</time>
      </trkpt>
      <trkpt lat="44.65962" lon="5.27156">
        <ele>490.40979</ele>
        <time>2011-05-22T08:12:06Z</time>
      </trkpt>
      <trkpt lat="44.65965" lon="5.27142">
        <ele>491.3709717</ele>
        <time>2011-05-22T08:12:12Z</time>
      </trkpt>
      <trkpt lat="44.65967" lon="5.27133">
        <ele>492.8129883</ele>
        <time>2011-05-22T08:12:17Z</time>
      </trkpt>
      <trkpt lat="44.65968" lon="5.2713">
        <ele>492.8129883</ele>
        <time>2011-05-22T08:12:19Z</time>
      </trkpt>
      <trkpt lat="44.65968" lon="5.27119">
        <ele>493.774292</ele>
        <time>2011-05-22T08:12:24Z</time>
      </trkpt>
      <trkpt lat="44.65965" lon="5.27106">
        <ele>495.6968994</ele>
        <time>2011-05-22T08:12:30Z</time>
      </trkpt>
      <trkpt lat="44.65958" lon="5.27104">
        <ele>498.1003418</ele>
        <time>2011-05-22T08:12:36Z</time>
      </trkpt>
      <trkpt lat="44.65955" lon="5.27113">
        <ele>502.4261475</ele>
        <time>2011-05-22T08:12:40Z</time>
      </trkpt>
      <trkpt lat="44.6595" lon="5.27129">
        <ele>506.7520752</ele>
        <time>2011-05-22T08:12:46Z</time>
      </trkpt>
      <trkpt lat="44.65942" lon="5.2714">
        <ele>509.1553955</ele>
        <time>2011-05-22T08:12:51Z</time>
      </trkpt>
      <trkpt lat="44.65935" lon="5.27147">
        <ele>511.5587158</ele>
        <time>2011-05-22T08:12:56Z</time>
      </trkpt>
      <trkpt lat="44.65924" lon="5.27151">
        <ele>513.4814453</ele>
        <time>2011-05-22T08:13:02Z</time>
      </trkpt>
      <trkpt lat="44.65914" lon="5.27156">
        <ele>514.442627</ele>
        <time>2011-05-22T08:13:07Z</time>
      </trkpt>
      <trkpt lat="44.65904" lon="5.27161">
        <ele>515.8846436</ele>
        <time>2011-05-22T08:13:14Z</time>
      </trkpt>
      <trkpt lat="44.65893" lon="5.27165">
        <ele>515.8846436</ele>
        <time>2011-05-22T08:13:20Z</time>
      </trkpt>
      <trkpt lat="44.65883" lon="5.2717">
        <ele>516.3652344</ele>
        <time>2011-05-22T08:13:25Z</time>
      </trkpt>
      <trkpt lat="44.65873" lon="5.27174">
        <ele>517.3266602</ele>
        <time>2011-05-22T08:13:30Z</time>
      </trkpt>
      <trkpt lat="44.65862" lon="5.27182">
        <ele>518.2878418</ele>
        <time>2011-05-22T08:13:36Z</time>
      </trkpt>
      <trkpt lat="44.65853" lon="5.27194">
        <ele>519.2492676</ele>
        <time>2011-05-22T08:13:42Z</time>
      </trkpt>
      <trkpt lat="44.65844" lon="5.27206">
        <ele>520.6912842</ele>
        <time>2011-05-22T08:13:48Z</time>
      </trkpt>
      <trkpt lat="44.65836" lon="5.27214">
        <ele>522.6138916</ele>
        <time>2011-05-22T08:13:53Z</time>
      </trkpt>
      <trkpt lat="44.65823" lon="5.27215">
        <ele>524.0557861</ele>
        <time>2011-05-22T08:14:01Z</time>
      </trkpt>
      <trkpt lat="44.65812" lon="5.27217">
        <ele>524.0557861</ele>
        <time>2011-05-22T08:14:07Z</time>
      </trkpt>
      <trkpt lat="44.65804" lon="5.27227">
        <ele>525.9783936</ele>
        <time>2011-05-22T08:14:12Z</time>
      </trkpt>
      <trkpt lat="44.65795" lon="5.27237">
        <ele>527.4204102</ele>
        <time>2011-05-22T08:14:19Z</time>
      </trkpt>
      <trkpt lat="44.65788" lon="5.27243">
        <ele>528.3818359</ele>
        <time>2011-05-22T08:14:24Z</time>
      </trkpt>
      <trkpt lat="44.65783" lon="5.27248">
        <ele>527.901001</ele>
        <time>2011-05-22T08:14:28Z</time>
      </trkpt>
      <trkpt lat="44.6578" lon="5.27249">
        <ele>528.8625488</ele>
        <time>2011-05-22T08:14:30Z</time>
      </trkpt>
      <trkpt lat="44.65777" lon="5.27254">
        <ele>529.8237305</ele>
        <time>2011-05-22T08:14:33Z</time>
      </trkpt>
      <trkpt lat="44.65781" lon="5.27263">
        <ele>533.6689453</ele>
        <time>2011-05-22T08:14:39Z</time>
      </trkpt>
      <trkpt lat="44.65784" lon="5.27264">
        <ele>533.6689453</ele>
        <time>2011-05-22T08:14:41Z</time>
      </trkpt>
      <trkpt lat="44.65794" lon="5.27264">
        <ele>533.1883545</ele>
        <time>2011-05-22T08:14:47Z</time>
      </trkpt>
      <trkpt lat="44.65801" lon="5.27271">
        <ele>533.1883545</ele>
        <time>2011-05-22T08:14:52Z</time>
      </trkpt>
      <trkpt lat="44.65803" lon="5.27283">
        <ele>534.1496582</ele>
        <time>2011-05-22T08:14:56Z</time>
      </trkpt>
      <trkpt lat="44.65799" lon="5.27294">
        <ele>535.1109619</ele>
        <time>2011-05-22T08:15:01Z</time>
      </trkpt>
      <trkpt lat="44.65791" lon="5.27303">
        <ele>537.0336914</ele>
        <time>2011-05-22T08:15:07Z</time>
      </trkpt>
      <trkpt lat="44.65785" lon="5.27314">
        <ele>538.9562988</ele>
        <time>2011-05-22T08:15:13Z</time>
      </trkpt>
      <trkpt lat="44.65779" lon="5.27322">
        <ele>540.8789063</ele>
        <time>2011-05-22T08:15:18Z</time>
      </trkpt>
      <trkpt lat="44.65773" lon="5.2733">
        <ele>541.84021</ele>
        <time>2011-05-22T08:15:23Z</time>
      </trkpt>
      <trkpt lat="44.65765" lon="5.27337">
        <ele>542.3209229</ele>
        <time>2011-05-22T08:15:28Z</time>
      </trkpt>
      <trkpt lat="44.65755" lon="5.27344">
        <ele>543.7628174</ele>
        <time>2011-05-22T08:15:34Z</time>
      </trkpt>
      <trkpt lat="44.65746" lon="5.27349">
        <ele>544.2436523</ele>
        <time>2011-05-22T08:15:40Z</time>
      </trkpt>
      <trkpt lat="44.65737" lon="5.27354">
        <ele>544.7242432</ele>
        <time>2011-05-22T08:15:45Z</time>
      </trkpt>
      <trkpt lat="44.65727" lon="5.27357">
        <ele>545.204834</ele>
        <time>2011-05-22T08:15:52Z</time>
      </trkpt>
      <trkpt lat="44.6572" lon="5.27361">
        <ele>547.1274414</ele>
        <time>2011-05-22T08:15:58Z</time>
      </trkpt>
      <trkpt lat="44.65711" lon="5.27367">
        <ele>550.9726563</ele>
        <time>2011-05-22T08:16:06Z</time>
      </trkpt>
      <trkpt lat="44.65702" lon="5.27369">
        <ele>553.3759766</ele>
        <time>2011-05-22T08:16:13Z</time>
      </trkpt>
      <trkpt lat="44.65694" lon="5.27372">
        <ele>555.298584</ele>
        <time>2011-05-22T08:16:18Z</time>
      </trkpt>
      <trkpt lat="44.65686" lon="5.27372">
        <ele>557.2214355</ele>
        <time>2011-05-22T08:16:23Z</time>
      </trkpt>
      <trkpt lat="44.65673" lon="5.27377">
        <ele>560.1052246</ele>
        <time>2011-05-22T08:16:30Z</time>
      </trkpt>
      <trkpt lat="44.65664" lon="5.27379">
        <ele>561.5473633</ele>
        <time>2011-05-22T08:16:35Z</time>
      </trkpt>
      <trkpt lat="44.65653" lon="5.27386">
        <ele>562.9892578</ele>
        <time>2011-05-22T08:16:41Z</time>
      </trkpt>
      <trkpt lat="44.6565" lon="5.27389">
        <ele>563.9504395</ele>
        <time>2011-05-22T08:16:43Z</time>
      </trkpt>
      <trkpt lat="44.65645" lon="5.27401">
        <ele>564.4311523</ele>
        <time>2011-05-22T08:16:50Z</time>
      </trkpt>
      <trkpt lat="44.6564" lon="5.2741">
        <ele>565.873291</ele>
        <time>2011-05-22T08:16:56Z</time>
      </trkpt>
      <trkpt lat="44.65633" lon="5.27419">
        <ele>567.3151855</ele>
        <time>2011-05-22T08:17:03Z</time>
      </trkpt>
      <trkpt lat="44.65626" lon="5.27427">
        <ele>568.7570801</ele>
        <time>2011-05-22T08:17:10Z</time>
      </trkpt>
      <trkpt lat="44.6562" lon="5.27435">
        <ele>568.7570801</ele>
        <time>2011-05-22T08:17:16Z</time>
      </trkpt>
      <trkpt lat="44.65612" lon="5.27443">
        <ele>571.6408691</ele>
        <time>2011-05-22T08:17:23Z</time>
      </trkpt>
      <trkpt lat="44.65602" lon="5.27451">
        <ele>575.0058594</ele>
        <time>2011-05-22T08:17:30Z</time>
      </trkpt>
      <trkpt lat="44.65594" lon="5.27461">
        <ele>578.8510742</ele>
        <time>2011-05-22T08:17:38Z</time>
      </trkpt>
      <trkpt lat="44.65587" lon="5.27471">
        <ele>580.7736816</ele>
        <time>2011-05-22T08:17:44Z</time>
      </trkpt>
      <trkpt lat="44.65582" lon="5.27479">
        <ele>582.2155762</ele>
        <time>2011-05-22T08:17:49Z</time>
      </trkpt>
      <trkpt lat="44.65576" lon="5.27488">
        <ele>584.1381836</ele>
        <time>2011-05-22T08:17:55Z</time>
      </trkpt>
      <trkpt lat="44.6557" lon="5.27498">
        <ele>585.5800781</ele>
        <time>2011-05-22T08:18:01Z</time>
      </trkpt>
      <trkpt lat="44.65561" lon="5.27506">
        <ele>585.5800781</ele>
        <time>2011-05-22T08:18:08Z</time>
      </trkpt>
      <trkpt lat="44.65557" lon="5.27509">
        <ele>585.0996094</ele>
        <time>2011-05-22T08:18:11Z</time>
      </trkpt>
      <trkpt lat="44.65549" lon="5.27518">
        <ele>585.0996094</ele>
        <time>2011-05-22T08:18:17Z</time>
      </trkpt>
      <trkpt lat="44.6554" lon="5.27525">
        <ele>585.5800781</ele>
        <time>2011-05-22T08:18:23Z</time>
      </trkpt>
      <trkpt lat="44.65537" lon="5.27528">
        <ele>586.060791</ele>
        <time>2011-05-22T08:18:26Z</time>
      </trkpt>
      <trkpt lat="44.65531" lon="5.27537">
        <ele>586.5415039</ele>
        <time>2011-05-22T08:18:31Z</time>
      </trkpt>
      <trkpt lat="44.65525" lon="5.27546">
        <ele>587.5026855</ele>
        <time>2011-05-22T08:18:36Z</time>
      </trkpt>
      <trkpt lat="44.65519" lon="5.27556">
        <ele>587.9833984</ele>
        <time>2011-05-22T08:18:41Z</time>
      </trkpt>
      <trkpt lat="44.65513" lon="5.27564">
        <ele>588.9450684</ele>
        <time>2011-05-22T08:18:45Z</time>
      </trkpt>
      <trkpt lat="44.65504" lon="5.27575">
        <ele>591.3481445</ele>
        <time>2011-05-22T08:18:51Z</time>
      </trkpt>
      <trkpt lat="44.65496" lon="5.27586">
        <ele>592.7902832</ele>
        <time>2011-05-22T08:18:56Z</time>
      </trkpt>
      <trkpt lat="44.65488" lon="5.27599">
        <ele>595.1933594</ele>
        <time>2011-05-22T08:19:01Z</time>
      </trkpt>
      <trkpt lat="44.65483" lon="5.27609">
        <ele>595.6740723</ele>
        <time>2011-05-22T08:19:06Z</time>
      </trkpt>
      <trkpt lat="44.65472" lon="5.27621">
        <ele>598.5578613</ele>
        <time>2011-05-22T08:19:13Z</time>
      </trkpt>
      <trkpt lat="44.65464" lon="5.27628">
        <ele>598.5578613</ele>
        <time>2011-05-22T08:19:18Z</time>
      </trkpt>
      <trkpt lat="44.65456" lon="5.27635">
        <ele>599.5192871</ele>
        <time>2011-05-22T08:19:24Z</time>
      </trkpt>
      <trkpt lat="44.65448" lon="5.27642">
        <ele>600.4807129</ele>
        <time>2011-05-22T08:19:30Z</time>
      </trkpt>
      <trkpt lat="44.6544" lon="5.27647">
        <ele>599.5192871</ele>
        <time>2011-05-22T08:19:36Z</time>
      </trkpt>
      <trkpt lat="44.65436" lon="5.2765">
        <ele>599.5192871</ele>
        <time>2011-05-22T08:19:39Z</time>
      </trkpt>
      <trkpt lat="44.65427" lon="5.27657">
        <ele>600</ele>
        <time>2011-05-22T08:19:46Z</time>
      </trkpt>
      <trkpt lat="44.65419" lon="5.27662">
        <ele>601.9226074</ele>
        <time>2011-05-22T08:19:51Z</time>
      </trkpt>
      <trkpt lat="44.65415" lon="5.27666">
        <ele>602.4030762</ele>
        <time>2011-05-22T08:19:54Z</time>
      </trkpt>
      <trkpt lat="44.65407" lon="5.27673">
        <ele>604.3261719</ele>
        <time>2011-05-22T08:19:59Z</time>
      </trkpt>
      <trkpt lat="44.65403" lon="5.27675">
        <ele>604.8066406</ele>
        <time>2011-05-22T08:20:02Z</time>
      </trkpt>
      <trkpt lat="44.65397" lon="5.27678">
        <ele>605.7680664</ele>
        <time>2011-05-22T08:20:07Z</time>
      </trkpt>
      <trkpt lat="44.65392" lon="5.2768">
        <ele>606.729248</ele>
        <time>2011-05-22T08:20:11Z</time>
      </trkpt>
      <trkpt lat="44.65384" lon="5.27685">
        <ele>609.1325684</ele>
        <time>2011-05-22T08:20:17Z</time>
      </trkpt>
      <trkpt lat="44.65377" lon="5.27689">
        <ele>615.8618164</ele>
        <time>2011-05-22T08:20:23Z</time>
      </trkpt>
      <trkpt lat="44.6537" lon="5.27693">
        <ele>618.2648926</ele>
        <time>2011-05-22T08:20:30Z</time>
      </trkpt>
      <trkpt lat="44.65362" lon="5.27698">
        <ele>621.6296387</ele>
        <time>2011-05-22T08:20:37Z</time>
      </trkpt>
      <trkpt lat="44.65355" lon="5.27702">
        <ele>624.032959</ele>
        <time>2011-05-22T08:20:43Z</time>
      </trkpt>
      <trkpt lat="44.65349" lon="5.27706">
        <ele>624.9943848</ele>
        <time>2011-05-22T08:20:49Z</time>
      </trkpt>
      <trkpt lat="44.65342" lon="5.2771">
        <ele>626.4362793</ele>
        <time>2011-05-22T08:20:55Z</time>
      </trkpt>
      <trkpt lat="44.65338" lon="5.27712">
        <ele>626.9169922</ele>
        <time>2011-05-22T08:20:59Z</time>
      </trkpt>
      <trkpt lat="44.65331" lon="5.27715">
        <ele>627.3977051</ele>
        <time>2011-05-22T08:21:07Z</time>
      </trkpt>
      <trkpt lat="44.65322" lon="5.27722">
        <ele>632.6848145</ele>
        <time>2011-05-22T08:21:14Z</time>
      </trkpt>
      <trkpt lat="44.65313" lon="5.27728">
        <ele>634.6074219</ele>
        <time>2011-05-22T08:21:22Z</time>
      </trkpt>
      <trkpt lat="44.65306" lon="5.27733">
        <ele>635.0881348</ele>
        <time>2011-05-22T08:21:29Z</time>
      </trkpt>
      <trkpt lat="44.65298" lon="5.27739">
        <ele>636.0495605</ele>
        <time>2011-05-22T08:21:36Z</time>
      </trkpt>
      <trkpt lat="44.6529" lon="5.27746">
        <ele>636.5302734</ele>
        <time>2011-05-22T08:21:41Z</time>
      </trkpt>
      <trkpt lat="44.65279" lon="5.27753">
        <ele>636.0495605</ele>
        <time>2011-05-22T08:21:48Z</time>
      </trkpt>
      <trkpt lat="44.65268" lon="5.27752">
        <ele>636.5302734</ele>
        <time>2011-05-22T08:21:53Z</time>
      </trkpt>
      <trkpt lat="44.65256" lon="5.27757">
        <ele>636.5302734</ele>
        <time>2011-05-22T08:21:58Z</time>
      </trkpt>
      <trkpt lat="44.65245" lon="5.27765">
        <ele>637.0107422</ele>
        <time>2011-05-22T08:22:03Z</time>
      </trkpt>
      <trkpt lat="44.65237" lon="5.27776">
        <ele>638.4528809</ele>
        <time>2011-05-22T08:22:08Z</time>
      </trkpt>
      <trkpt lat="44.65226" lon="5.27782">
        <ele>639.4140625</ele>
        <time>2011-05-22T08:22:13Z</time>
      </trkpt>
      <trkpt lat="44.65218" lon="5.27779">
        <ele>640.855957</ele>
        <time>2011-05-22T08:22:17Z</time>
      </trkpt>
      <trkpt lat="44.65208" lon="5.27774">
        <ele>641.3366699</ele>
        <time>2011-05-22T08:22:22Z</time>
      </trkpt>
      <trkpt lat="44.65197" lon="5.27769">
        <ele>640.3754883</ele>
        <time>2011-05-22T08:22:28Z</time>
      </trkpt>
      <trkpt lat="44.65195" lon="5.27769">
        <ele>640.3754883</ele>
        <time>2011-05-22T08:22:29Z</time>
      </trkpt>
      <trkpt lat="44.65181" lon="5.27769">
        <ele>639.8947754</ele>
        <time>2011-05-22T08:22:36Z</time>
      </trkpt>
      <trkpt lat="44.6518" lon="5.2777">
        <ele>639.8947754</ele>
        <time>2011-05-22T08:22:37Z</time>
      </trkpt>
      <trkpt lat="44.65173" lon="5.27785">
        <ele>638.4528809</ele>
        <time>2011-05-22T08:22:43Z</time>
      </trkpt>
      <trkpt lat="44.65169" lon="5.27789">
        <ele>638.4528809</ele>
        <time>2011-05-22T08:22:45Z</time>
      </trkpt>
      <trkpt lat="44.65163" lon="5.27798">
        <ele>638.9335938</ele>
        <time>2011-05-22T08:22:49Z</time>
      </trkpt>
      <trkpt lat="44.65155" lon="5.27814">
        <ele>640.855957</ele>
        <time>2011-05-22T08:22:55Z</time>
      </trkpt>
      <trkpt lat="44.65146" lon="5.27829">
        <ele>642.7788086</ele>
        <time>2011-05-22T08:23:02Z</time>
      </trkpt>
      <trkpt lat="44.65138" lon="5.27834">
        <ele>642.7788086</ele>
        <time>2011-05-22T08:23:08Z</time>
      </trkpt>
      <trkpt lat="44.65133" lon="5.27837">
        <ele>645.1818848</ele>
        <time>2011-05-22T08:23:13Z</time>
      </trkpt>
      <trkpt lat="44.65127" lon="5.27841">
        <ele>649.0270996</ele>
        <time>2011-05-22T08:23:19Z</time>
      </trkpt>
      <trkpt lat="44.65124" lon="5.27843">
        <ele>650.4692383</ele>
        <time>2011-05-22T08:23:24Z</time>
      </trkpt>
      <trkpt lat="44.6512" lon="5.27849">
        <ele>653.8339844</ele>
        <time>2011-05-22T08:23:31Z</time>
      </trkpt>
      <trkpt lat="44.65117" lon="5.27852">
        <ele>656.7177734</ele>
        <time>2011-05-22T08:23:36Z</time>
      </trkpt>
      <trkpt lat="44.65114" lon="5.27856">
        <ele>658.1599121</ele>
        <time>2011-05-22T08:23:41Z</time>
      </trkpt>
      <trkpt lat="44.6511" lon="5.2786">
        <ele>659.6018066</ele>
        <time>2011-05-22T08:23:47Z</time>
      </trkpt>
      <trkpt lat="44.65108" lon="5.27866">
        <ele>660.5629883</ele>
        <time>2011-05-22T08:23:51Z</time>
      </trkpt>
      <trkpt lat="44.65105" lon="5.27872">
        <ele>662.005127</ele>
        <time>2011-05-22T08:23:55Z</time>
      </trkpt>
      <trkpt lat="44.65102" lon="5.27879">
        <ele>662.4855957</ele>
        <time>2011-05-22T08:24:01Z</time>
      </trkpt>
      <trkpt lat="44.65101" lon="5.27881">
        <ele>662.4855957</ele>
        <time>2011-05-22T08:24:02Z</time>
      </trkpt>
      <trkpt lat="44.65098" lon="5.2789">
        <ele>664.4082031</ele>
        <time>2011-05-22T08:24:09Z</time>
      </trkpt>
      <trkpt lat="44.65098" lon="5.27894">
        <ele>665.3696289</ele>
        <time>2011-05-22T08:24:12Z</time>
      </trkpt>
      <trkpt lat="44.65096" lon="5.27899">
        <ele>666.8115234</ele>
        <time>2011-05-22T08:24:16Z</time>
      </trkpt>
      <trkpt lat="44.65091" lon="5.27906">
        <ele>670.1762695</ele>
        <time>2011-05-22T08:24:24Z</time>
      </trkpt>
      <trkpt lat="44.65088" lon="5.2791">
        <ele>670.1762695</ele>
        <time>2011-05-22T08:24:29Z</time>
      </trkpt>
      <trkpt lat="44.65084" lon="5.27913">
        <ele>671.1376953</ele>
        <time>2011-05-22T08:24:33Z</time>
      </trkpt>
      <trkpt lat="44.65082" lon="5.27917">
        <ele>673.0603027</ele>
        <time>2011-05-22T08:24:38Z</time>
      </trkpt>
      <trkpt lat="44.6508" lon="5.27926">
        <ele>676.4248047</ele>
        <time>2011-05-22T08:24:45Z</time>
      </trkpt>
      <trkpt lat="44.65078" lon="5.27933">
        <ele>678.3474121</ele>
        <time>2011-05-22T08:24:51Z</time>
      </trkpt>
      <trkpt lat="44.65076" lon="5.27938">
        <ele>680.7507324</ele>
        <time>2011-05-22T08:24:56Z</time>
      </trkpt>
      <trkpt lat="44.65074" lon="5.27947">
        <ele>681.7119141</ele>
        <time>2011-05-22T08:25:02Z</time>
      </trkpt>
      <trkpt lat="44.65072" lon="5.27954">
        <ele>684.1154785</ele>
        <time>2011-05-22T08:25:08Z</time>
      </trkpt>
      <trkpt lat="44.65068" lon="5.27961">
        <ele>685.0769043</ele>
        <time>2011-05-22T08:25:14Z</time>
      </trkpt>
      <trkpt lat="44.65065" lon="5.27966">
        <ele>684.5961914</ele>
        <time>2011-05-22T08:25:21Z</time>
      </trkpt>
      <trkpt lat="44.65062" lon="5.27975">
        <ele>687.9606934</ele>
        <time>2011-05-22T08:25:27Z</time>
      </trkpt>
      <trkpt lat="44.6506" lon="5.27981">
        <ele>689.4025879</ele>
        <time>2011-05-22T08:25:32Z</time>
      </trkpt>
      <trkpt lat="44.65057" lon="5.27986">
        <ele>690.3640137</ele>
        <time>2011-05-22T08:25:35Z</time>
      </trkpt>
      <trkpt lat="44.65054" lon="5.27991">
        <ele>691.3251953</ele>
        <time>2011-05-22T08:25:39Z</time>
      </trkpt>
      <trkpt lat="44.65052" lon="5.27997">
        <ele>690.8444824</ele>
        <time>2011-05-22T08:25:45Z</time>
      </trkpt>
      <trkpt lat="44.65049" lon="5.28002">
        <ele>692.2866211</ele>
        <time>2011-05-22T08:25:50Z</time>
      </trkpt>
      <trkpt lat="44.65045" lon="5.28007">
        <ele>691.3251953</ele>
        <time>2011-05-22T08:25:56Z</time>
      </trkpt>
      <trkpt lat="44.65044" lon="5.28009">
        <ele>691.8059082</ele>
        <time>2011-05-22T08:25:57Z</time>
      </trkpt>
      <trkpt lat="44.65041" lon="5.28012">
        <ele>692.2866211</ele>
        <time>2011-05-22T08:26:01Z</time>
      </trkpt>
      <trkpt lat="44.65038" lon="5.2801">
        <ele>694.2092285</ele>
        <time>2011-05-22T08:26:05Z</time>
      </trkpt>
      <trkpt lat="44.65037" lon="5.28006">
        <ele>695.1704102</ele>
        <time>2011-05-22T08:26:08Z</time>
      </trkpt>
      <trkpt lat="44.65034" lon="5.27997">
        <ele>696.1318359</ele>
        <time>2011-05-22T08:26:15Z</time>
      </trkpt>
      <trkpt lat="44.65033" lon="5.27994">
        <ele>697.0930176</ele>
        <time>2011-05-22T08:26:17Z</time>
      </trkpt>
      <trkpt lat="44.6503" lon="5.27985">
        <ele>699.9770508</ele>
        <time>2011-05-22T08:26:25Z</time>
      </trkpt>
      <trkpt lat="44.65028" lon="5.27977">
        <ele>699.015625</ele>
        <time>2011-05-22T08:26:32Z</time>
      </trkpt>
      <trkpt lat="44.65024" lon="5.27969">
        <ele>700.4580078</ele>
        <time>2011-05-22T08:26:39Z</time>
      </trkpt>
      <trkpt lat="44.6502" lon="5.27962">
        <ele>699.4963379</ele>
        <time>2011-05-22T08:26:46Z</time>
      </trkpt>
      <trkpt lat="44.65018" lon="5.27953">
        <ele>702.861084</ele>
        <time>2011-05-22T08:26:53Z</time>
      </trkpt>
      <trkpt lat="44.65017" lon="5.2795">
        <ele>703.3417969</ele>
        <time>2011-05-22T08:26:55Z</time>
      </trkpt>
      <trkpt lat="44.65016" lon="5.27944">
        <ele>706.7062988</ele>
        <time>2011-05-22T08:27:00Z</time>
      </trkpt>
      <trkpt lat="44.65015" lon="5.27938">
        <ele>708.6289063</ele>
        <time>2011-05-22T08:27:05Z</time>
      </trkpt>
      <trkpt lat="44.65014" lon="5.27931">
        <ele>710.0708008</ele>
        <time>2011-05-22T08:27:10Z</time>
      </trkpt>
      <trkpt lat="44.65015" lon="5.27927">
        <ele>709.590332</ele>
        <time>2011-05-22T08:27:13Z</time>
      </trkpt>
      <trkpt lat="44.65014" lon="5.2792">
        <ele>712.4741211</ele>
        <time>2011-05-22T08:27:18Z</time>
      </trkpt>
      <trkpt lat="44.65013" lon="5.27907">
        <ele>714.3967285</ele>
        <time>2011-05-22T08:27:25Z</time>
      </trkpt>
      <trkpt lat="44.65012" lon="5.27902">
        <ele>715.8388672</ele>
        <time>2011-05-22T08:27:28Z</time>
      </trkpt>
      <trkpt lat="44.65012" lon="5.27892">
        <ele>716.3195801</ele>
        <time>2011-05-22T08:27:34Z</time>
      </trkpt>
      <trkpt lat="44.65011" lon="5.27884">
        <ele>717.7614746</ele>
        <time>2011-05-22T08:27:40Z</time>
      </trkpt>
      <trkpt lat="44.65009" lon="5.2789">
        <ele>721.6066895</ele>
        <time>2011-05-22T08:27:46Z</time>
      </trkpt>
      <trkpt lat="44.65006" lon="5.27896">
        <ele>723.0488281</ele>
        <time>2011-05-22T08:27:50Z</time>
      </trkpt>
      <trkpt lat="44.65005" lon="5.27898">
        <ele>723.529541</ele>
        <time>2011-05-22T08:27:51Z</time>
      </trkpt>
      <trkpt lat="44.65001" lon="5.27906">
        <ele>724.4907227</ele>
        <time>2011-05-22T08:27:58Z</time>
      </trkpt>
      <trkpt lat="44.64999" lon="5.27912">
        <ele>724.9714355</ele>
        <time>2011-05-22T08:28:02Z</time>
      </trkpt>
      <trkpt lat="44.64996" lon="5.27919">
        <ele>726.894043</ele>
        <time>2011-05-22T08:28:07Z</time>
      </trkpt>
      <trkpt lat="44.64993" lon="5.27931">
        <ele>729.777832</ele>
        <time>2011-05-22T08:28:14Z</time>
      </trkpt>
      <trkpt lat="44.6499" lon="5.27939">
        <ele>731.7004395</ele>
        <time>2011-05-22T08:28:20Z</time>
      </trkpt>
      <trkpt lat="44.64986" lon="5.27949">
        <ele>735.5458984</ele>
        <time>2011-05-22T08:28:26Z</time>
      </trkpt>
      <trkpt lat="44.64986" lon="5.2795">
        <ele>736.0266113</ele>
        <time>2011-05-22T08:28:27Z</time>
      </trkpt>
      <trkpt lat="44.6498" lon="5.27946">
        <ele>737.4685059</ele>
        <time>2011-05-22T08:28:33Z</time>
      </trkpt>
      <trkpt lat="44.64979" lon="5.27945">
        <ele>738.4299316</ele>
        <time>2011-05-22T08:28:35Z</time>
      </trkpt>
      <trkpt lat="44.64971" lon="5.27936">
        <ele>739.8718262</ele>
        <time>2011-05-22T08:28:42Z</time>
      </trkpt>
      <trkpt lat="44.64966" lon="5.27933">
        <ele>738.9106445</ele>
        <time>2011-05-22T08:28:46Z</time>
      </trkpt>
      <trkpt lat="44.64959" lon="5.27932">
        <ele>739.8718262</ele>
        <time>2011-05-22T08:28:52Z</time>
      </trkpt>
      <trkpt lat="44.64956" lon="5.27932">
        <ele>740.8330078</ele>
        <time>2011-05-22T08:28:54Z</time>
      </trkpt>
      <trkpt lat="44.6495" lon="5.27936">
        <ele>741.3137207</ele>
        <time>2011-05-22T08:28:59Z</time>
      </trkpt>
      <trkpt lat="44.64935" lon="5.27933">
        <ele>739.8718262</ele>
        <time>2011-05-22T08:29:05Z</time>
      </trkpt>
      <trkpt lat="44.64928" lon="5.27928">
        <ele>739.3911133</ele>
        <time>2011-05-22T08:29:08Z</time>
      </trkpt>
      <trkpt lat="44.64915" lon="5.27923">
        <ele>736.0266113</ele>
        <time>2011-05-22T08:29:13Z</time>
      </trkpt>
      <trkpt lat="44.64905" lon="5.27917">
        <ele>733.1425781</ele>
        <time>2011-05-22T08:29:18Z</time>
      </trkpt>
      <trkpt lat="44.64899" lon="5.27917">
        <ele>731.7004395</ele>
        <time>2011-05-22T08:29:21Z</time>
      </trkpt>
      <trkpt lat="44.64883" lon="5.27928">
        <ele>728.8166504</ele>
        <time>2011-05-22T08:29:27Z</time>
      </trkpt>
      <trkpt lat="44.64873" lon="5.27932">
        <ele>726.4133301</ele>
        <time>2011-05-22T08:29:31Z</time>
      </trkpt>
      <trkpt lat="44.64867" lon="5.27932">
        <ele>724.9714355</ele>
        <time>2011-05-22T08:29:33Z</time>
      </trkpt>
      <trkpt lat="44.64856" lon="5.27935">
        <ele>723.529541</ele>
        <time>2011-05-22T08:29:37Z</time>
      </trkpt>
      <trkpt lat="44.6484" lon="5.2794">
        <ele>720.1647949</ele>
        <time>2011-05-22T08:29:43Z</time>
      </trkpt>
      <trkpt lat="44.64824" lon="5.27945">
        <ele>717.2810059</ele>
        <time>2011-05-22T08:29:48Z</time>
      </trkpt>
      <trkpt lat="44.64814" lon="5.27946">
        <ele>715.3581543</ele>
        <time>2011-05-22T08:29:52Z</time>
      </trkpt>
      <trkpt lat="44.64805" lon="5.27947">
        <ele>712.954834</ele>
        <time>2011-05-22T08:29:56Z</time>
      </trkpt>
      <trkpt lat="44.64795" lon="5.27951">
        <ele>711.0322266</ele>
        <time>2011-05-22T08:30:00Z</time>
      </trkpt>
      <trkpt lat="44.64783" lon="5.27959">
        <ele>708.6289063</ele>
        <time>2011-05-22T08:30:05Z</time>
      </trkpt>
      <trkpt lat="44.64772" lon="5.27963">
        <ele>706.2255859</ele>
        <time>2011-05-22T08:30:10Z</time>
      </trkpt>
      <trkpt lat="44.64763" lon="5.2797">
        <ele>704.7836914</ele>
        <time>2011-05-22T08:30:15Z</time>
      </trkpt>
      <trkpt lat="44.64754" lon="5.27975">
        <ele>702.3803711</ele>
        <time>2011-05-22T08:30:19Z</time>
      </trkpt>
      <trkpt lat="44.64742" lon="5.27974">
        <ele>701.8999023</ele>
        <time>2011-05-22T08:30:24Z</time>
      </trkpt>
      <trkpt lat="44.64729" lon="5.27977">
        <ele>702.3803711</ele>
        <time>2011-05-22T08:30:30Z</time>
      </trkpt>
      <trkpt lat="44.64719" lon="5.27982">
        <ele>702.861084</ele>
        <time>2011-05-22T08:30:34Z</time>
      </trkpt>
      <trkpt lat="44.64709" lon="5.27989">
        <ele>704.7836914</ele>
        <time>2011-05-22T08:30:39Z</time>
      </trkpt>
      <trkpt lat="44.64701" lon="5.27992">
        <ele>708.1484375</ele>
        <time>2011-05-22T08:30:44Z</time>
      </trkpt>
      <trkpt lat="44.64695" lon="5.27996">
        <ele>710.5515137</ele>
        <time>2011-05-22T08:30:48Z</time>
      </trkpt>
      <trkpt lat="44.64686" lon="5.28001">
        <ele>714.8774414</ele>
        <time>2011-05-22T08:30:54Z</time>
      </trkpt>
      <trkpt lat="44.64678" lon="5.28006">
        <ele>717.7614746</ele>
        <time>2011-05-22T08:30:58Z</time>
      </trkpt>
      <trkpt lat="44.64675" lon="5.28007">
        <ele>718.7229004</ele>
        <time>2011-05-22T08:31:00Z</time>
      </trkpt>
      <trkpt lat="44.64667" lon="5.28006">
        <ele>720.1647949</ele>
        <time>2011-05-22T08:31:04Z</time>
      </trkpt>
      <trkpt lat="44.64657" lon="5.28004">
        <ele>719.2036133</ele>
        <time>2011-05-22T08:31:09Z</time>
      </trkpt>
      <trkpt lat="44.64651" lon="5.28004">
        <ele>719.6843262</ele>
        <time>2011-05-22T08:31:13Z</time>
      </trkpt>
      <trkpt lat="44.64649" lon="5.28005">
        <ele>719.2036133</ele>
        <time>2011-05-22T08:31:14Z</time>
      </trkpt>
      <trkpt lat="44.64641" lon="5.28022">
        <ele>717.2810059</ele>
        <time>2011-05-22T08:31:20Z</time>
      </trkpt>
      <trkpt lat="44.64638" lon="5.28031">
        <ele>716.3195801</ele>
        <time>2011-05-22T08:31:23Z</time>
      </trkpt>
      <trkpt lat="44.64637" lon="5.28037">
        <ele>715.8388672</ele>
        <time>2011-05-22T08:31:25Z</time>
      </trkpt>
      <trkpt lat="44.64626" lon="5.28054">
        <ele>713.9160156</ele>
        <time>2011-05-22T08:31:32Z</time>
      </trkpt>
      <trkpt lat="44.64621" lon="5.2806">
        <ele>713.4355469</ele>
        <time>2011-05-22T08:31:35Z</time>
      </trkpt>
      <trkpt lat="44.64614" lon="5.28071">
        <ele>713.4355469</ele>
        <time>2011-05-22T08:31:40Z</time>
      </trkpt>
      <trkpt lat="44.64604" lon="5.28084">
        <ele>713.4355469</ele>
        <time>2011-05-22T08:31:46Z</time>
      </trkpt>
      <trkpt lat="44.64595" lon="5.28098">
        <ele>713.9160156</ele>
        <time>2011-05-22T08:31:52Z</time>
      </trkpt>
      <trkpt lat="44.64594" lon="5.28099">
        <ele>714.3967285</ele>
        <time>2011-05-22T08:31:53Z</time>
      </trkpt>
      <trkpt lat="44.64585" lon="5.28108">
        <ele>717.2810059</ele>
        <time>2011-05-22T08:31:59Z</time>
      </trkpt>
      <trkpt lat="44.64579" lon="5.28117">
        <ele>721.1262207</ele>
        <time>2011-05-22T08:32:04Z</time>
      </trkpt>
      <trkpt lat="44.64574" lon="5.28122">
        <ele>723.0488281</ele>
        <time>2011-05-22T08:32:09Z</time>
      </trkpt>
      <trkpt lat="44.64567" lon="5.28128">
        <ele>723.529541</ele>
        <time>2011-05-22T08:32:15Z</time>
      </trkpt>
      <trkpt lat="44.64565" lon="5.2813">
        <ele>723.529541</ele>
        <time>2011-05-22T08:32:17Z</time>
      </trkpt>
      <trkpt lat="44.64555" lon="5.28139">
        <ele>725.4519043</ele>
        <time>2011-05-22T08:32:25Z</time>
      </trkpt>
      <trkpt lat="44.64547" lon="5.28145">
        <ele>729.2971191</ele>
        <time>2011-05-22T08:32:33Z</time>
      </trkpt>
      <trkpt lat="44.64542" lon="5.2815">
        <ele>730.2585449</ele>
        <time>2011-05-22T08:32:38Z</time>
      </trkpt>
      <trkpt lat="44.64535" lon="5.28151">
        <ele>732.6621094</ele>
        <time>2011-05-22T08:32:44Z</time>
      </trkpt>
      <trkpt lat="44.64524" lon="5.28146">
        <ele>732.6621094</ele>
        <time>2011-05-22T08:32:50Z</time>
      </trkpt>
      <trkpt lat="44.64519" lon="5.28145">
        <ele>732.6621094</ele>
        <time>2011-05-22T08:32:52Z</time>
      </trkpt>
      <trkpt lat="44.64515" lon="5.28141">
        <ele>732.1813965</ele>
        <time>2011-05-22T08:32:54Z</time>
      </trkpt>
      <trkpt lat="44.64502" lon="5.28133">
        <ele>729.2971191</ele>
        <time>2011-05-22T08:33:00Z</time>
      </trkpt>
      <trkpt lat="44.64496" lon="5.28129">
        <ele>729.2971191</ele>
        <time>2011-05-22T08:33:03Z</time>
      </trkpt>
      <trkpt lat="44.6449" lon="5.28124">
        <ele>727.8552246</ele>
        <time>2011-05-22T08:33:06Z</time>
      </trkpt>
      <trkpt lat="44.6448" lon="5.28119">
        <ele>725.9326172</ele>
        <time>2011-05-22T08:33:10Z</time>
      </trkpt>
      <trkpt lat="44.64468" lon="5.28115">
        <ele>723.529541</ele>
        <time>2011-05-22T08:33:15Z</time>
      </trkpt>
      <trkpt lat="44.64456" lon="5.28115">
        <ele>722.0874023</ele>
        <time>2011-05-22T08:33:19Z</time>
      </trkpt>
      <trkpt lat="44.64444" lon="5.28114">
        <ele>719.2036133</ele>
        <time>2011-05-22T08:33:23Z</time>
      </trkpt>
      <trkpt lat="44.64433" lon="5.28111">
        <ele>715.8388672</ele>
        <time>2011-05-22T08:33:27Z</time>
      </trkpt>
      <trkpt lat="44.64416" lon="5.28113">
        <ele>712.4741211</ele>
        <time>2011-05-22T08:33:33Z</time>
      </trkpt>
      <trkpt lat="44.64406" lon="5.28115">
        <ele>709.590332</ele>
        <time>2011-05-22T08:33:37Z</time>
      </trkpt>
      <trkpt lat="44.64396" lon="5.28114">
        <ele>707.1870117</ele>
        <time>2011-05-22T08:33:41Z</time>
      </trkpt>
      <trkpt lat="44.6438" lon="5.28102">
        <ele>703.8225098</ele>
        <time>2011-05-22T08:33:48Z</time>
      </trkpt>
      <trkpt lat="44.6437" lon="5.28094">
        <ele>702.3803711</ele>
        <time>2011-05-22T08:33:53Z</time>
      </trkpt>
      <trkpt lat="44.64367" lon="5.2809">
        <ele>701.4191895</ele>
        <time>2011-05-22T08:33:55Z</time>
      </trkpt>
      <trkpt lat="44.64365" lon="5.28097">
        <ele>699.4963379</ele>
        <time>2011-05-22T08:33:59Z</time>
      </trkpt>
      <trkpt lat="44.64361" lon="5.281">
        <ele>695.651123</ele>
        <time>2011-05-22T08:34:02Z</time>
      </trkpt>
      <trkpt lat="44.64351" lon="5.28088">
        <ele>690.3640137</ele>
        <time>2011-05-22T08:34:07Z</time>
      </trkpt>
      <trkpt lat="44.64349" lon="5.28079">
        <ele>688.9221191</ele>
        <time>2011-05-22T08:34:10Z</time>
      </trkpt>
      <trkpt lat="44.64346" lon="5.28083">
        <ele>686.9992676</ele>
        <time>2011-05-22T08:34:13Z</time>
      </trkpt>
      <trkpt lat="44.64342" lon="5.28089">
        <ele>686.0380859</ele>
        <time>2011-05-22T08:34:15Z</time>
      </trkpt>
      <trkpt lat="44.64333" lon="5.2811">
        <ele>683.1538086</ele>
        <time>2011-05-22T08:34:21Z</time>
      </trkpt>
      <trkpt lat="44.64332" lon="5.28112">
        <ele>681.7119141</ele>
        <time>2011-05-22T08:34:22Z</time>
      </trkpt>
      <trkpt lat="44.64331" lon="5.2813">
        <ele>677.8666992</ele>
        <time>2011-05-22T08:34:27Z</time>
      </trkpt>
      <trkpt lat="44.64323" lon="5.2813">
        <ele>677.3862305</ele>
        <time>2011-05-22T08:34:30Z</time>
      </trkpt>
      <trkpt lat="44.64321" lon="5.2813">
        <ele>676.9055176</ele>
        <time>2011-05-22T08:34:31Z</time>
      </trkpt>
      <trkpt lat="44.64309" lon="5.28133">
        <ele>676.9055176</ele>
        <time>2011-05-22T08:34:35Z</time>
      </trkpt>
      <trkpt lat="44.64302" lon="5.28136">
        <ele>675.9440918</ele>
        <time>2011-05-22T08:34:38Z</time>
      </trkpt>
      <trkpt lat="44.64295" lon="5.28132">
        <ele>673.5410156</ele>
        <time>2011-05-22T08:34:42Z</time>
      </trkpt>
      <trkpt lat="44.64296" lon="5.28113">
        <ele>669.6958008</ele>
        <time>2011-05-22T08:34:47Z</time>
      </trkpt>
      <trkpt lat="44.64298" lon="5.28106">
        <ele>668.734375</ele>
        <time>2011-05-22T08:34:49Z</time>
      </trkpt>
      <trkpt lat="44.64299" lon="5.2809">
        <ele>665.3696289</ele>
        <time>2011-05-22T08:34:54Z</time>
      </trkpt>
      <trkpt lat="44.643" lon="5.28073">
        <ele>662.005127</ele>
        <time>2011-05-22T08:34:58Z</time>
      </trkpt>
      <trkpt lat="44.64303" lon="5.28055">
        <ele>657.1984863</ele>
        <time>2011-05-22T08:35:04Z</time>
      </trkpt>
      <trkpt lat="44.64303" lon="5.28052">
        <ele>656.2370605</ele>
        <time>2011-05-22T08:35:05Z</time>
      </trkpt>
      <trkpt lat="44.64298" lon="5.28048">
        <ele>653.3532715</ele>
        <time>2011-05-22T08:35:09Z</time>
      </trkpt>
      <trkpt lat="44.64297" lon="5.28032">
        <ele>649.0270996</ele>
        <time>2011-05-22T08:35:14Z</time>
      </trkpt>
      <trkpt lat="44.64295" lon="5.28022">
        <ele>646.6240234</ele>
        <time>2011-05-22T08:35:18Z</time>
      </trkpt>
      <trkpt lat="44.64294" lon="5.28012">
        <ele>644.2207031</ele>
        <time>2011-05-22T08:35:22Z</time>
      </trkpt>
      <trkpt lat="44.64293" lon="5.28">
        <ele>642.2980957</ele>
        <time>2011-05-22T08:35:26Z</time>
      </trkpt>
      <trkpt lat="44.64289" lon="5.28004">
        <ele>639.8947754</ele>
        <time>2011-05-22T08:35:29Z</time>
      </trkpt>
      <trkpt lat="44.64285" lon="5.28013">
        <ele>637.972168</ele>
        <time>2011-05-22T08:35:32Z</time>
      </trkpt>
      <trkpt lat="44.64281" lon="5.28016">
        <ele>636.5302734</ele>
        <time>2011-05-22T08:35:35Z</time>
      </trkpt>
      <trkpt lat="44.6428" lon="5.28014">
        <ele>636.0495605</ele>
        <time>2011-05-22T08:35:36Z</time>
      </trkpt>
      <trkpt lat="44.64278" lon="5.28002">
        <ele>634.126709</ele>
        <time>2011-05-22T08:35:40Z</time>
      </trkpt>
      <trkpt lat="44.64278" lon="5.27988">
        <ele>632.6848145</ele>
        <time>2011-05-22T08:35:44Z</time>
      </trkpt>
      <trkpt lat="44.64275" lon="5.2797">
        <ele>632.2041016</ele>
        <time>2011-05-22T08:35:49Z</time>
      </trkpt>
      <trkpt lat="44.64271" lon="5.27954">
        <ele>630.762207</ele>
        <time>2011-05-22T08:35:54Z</time>
      </trkpt>
      <trkpt lat="44.6427" lon="5.27949">
        <ele>629.8007813</ele>
        <time>2011-05-22T08:35:56Z</time>
      </trkpt>
      <trkpt lat="44.64269" lon="5.27943">
        <ele>628.8395996</ele>
        <time>2011-05-22T08:35:58Z</time>
      </trkpt>
      <trkpt lat="44.64267" lon="5.27934">
        <ele>627.3977051</ele>
        <time>2011-05-22T08:36:02Z</time>
      </trkpt>
      <trkpt lat="44.64266" lon="5.27922">
        <ele>625.4748535</ele>
        <time>2011-05-22T08:36:06Z</time>
      </trkpt>
      <trkpt lat="44.64266" lon="5.27911">
        <ele>623.5524902</ele>
        <time>2011-05-22T08:36:10Z</time>
      </trkpt>
      <trkpt lat="44.64266" lon="5.27897">
        <ele>622.5910645</ele>
        <time>2011-05-22T08:36:14Z</time>
      </trkpt>
      <trkpt lat="44.64263" lon="5.27875">
        <ele>617.7841797</ele>
        <time>2011-05-22T08:36:20Z</time>
      </trkpt>
      <trkpt lat="44.6426" lon="5.27859">
        <ele>616.3422852</ele>
        <time>2011-05-22T08:36:24Z</time>
      </trkpt>
      <trkpt lat="44.64254" lon="5.27839">
        <ele>612.9777832</ele>
        <time>2011-05-22T08:36:30Z</time>
      </trkpt>
      <trkpt lat="44.64251" lon="5.27835">
        <ele>612.4970703</ele>
        <time>2011-05-22T08:36:32Z</time>
      </trkpt>
      <trkpt lat="44.64241" lon="5.27835">
        <ele>609.6132813</ele>
        <time>2011-05-22T08:36:37Z</time>
      </trkpt>
      <trkpt lat="44.64233" lon="5.2784">
        <ele>606.2485352</ele>
        <time>2011-05-22T08:36:41Z</time>
      </trkpt>
      <trkpt lat="44.64227" lon="5.27843">
        <ele>603.8452148</ele>
        <time>2011-05-22T08:36:44Z</time>
      </trkpt>
      <trkpt lat="44.64224" lon="5.27843">
        <ele>602.4030762</ele>
        <time>2011-05-22T08:36:46Z</time>
      </trkpt>
      <trkpt lat="44.64216" lon="5.27843">
        <ele>598.5578613</ele>
        <time>2011-05-22T08:36:51Z</time>
      </trkpt>
      <trkpt lat="44.64206" lon="5.27844">
        <ele>594.7126465</ele>
        <time>2011-05-22T08:36:55Z</time>
      </trkpt>
      <trkpt lat="44.64198" lon="5.27842">
        <ele>590.8674316</ele>
        <time>2011-05-22T08:36:59Z</time>
      </trkpt>
      <trkpt lat="44.64193" lon="5.27841">
        <ele>588.9450684</ele>
        <time>2011-05-22T08:37:01Z</time>
      </trkpt>
      <trkpt lat="44.6418" lon="5.27843">
        <ele>584.1381836</ele>
        <time>2011-05-22T08:37:07Z</time>
      </trkpt>
      <trkpt lat="44.64167" lon="5.2784">
        <ele>580.7736816</ele>
        <time>2011-05-22T08:37:13Z</time>
      </trkpt>
      <trkpt lat="44.64157" lon="5.27838">
        <ele>577.8896484</ele>
        <time>2011-05-22T08:37:18Z</time>
      </trkpt>
      <trkpt lat="44.64153" lon="5.27838">
        <ele>576.9284668</ele>
        <time>2011-05-22T08:37:20Z</time>
      </trkpt>
      <trkpt lat="44.64139" lon="5.27837">
        <ele>573.083252</ele>
        <time>2011-05-22T08:37:26Z</time>
      </trkpt>
      <trkpt lat="44.64132" lon="5.27832">
        <ele>570.1989746</ele>
        <time>2011-05-22T08:37:29Z</time>
      </trkpt>
      <trkpt lat="44.6412" lon="5.27835">
        <ele>566.8344727</ele>
        <time>2011-05-22T08:37:34Z</time>
      </trkpt>
      <trkpt lat="44.64117" lon="5.27835">
        <ele>565.873291</ele>
        <time>2011-05-22T08:37:35Z</time>
      </trkpt>
      <trkpt lat="44.64105" lon="5.27827">
        <ele>560.5859375</ele>
        <time>2011-05-22T08:37:41Z</time>
      </trkpt>
      <trkpt lat="44.64098" lon="5.27821">
        <ele>557.2214355</ele>
        <time>2011-05-22T08:37:45Z</time>
      </trkpt>
      <trkpt lat="44.6409" lon="5.27821">
        <ele>554.3374023</ele>
        <time>2011-05-22T08:37:49Z</time>
      </trkpt>
      <trkpt lat="44.64081" lon="5.27824">
        <ele>550.9726563</ele>
        <time>2011-05-22T08:37:53Z</time>
      </trkpt>
      <trkpt lat="44.6407" lon="5.27824">
        <ele>548.5693359</ele>
        <time>2011-05-22T08:37:58Z</time>
      </trkpt>
      <trkpt lat="44.6406" lon="5.27822">
        <ele>545.6855469</ele>
        <time>2011-05-22T08:38:03Z</time>
      </trkpt>
      <trkpt lat="44.64046" lon="5.2781">
        <ele>541.84021</ele>
        <time>2011-05-22T08:38:10Z</time>
      </trkpt>
      <trkpt lat="44.64037" lon="5.27806">
        <ele>538.475708</ele>
        <time>2011-05-22T08:38:14Z</time>
      </trkpt>
      <trkpt lat="44.64024" lon="5.27803">
        <ele>534.1496582</ele>
        <time>2011-05-22T08:38:19Z</time>
      </trkpt>
      <trkpt lat="44.64008" lon="5.27795">
        <ele>528.3818359</ele>
        <time>2011-05-22T08:38:26Z</time>
      </trkpt>
      <trkpt lat="44.64006" lon="5.27794">
        <ele>527.901001</ele>
        <time>2011-05-22T08:38:27Z</time>
      </trkpt>
      <trkpt lat="44.64002" lon="5.27788">
        <ele>525.0172119</ele>
        <time>2011-05-22T08:38:31Z</time>
      </trkpt>
      <trkpt lat="44.63994" lon="5.27783">
        <ele>522.6138916</ele>
        <time>2011-05-22T08:38:36Z</time>
      </trkpt>
      <trkpt lat="44.63985" lon="5.27782">
        <ele>519.2492676</ele>
        <time>2011-05-22T08:38:41Z</time>
      </trkpt>
      <trkpt lat="44.63985" lon="5.27776">
        <ele>516.8459473</ele>
        <time>2011-05-22T08:38:44Z</time>
      </trkpt>
      <trkpt lat="44.63975" lon="5.27779">
        <ele>513.9620361</ele>
        <time>2011-05-22T08:38:49Z</time>
      </trkpt>
      <trkpt lat="44.63971" lon="5.27781">
        <ele>513.0007324</ele>
        <time>2011-05-22T08:38:52Z</time>
      </trkpt>
      <trkpt lat="44.63966" lon="5.27765">
        <ele>511.5587158</ele>
        <time>2011-05-22T08:38:58Z</time>
      </trkpt>
      <trkpt lat="44.63967" lon="5.2776">
        <ele>510.1166992</ele>
        <time>2011-05-22T08:39:00Z</time>
      </trkpt>
      <trkpt lat="44.63971" lon="5.27752">
        <ele>507.713501</ele>
        <time>2011-05-22T08:39:04Z</time>
      </trkpt>
      <trkpt lat="44.63967" lon="5.27748">
        <ele>502.9067383</ele>
        <time>2011-05-22T08:39:09Z</time>
      </trkpt>
      <trkpt lat="44.63966" lon="5.27747">
        <ele>501.9455566</ele>
        <time>2011-05-22T08:39:10Z</time>
      </trkpt>
      <trkpt lat="44.63958" lon="5.27746">
        <ele>497.138916</ele>
        <time>2011-05-22T08:39:16Z</time>
      </trkpt>
      <trkpt lat="44.63957" lon="5.27738">
        <ele>492.3323975</ele>
        <time>2011-05-22T08:39:20Z</time>
      </trkpt>
      <trkpt lat="44.63956" lon="5.27735">
        <ele>491.3709717</ele>
        <time>2011-05-22T08:39:22Z</time>
      </trkpt>
      <trkpt lat="44.63947" lon="5.27738">
        <ele>490.40979</ele>
        <time>2011-05-22T08:39:26Z</time>
      </trkpt>
      <trkpt lat="44.63935" lon="5.27749">
        <ele>489.4483643</ele>
        <time>2011-05-22T08:39:32Z</time>
      </trkpt>
      <trkpt lat="44.63928" lon="5.27761">
        <ele>487.0450439</ele>
        <time>2011-05-22T08:39:36Z</time>
      </trkpt>
      <trkpt lat="44.63925" lon="5.27767">
        <ele>487.0450439</ele>
        <time>2011-05-22T08:39:38Z</time>
      </trkpt>
      <trkpt lat="44.63916" lon="5.27784">
        <ele>488.4871826</ele>
        <time>2011-05-22T08:39:43Z</time>
      </trkpt>
      <trkpt lat="44.6391" lon="5.27803">
        <ele>485.6030273</ele>
        <time>2011-05-22T08:39:48Z</time>
      </trkpt>
      <trkpt lat="44.63906" lon="5.27816">
        <ele>483.1998291</ele>
        <time>2011-05-22T08:39:52Z</time>
      </trkpt>
      <trkpt lat="44.639" lon="5.27837">
        <ele>480.315918</ele>
        <time>2011-05-22T08:39:58Z</time>
      </trkpt>
      <trkpt lat="44.63898" lon="5.27846">
        <ele>478.8739014</ele>
        <time>2011-05-22T08:40:01Z</time>
      </trkpt>
      <trkpt lat="44.63888" lon="5.27861">
        <ele>476.9512939</ele>
        <time>2011-05-22T08:40:06Z</time>
      </trkpt>
      <trkpt lat="44.63875" lon="5.27871">
        <ele>474.5479736</ele>
        <time>2011-05-22T08:40:12Z</time>
      </trkpt>
      <trkpt lat="44.63863" lon="5.27869">
        <ele>471.6639404</ele>
        <time>2011-05-22T08:40:17Z</time>
      </trkpt>
      <trkpt lat="44.63857" lon="5.27864">
        <ele>469.2607422</ele>
        <time>2011-05-22T08:40:20Z</time>
      </trkpt>
      <trkpt lat="44.63847" lon="5.27868">
        <ele>464.4541016</ele>
        <time>2011-05-22T08:40:25Z</time>
      </trkpt>
      <trkpt lat="44.6384" lon="5.2788">
        <ele>462.5313721</ele>
        <time>2011-05-22T08:40:29Z</time>
      </trkpt>
      <trkpt lat="44.63838" lon="5.27883">
        <ele>462.0507813</ele>
        <time>2011-05-22T08:40:30Z</time>
      </trkpt>
      <trkpt lat="44.63828" lon="5.27904">
        <ele>458.6861572</ele>
        <time>2011-05-22T08:40:37Z</time>
      </trkpt>
      <trkpt lat="44.63819" lon="5.2792">
        <ele>456.7635498</ele>
        <time>2011-05-22T08:40:42Z</time>
      </trkpt>
      <trkpt lat="44.63815" lon="5.27927">
        <ele>454.8408203</ele>
        <time>2011-05-22T08:40:44Z</time>
      </trkpt>
      <trkpt lat="44.63803" lon="5.27949">
        <ele>453.8796387</ele>
        <time>2011-05-22T08:40:51Z</time>
      </trkpt>
      <trkpt lat="44.63802" lon="5.27953">
        <ele>454.3602295</ele>
        <time>2011-05-22T08:40:52Z</time>
      </trkpt>
      <trkpt lat="44.6379" lon="5.27962">
        <ele>453.8796387</ele>
        <time>2011-05-22T08:40:57Z</time>
      </trkpt>
      <trkpt lat="44.63788" lon="5.27963">
        <ele>453.8796387</ele>
        <time>2011-05-22T08:40:58Z</time>
      </trkpt>
      <trkpt lat="44.63773" lon="5.27969">
        <ele>454.3602295</ele>
        <time>2011-05-22T08:41:03Z</time>
      </trkpt>
      <trkpt lat="44.63759" lon="5.27977">
        <ele>453.8796387</ele>
        <time>2011-05-22T08:41:07Z</time>
      </trkpt>
      <trkpt lat="44.6374" lon="5.27981">
        <ele>454.8408203</ele>
        <time>2011-05-22T08:41:13Z</time>
      </trkpt>
      <trkpt lat="44.6373" lon="5.27985">
        <ele>454.8408203</ele>
        <time>2011-05-22T08:41:17Z</time>
      </trkpt>
      <trkpt lat="44.63727" lon="5.28001">
        <ele>453.3989258</ele>
        <time>2011-05-22T08:41:21Z</time>
      </trkpt>
      <trkpt lat="44.63725" lon="5.28028">
        <ele>454.8408203</ele>
        <time>2011-05-22T08:41:27Z</time>
      </trkpt>
      <trkpt lat="44.63726" lon="5.2805">
        <ele>453.8796387</ele>
        <time>2011-05-22T08:41:32Z</time>
      </trkpt>
      <trkpt lat="44.63726" lon="5.2807">
        <ele>452.9182129</ele>
        <time>2011-05-22T08:41:37Z</time>
      </trkpt>
      <trkpt lat="44.63725" lon="5.28091">
        <ele>452.9182129</ele>
        <time>2011-05-22T08:41:42Z</time>
      </trkpt>
      <trkpt lat="44.63726" lon="5.28116">
        <ele>450.0344238</ele>
        <time>2011-05-22T08:41:48Z</time>
      </trkpt>
      <trkpt lat="44.63725" lon="5.28134">
        <ele>449.5537109</ele>
        <time>2011-05-22T08:41:52Z</time>
      </trkpt>
      <trkpt lat="44.63722" lon="5.28151">
        <ele>448.1118164</ele>
        <time>2011-05-22T08:41:56Z</time>
      </trkpt>
      <trkpt lat="44.6372" lon="5.28173">
        <ele>446.1890869</ele>
        <time>2011-05-22T08:42:02Z</time>
      </trkpt>
      <trkpt lat="44.63727" lon="5.28197">
        <ele>447.1502686</ele>
        <time>2011-05-22T08:42:08Z</time>
      </trkpt>
      <trkpt lat="44.63736" lon="5.28218">
        <ele>448.5924072</ele>
        <time>2011-05-22T08:42:14Z</time>
      </trkpt>
      <trkpt lat="44.6374" lon="5.28238">
        <ele>447.1502686</ele>
        <time>2011-05-22T08:42:19Z</time>
      </trkpt>
      <trkpt lat="44.63743" lon="5.28259">
        <ele>447.1502686</ele>
        <time>2011-05-22T08:42:24Z</time>
      </trkpt>
      <trkpt lat="44.63744" lon="5.28279">
        <ele>447.1502686</ele>
        <time>2011-05-22T08:42:29Z</time>
      </trkpt>
      <trkpt lat="44.63744" lon="5.28299">
        <ele>447.1502686</ele>
        <time>2011-05-22T08:42:34Z</time>
      </trkpt>
      <trkpt lat="44.63746" lon="5.28318">
        <ele>447.6309814</ele>
        <time>2011-05-22T08:42:39Z</time>
      </trkpt>
      <trkpt lat="44.63749" lon="5.28332">
        <ele>448.5924072</ele>
        <time>2011-05-22T08:42:43Z</time>
      </trkpt>
      <trkpt lat="44.63754" lon="5.28348">
        <ele>450.5150146</ele>
        <time>2011-05-22T08:42:49Z</time>
      </trkpt>
      <trkpt lat="44.63758" lon="5.28362">
        <ele>451.4763184</ele>
        <time>2011-05-22T08:42:55Z</time>
      </trkpt>
      <trkpt lat="44.63759" lon="5.28376">
        <ele>453.8796387</ele>
        <time>2011-05-22T08:43:01Z</time>
      </trkpt>
      <trkpt lat="44.63761" lon="5.28395">
        <ele>457.2442627</ele>
        <time>2011-05-22T08:43:08Z</time>
      </trkpt>
      <trkpt lat="44.63762" lon="5.28411">
        <ele>458.2055664</ele>
        <time>2011-05-22T08:43:14Z</time>
      </trkpt>
      <trkpt lat="44.63764" lon="5.28425">
        <ele>459.1668701</ele>
        <time>2011-05-22T08:43:19Z</time>
      </trkpt>
      <trkpt lat="44.63766" lon="5.28441">
        <ele>456.7635498</ele>
        <time>2011-05-22T08:43:24Z</time>
      </trkpt>
      <trkpt lat="44.63766" lon="5.28461">
        <ele>456.7635498</ele>
        <time>2011-05-22T08:43:29Z</time>
      </trkpt>
      <trkpt lat="44.63768" lon="5.28485">
        <ele>456.282959</ele>
        <time>2011-05-22T08:43:35Z</time>
      </trkpt>
      <trkpt lat="44.63775" lon="5.28501">
        <ele>454.8408203</ele>
        <time>2011-05-22T08:43:40Z</time>
      </trkpt>
      <trkpt lat="44.63779" lon="5.28512">
        <ele>453.3989258</ele>
        <time>2011-05-22T08:43:43Z</time>
      </trkpt>
      <trkpt lat="44.63771" lon="5.28531">
        <ele>452.4376221</ele>
        <time>2011-05-22T08:43:49Z</time>
      </trkpt>
      <trkpt lat="44.63761" lon="5.28542">
        <ele>450.9956055</ele>
        <time>2011-05-22T08:43:55Z</time>
      </trkpt>
      <trkpt lat="44.63758" lon="5.28543">
        <ele>454.3602295</ele>
        <time>2011-05-22T08:44:13Z</time>
      </trkpt>
      <trkpt lat="44.63757" lon="5.28542">
        <ele>453.8796387</ele>
        <time>2011-05-22T08:44:24Z</time>
      </trkpt>
      <trkpt lat="44.63753" lon="5.28544">
        <ele>452.4376221</ele>
        <time>2011-05-22T08:44:28Z</time>
      </trkpt>
      <trkpt lat="44.63738" lon="5.28554">
        <ele>447.6309814</ele>
        <time>2011-05-22T08:44:35Z</time>
      </trkpt>
      <trkpt lat="44.63736" lon="5.28555">
        <ele>446.1890869</ele>
        <time>2011-05-22T08:44:36Z</time>
      </trkpt>
      <trkpt lat="44.63725" lon="5.28562">
        <ele>446.6696777</ele>
        <time>2011-05-22T08:44:40Z</time>
      </trkpt>
      <trkpt lat="44.63716" lon="5.28568">
        <ele>445.2276611</ele>
        <time>2011-05-22T08:44:44Z</time>
      </trkpt>
      <trkpt lat="44.63711" lon="5.28581">
        <ele>443.3050537</ele>
        <time>2011-05-22T08:44:49Z</time>
      </trkpt>
      <trkpt lat="44.63706" lon="5.28596">
        <ele>441.3824463</ele>
        <time>2011-05-22T08:44:53Z</time>
      </trkpt>
      <trkpt lat="44.63695" lon="5.28615">
        <ele>437.5371094</ele>
        <time>2011-05-22T08:44:59Z</time>
      </trkpt>
      <trkpt lat="44.63689" lon="5.28629">
        <ele>436.5759277</ele>
        <time>2011-05-22T08:45:03Z</time>
      </trkpt>
      <trkpt lat="44.63686" lon="5.28651">
        <ele>437.5371094</ele>
        <time>2011-05-22T08:45:08Z</time>
      </trkpt>
      <trkpt lat="44.63682" lon="5.28668">
        <ele>436.5759277</ele>
        <time>2011-05-22T08:45:12Z</time>
      </trkpt>
      <trkpt lat="44.63678" lon="5.28683">
        <ele>437.0565186</ele>
        <time>2011-05-22T08:45:16Z</time>
      </trkpt>
      <trkpt lat="44.63671" lon="5.28688">
        <ele>438.0178223</ele>
        <time>2011-05-22T08:45:20Z</time>
      </trkpt>
      <trkpt lat="44.63667" lon="5.28695">
        <ele>440.4212646</ele>
        <time>2011-05-22T08:45:24Z</time>
      </trkpt>
      <trkpt lat="44.63661" lon="5.287">
        <ele>442.3438721</ele>
        <time>2011-05-22T08:45:29Z</time>
      </trkpt>
      <trkpt lat="44.63656" lon="5.28703">
        <ele>443.7857666</ele>
        <time>2011-05-22T08:45:33Z</time>
      </trkpt>
      <trkpt lat="44.6365" lon="5.28708">
        <ele>445.708374</ele>
        <time>2011-05-22T08:45:38Z</time>
      </trkpt>
      <trkpt lat="44.63647" lon="5.2871">
        <ele>447.1502686</ele>
        <time>2011-05-22T08:45:41Z</time>
      </trkpt>
      <trkpt lat="44.63638" lon="5.28715">
        <ele>448.1118164</ele>
        <time>2011-05-22T08:45:48Z</time>
      </trkpt>
      <trkpt lat="44.63633" lon="5.28716">
        <ele>448.1118164</ele>
        <time>2011-05-22T08:45:52Z</time>
      </trkpt>
      <trkpt lat="44.63632" lon="5.28717">
        <ele>449.072998</ele>
        <time>2011-05-22T08:45:53Z</time>
      </trkpt>
      <trkpt lat="44.63624" lon="5.2872">
        <ele>449.072998</ele>
        <time>2011-05-22T08:46:00Z</time>
      </trkpt>
      <trkpt lat="44.63615" lon="5.28722">
        <ele>448.1118164</ele>
        <time>2011-05-22T08:46:07Z</time>
      </trkpt>
      <trkpt lat="44.63612" lon="5.28723">
        <ele>446.6696777</ele>
        <time>2011-05-22T08:46:10Z</time>
      </trkpt>
      <trkpt lat="44.63607" lon="5.28728">
        <ele>448.5924072</ele>
        <time>2011-05-22T08:46:14Z</time>
      </trkpt>
      <trkpt lat="44.63607" lon="5.28731">
        <ele>452.4376221</ele>
        <time>2011-05-22T08:46:18Z</time>
      </trkpt>
      <trkpt lat="44.63612" lon="5.28725">
        <ele>453.8796387</ele>
        <time>2011-05-22T08:46:23Z</time>
      </trkpt>
      <trkpt lat="44.63614" lon="5.28727">
        <ele>454.3602295</ele>
        <time>2011-05-22T08:46:25Z</time>
      </trkpt>
      <trkpt lat="44.63618" lon="5.28734">
        <ele>454.8408203</ele>
        <time>2011-05-22T08:46:33Z</time>
      </trkpt>
      <trkpt lat="44.63623" lon="5.28736">
        <ele>454.8408203</ele>
        <time>2011-05-22T08:46:37Z</time>
      </trkpt>
      <trkpt lat="44.63626" lon="5.28736">
        <ele>453.8796387</ele>
        <time>2011-05-22T08:46:40Z</time>
      </trkpt>
      <trkpt lat="44.63629" lon="5.28738">
        <ele>455.3215332</ele>
        <time>2011-05-22T08:46:43Z</time>
      </trkpt>
      <trkpt lat="44.63625" lon="5.28741">
        <ele>460.1281738</ele>
        <time>2011-05-22T08:46:49Z</time>
      </trkpt>
      <trkpt lat="44.6362" lon="5.28742">
        <ele>463.9733887</ele>
        <time>2011-05-22T08:46:53Z</time>
      </trkpt>
      <trkpt lat="44.63619" lon="5.28746">
        <ele>465.8961182</ele>
        <time>2011-05-22T08:46:57Z</time>
      </trkpt>
      <trkpt lat="44.63623" lon="5.28748">
        <ele>466.8574219</ele>
        <time>2011-05-22T08:47:01Z</time>
      </trkpt>
      <trkpt lat="44.63631" lon="5.2875">
        <ele>468.2993164</ele>
        <time>2011-05-22T08:47:08Z</time>
      </trkpt>
      <trkpt lat="44.63637" lon="5.28752">
        <ele>470.7026367</ele>
        <time>2011-05-22T08:47:14Z</time>
      </trkpt>
      <trkpt lat="44.63638" lon="5.28752">
        <ele>470.7026367</ele>
        <time>2011-05-22T08:47:15Z</time>
      </trkpt>
      <trkpt lat="44.63643" lon="5.28755">
        <ele>471.6639404</ele>
        <time>2011-05-22T08:47:19Z</time>
      </trkpt>
      <trkpt lat="44.63652" lon="5.2876">
        <ele>473.1060791</ele>
        <time>2011-05-22T08:47:28Z</time>
      </trkpt>
      <trkpt lat="44.63655" lon="5.2876">
        <ele>471.6639404</ele>
        <time>2011-05-22T08:47:30Z</time>
      </trkpt>
      <trkpt lat="44.63662" lon="5.28769">
        <ele>469.741333</ele>
        <time>2011-05-22T08:47:35Z</time>
      </trkpt>
      <trkpt lat="44.63666" lon="5.28787">
        <ele>468.2993164</ele>
        <time>2011-05-22T08:47:40Z</time>
      </trkpt>
      <trkpt lat="44.63667" lon="5.28799">
        <ele>468.7800293</ele>
        <time>2011-05-22T08:47:44Z</time>
      </trkpt>
      <trkpt lat="44.63661" lon="5.28803">
        <ele>471.1833496</ele>
        <time>2011-05-22T08:47:48Z</time>
      </trkpt>
      <trkpt lat="44.63652" lon="5.28812">
        <ele>475.9898682</ele>
        <time>2011-05-22T08:47:53Z</time>
      </trkpt>
      <trkpt lat="44.63638" lon="5.2883">
        <ele>479.835083</ele>
        <time>2011-05-22T08:48:00Z</time>
      </trkpt>
      <trkpt lat="44.63631" lon="5.28836">
        <ele>479.3544922</ele>
        <time>2011-05-22T08:48:04Z</time>
      </trkpt>
      <trkpt lat="44.63628" lon="5.2884">
        <ele>479.3544922</ele>
        <time>2011-05-22T08:48:06Z</time>
      </trkpt>
      <trkpt lat="44.63625" lon="5.28854">
        <ele>478.3931885</ele>
        <time>2011-05-22T08:48:12Z</time>
      </trkpt>
      <trkpt lat="44.63621" lon="5.28863">
        <ele>476.9512939</ele>
        <time>2011-05-22T08:48:16Z</time>
      </trkpt>
      <trkpt lat="44.63618" lon="5.28874">
        <ele>476.9512939</ele>
        <time>2011-05-22T08:48:21Z</time>
      </trkpt>
      <trkpt lat="44.63616" lon="5.28892">
        <ele>477.9124756</ele>
        <time>2011-05-22T08:48:27Z</time>
      </trkpt>
      <trkpt lat="44.63613" lon="5.28902">
        <ele>477.9124756</ele>
        <time>2011-05-22T08:48:30Z</time>
      </trkpt>
      <trkpt lat="44.63611" lon="5.28909">
        <ele>479.835083</ele>
        <time>2011-05-22T08:48:32Z</time>
      </trkpt>
      <trkpt lat="44.6361" lon="5.28923">
        <ele>481.2772217</ele>
        <time>2011-05-22T08:48:37Z</time>
      </trkpt>
      <trkpt lat="44.63612" lon="5.28928">
        <ele>480.7966309</ele>
        <time>2011-05-22T08:48:39Z</time>
      </trkpt>
      <trkpt lat="44.6362" lon="5.28944">
        <ele>478.8739014</ele>
        <time>2011-05-22T08:48:46Z</time>
      </trkpt>
      <trkpt lat="44.63624" lon="5.28956">
        <ele>479.835083</ele>
        <time>2011-05-22T08:48:50Z</time>
      </trkpt>
      <trkpt lat="44.63623" lon="5.28967">
        <ele>479.835083</ele>
        <time>2011-05-22T08:48:54Z</time>
      </trkpt>
      <trkpt lat="44.63621" lon="5.28986">
        <ele>481.7578125</ele>
        <time>2011-05-22T08:49:01Z</time>
      </trkpt>
      <trkpt lat="44.63624" lon="5.29001">
        <ele>482.7192383</ele>
        <time>2011-05-22T08:49:07Z</time>
      </trkpt>
      <trkpt lat="44.63626" lon="5.2901">
        <ele>483.1998291</ele>
        <time>2011-05-22T08:49:11Z</time>
      </trkpt>
      <trkpt lat="44.63628" lon="5.29014">
        <ele>484.6418457</ele>
        <time>2011-05-22T08:49:13Z</time>
      </trkpt>
      <trkpt lat="44.63637" lon="5.29026">
        <ele>483.6804199</ele>
        <time>2011-05-22T08:49:19Z</time>
      </trkpt>
      <trkpt lat="44.63643" lon="5.29033">
        <ele>482.7192383</ele>
        <time>2011-05-22T08:49:23Z</time>
      </trkpt>
      <trkpt lat="44.63645" lon="5.29037">
        <ele>482.7192383</ele>
        <time>2011-05-22T08:49:25Z</time>
      </trkpt>
      <trkpt lat="44.63652" lon="5.29049">
        <ele>481.7578125</ele>
        <time>2011-05-22T08:49:31Z</time>
      </trkpt>
      <trkpt lat="44.63664" lon="5.2906">
        <ele>481.2772217</ele>
        <time>2011-05-22T08:49:38Z</time>
      </trkpt>
      <trkpt lat="44.63668" lon="5.29062">
        <ele>481.2772217</ele>
        <time>2011-05-22T08:49:40Z</time>
      </trkpt>
      <trkpt lat="44.63674" lon="5.29075">
        <ele>482.2385254</ele>
        <time>2011-05-22T08:49:46Z</time>
      </trkpt>
      <trkpt lat="44.63671" lon="5.29084">
        <ele>483.1998291</ele>
        <time>2011-05-22T08:49:50Z</time>
      </trkpt>
      <trkpt lat="44.63666" lon="5.29098">
        <ele>483.1998291</ele>
        <time>2011-05-22T08:49:55Z</time>
      </trkpt>
      <trkpt lat="44.63665" lon="5.29116">
        <ele>484.6418457</ele>
        <time>2011-05-22T08:50:00Z</time>
      </trkpt>
      <trkpt lat="44.63666" lon="5.29133">
        <ele>484.6418457</ele>
        <time>2011-05-22T08:50:05Z</time>
      </trkpt>
      <trkpt lat="44.63668" lon="5.29147">
        <ele>484.1611328</ele>
        <time>2011-05-22T08:50:09Z</time>
      </trkpt>
      <trkpt lat="44.6366" lon="5.29156">
        <ele>483.6804199</ele>
        <time>2011-05-22T08:50:13Z</time>
      </trkpt>
      <trkpt lat="44.63648" lon="5.29156">
        <ele>483.1998291</ele>
        <time>2011-05-22T08:50:18Z</time>
      </trkpt>
      <trkpt lat="44.63638" lon="5.29157">
        <ele>483.1998291</ele>
        <time>2011-05-22T08:50:22Z</time>
      </trkpt>
      <trkpt lat="44.63625" lon="5.29163">
        <ele>486.0837402</ele>
        <time>2011-05-22T08:50:27Z</time>
      </trkpt>
      <trkpt lat="44.63613" lon="5.2917">
        <ele>487.5256348</ele>
        <time>2011-05-22T08:50:31Z</time>
      </trkpt>
      <trkpt lat="44.63609" lon="5.29175">
        <ele>488.0064697</ele>
        <time>2011-05-22T08:50:33Z</time>
      </trkpt>
      <trkpt lat="44.63601" lon="5.29181">
        <ele>489.9290771</ele>
        <time>2011-05-22T08:50:37Z</time>
      </trkpt>
      <trkpt lat="44.63585" lon="5.29188">
        <ele>488.9677734</ele>
        <time>2011-05-22T08:50:44Z</time>
      </trkpt>
      <trkpt lat="44.63569" lon="5.29192">
        <ele>488.0064697</ele>
        <time>2011-05-22T08:50:50Z</time>
      </trkpt>
      <trkpt lat="44.63562" lon="5.29181">
        <ele>486.5644531</ele>
        <time>2011-05-22T08:50:54Z</time>
      </trkpt>
      <trkpt lat="44.63553" lon="5.29166">
        <ele>486.5644531</ele>
        <time>2011-05-22T08:51:00Z</time>
      </trkpt>
      <trkpt lat="44.63541" lon="5.29154">
        <ele>485.6030273</ele>
        <time>2011-05-22T08:51:06Z</time>
      </trkpt>
      <trkpt lat="44.63533" lon="5.29145">
        <ele>485.6030273</ele>
        <time>2011-05-22T08:51:10Z</time>
      </trkpt>
      <trkpt lat="44.63521" lon="5.2914">
        <ele>484.6418457</ele>
        <time>2011-05-22T08:51:15Z</time>
      </trkpt>
      <trkpt lat="44.63512" lon="5.29143">
        <ele>485.1224365</ele>
        <time>2011-05-22T08:51:19Z</time>
      </trkpt>
      <trkpt lat="44.63499" lon="5.29152">
        <ele>487.0450439</ele>
        <time>2011-05-22T08:51:25Z</time>
      </trkpt>
      <trkpt lat="44.6349" lon="5.29168">
        <ele>490.40979</ele>
        <time>2011-05-22T08:51:30Z</time>
      </trkpt>
      <trkpt lat="44.63483" lon="5.29178">
        <ele>492.3323975</ele>
        <time>2011-05-22T08:51:34Z</time>
      </trkpt>
      <trkpt lat="44.63476" lon="5.29188">
        <ele>493.2935791</ele>
        <time>2011-05-22T08:51:38Z</time>
      </trkpt>
      <trkpt lat="44.63465" lon="5.29202">
        <ele>495.6968994</ele>
        <time>2011-05-22T08:51:44Z</time>
      </trkpt>
      <trkpt lat="44.63453" lon="5.29208">
        <ele>492.8129883</ele>
        <time>2011-05-22T08:51:48Z</time>
      </trkpt>
      <trkpt lat="44.63441" lon="5.29211">
        <ele>488.0064697</ele>
        <time>2011-05-22T08:51:53Z</time>
      </trkpt>
      <trkpt lat="44.63439" lon="5.29211">
        <ele>487.0450439</ele>
        <time>2011-05-22T08:51:54Z</time>
      </trkpt>
      <trkpt lat="44.63424" lon="5.29205">
        <ele>484.1611328</ele>
        <time>2011-05-22T08:52:00Z</time>
      </trkpt>
      <trkpt lat="44.63415" lon="5.29202">
        <ele>482.7192383</ele>
        <time>2011-05-22T08:52:04Z</time>
      </trkpt>
      <trkpt lat="44.63407" lon="5.29195">
        <ele>480.7966309</ele>
        <time>2011-05-22T08:52:08Z</time>
      </trkpt>
      <trkpt lat="44.63398" lon="5.29193">
        <ele>480.315918</ele>
        <time>2011-05-22T08:52:12Z</time>
      </trkpt>
      <trkpt lat="44.63393" lon="5.292">
        <ele>479.835083</ele>
        <time>2011-05-22T08:52:17Z</time>
      </trkpt>
      <trkpt lat="44.63395" lon="5.29201">
        <ele>479.3544922</ele>
        <time>2011-05-22T08:52:18Z</time>
      </trkpt>
      <trkpt lat="44.63398" lon="5.29205">
        <ele>479.3544922</ele>
        <time>2011-05-22T08:52:20Z</time>
      </trkpt>
      <trkpt lat="44.63404" lon="5.29221">
        <ele>479.3544922</ele>
        <time>2011-05-22T08:52:26Z</time>
      </trkpt>
      <trkpt lat="44.6341" lon="5.29226">
        <ele>480.315918</ele>
        <time>2011-05-22T08:52:29Z</time>
      </trkpt>
      <trkpt lat="44.63417" lon="5.29227">
        <ele>479.835083</ele>
        <time>2011-05-22T08:52:32Z</time>
      </trkpt>
      <trkpt lat="44.63426" lon="5.29236">
        <ele>479.835083</ele>
        <time>2011-05-22T08:52:37Z</time>
      </trkpt>
      <trkpt lat="44.63433" lon="5.29245">
        <ele>480.7966309</ele>
        <time>2011-05-22T08:52:41Z</time>
      </trkpt>
      <trkpt lat="44.63445" lon="5.2925">
        <ele>482.2385254</ele>
        <time>2011-05-22T08:52:47Z</time>
      </trkpt>
      <trkpt lat="44.63454" lon="5.29246">
        <ele>481.2772217</ele>
        <time>2011-05-22T08:52:51Z</time>
      </trkpt>
      <trkpt lat="44.63467" lon="5.29246">
        <ele>483.1998291</ele>
        <time>2011-05-22T08:52:55Z</time>
      </trkpt>
      <trkpt lat="44.63472" lon="5.29247">
        <ele>483.6804199</ele>
        <time>2011-05-22T08:52:57Z</time>
      </trkpt>
      <trkpt lat="44.63477" lon="5.2925">
        <ele>484.1611328</ele>
        <time>2011-05-22T08:52:59Z</time>
      </trkpt>
      <trkpt lat="44.63482" lon="5.29266">
        <ele>484.6418457</ele>
        <time>2011-05-22T08:53:04Z</time>
      </trkpt>
      <trkpt lat="44.63482" lon="5.29269">
        <ele>484.6418457</ele>
        <time>2011-05-22T08:53:05Z</time>
      </trkpt>
      <trkpt lat="44.63482" lon="5.29288">
        <ele>486.0837402</ele>
        <time>2011-05-22T08:53:11Z</time>
      </trkpt>
      <trkpt lat="44.63483" lon="5.29291">
        <ele>486.0837402</ele>
        <time>2011-05-22T08:53:12Z</time>
      </trkpt>
      <trkpt lat="44.63481" lon="5.29304">
        <ele>487.0450439</ele>
        <time>2011-05-22T08:53:16Z</time>
      </trkpt>
      <trkpt lat="44.63468" lon="5.29317">
        <ele>488.4871826</ele>
        <time>2011-05-22T08:53:22Z</time>
      </trkpt>
      <trkpt lat="44.63463" lon="5.29329">
        <ele>489.4483643</ele>
        <time>2011-05-22T08:53:26Z</time>
      </trkpt>
      <trkpt lat="44.63459" lon="5.29346">
        <ele>489.9290771</ele>
        <time>2011-05-22T08:53:31Z</time>
      </trkpt>
      <trkpt lat="44.6346" lon="5.29363">
        <ele>489.9290771</ele>
        <time>2011-05-22T08:53:36Z</time>
      </trkpt>
      <trkpt lat="44.6346" lon="5.29374">
        <ele>489.4483643</ele>
        <time>2011-05-22T08:53:39Z</time>
      </trkpt>
      <trkpt lat="44.63458" lon="5.29387">
        <ele>489.4483643</ele>
        <time>2011-05-22T08:53:43Z</time>
      </trkpt>
      <trkpt lat="44.63458" lon="5.29393">
        <ele>489.9290771</ele>
        <time>2011-05-22T08:53:45Z</time>
      </trkpt>
      <trkpt lat="44.63456" lon="5.29413">
        <ele>489.9290771</ele>
        <time>2011-05-22T08:53:51Z</time>
      </trkpt>
      <trkpt lat="44.63456" lon="5.29434">
        <ele>488.4871826</ele>
        <time>2011-05-22T08:53:57Z</time>
      </trkpt>
      <trkpt lat="44.63462" lon="5.29445">
        <ele>488.0064697</ele>
        <time>2011-05-22T08:54:01Z</time>
      </trkpt>
      <trkpt lat="44.63461" lon="5.29466">
        <ele>486.5644531</ele>
        <time>2011-05-22T08:54:07Z</time>
      </trkpt>
      <trkpt lat="44.63456" lon="5.29485">
        <ele>485.1224365</ele>
        <time>2011-05-22T08:54:13Z</time>
      </trkpt>
      <trkpt lat="44.63449" lon="5.2949">
        <ele>484.6418457</ele>
        <time>2011-05-22T08:54:16Z</time>
      </trkpt>
      <trkpt lat="44.63434" lon="5.29484">
        <ele>484.6418457</ele>
        <time>2011-05-22T08:54:22Z</time>
      </trkpt>
      <trkpt lat="44.6342" lon="5.2948">
        <ele>483.6804199</ele>
        <time>2011-05-22T08:54:27Z</time>
      </trkpt>
      <trkpt lat="44.63418" lon="5.2948">
        <ele>483.6804199</ele>
        <time>2011-05-22T08:54:28Z</time>
      </trkpt>
      <trkpt lat="44.63407" lon="5.29473">
        <ele>483.1998291</ele>
        <time>2011-05-22T08:54:33Z</time>
      </trkpt>
      <trkpt lat="44.63395" lon="5.29471">
        <ele>483.1998291</ele>
        <time>2011-05-22T08:54:38Z</time>
      </trkpt>
      <trkpt lat="44.63383" lon="5.29471">
        <ele>483.6804199</ele>
        <time>2011-05-22T08:54:43Z</time>
      </trkpt>
      <trkpt lat="44.63372" lon="5.29467">
        <ele>484.1611328</ele>
        <time>2011-05-22T08:54:48Z</time>
      </trkpt>
      <trkpt lat="44.63361" lon="5.29464">
        <ele>484.6418457</ele>
        <time>2011-05-22T08:54:53Z</time>
      </trkpt>
      <trkpt lat="44.63346" lon="5.2946">
        <ele>485.6030273</ele>
        <time>2011-05-22T08:54:59Z</time>
      </trkpt>
      <trkpt lat="44.63338" lon="5.29458">
        <ele>484.6418457</ele>
        <time>2011-05-22T08:55:02Z</time>
      </trkpt>
      <trkpt lat="44.63324" lon="5.29455">
        <ele>483.6804199</ele>
        <time>2011-05-22T08:55:08Z</time>
      </trkpt>
      <trkpt lat="44.63313" lon="5.29455">
        <ele>484.1611328</ele>
        <time>2011-05-22T08:55:12Z</time>
      </trkpt>
      <trkpt lat="44.63298" lon="5.29451">
        <ele>485.6030273</ele>
        <time>2011-05-22T08:55:18Z</time>
      </trkpt>
      <trkpt lat="44.63287" lon="5.29451">
        <ele>486.0837402</ele>
        <time>2011-05-22T08:55:23Z</time>
      </trkpt>
      <trkpt lat="44.63275" lon="5.29451">
        <ele>486.5644531</ele>
        <time>2011-05-22T08:55:27Z</time>
      </trkpt>
      <trkpt lat="44.63257" lon="5.29459">
        <ele>490.8903809</ele>
        <time>2011-05-22T08:55:33Z</time>
      </trkpt>
      <trkpt lat="44.63246" lon="5.29462">
        <ele>493.2935791</ele>
        <time>2011-05-22T08:55:37Z</time>
      </trkpt>
      <trkpt lat="44.63236" lon="5.29462">
        <ele>491.8516846</ele>
        <time>2011-05-22T08:55:42Z</time>
      </trkpt>
      <trkpt lat="44.63224" lon="5.29461">
        <ele>488.9677734</ele>
        <time>2011-05-22T08:55:47Z</time>
      </trkpt>
      <trkpt lat="44.63212" lon="5.2946">
        <ele>487.0450439</ele>
        <time>2011-05-22T08:55:52Z</time>
      </trkpt>
      <trkpt lat="44.63201" lon="5.29464">
        <ele>488.9677734</ele>
        <time>2011-05-22T08:55:57Z</time>
      </trkpt>
      <trkpt lat="44.63191" lon="5.29462">
        <ele>489.4483643</ele>
        <time>2011-05-22T08:56:01Z</time>
      </trkpt>
      <trkpt lat="44.63183" lon="5.2945">
        <ele>488.0064697</ele>
        <time>2011-05-22T08:56:06Z</time>
      </trkpt>
      <trkpt lat="44.63174" lon="5.29432">
        <ele>487.0450439</ele>
        <time>2011-05-22T08:56:12Z</time>
      </trkpt>
      <trkpt lat="44.63168" lon="5.29422">
        <ele>487.0450439</ele>
        <time>2011-05-22T08:56:16Z</time>
      </trkpt>
      <trkpt lat="44.63162" lon="5.2941">
        <ele>486.5644531</ele>
        <time>2011-05-22T08:56:20Z</time>
      </trkpt>
      <trkpt lat="44.63154" lon="5.294">
        <ele>488.0064697</ele>
        <time>2011-05-22T08:56:24Z</time>
      </trkpt>
      <trkpt lat="44.63143" lon="5.29392">
        <ele>488.4871826</ele>
        <time>2011-05-22T08:56:29Z</time>
      </trkpt>
      <trkpt lat="44.63134" lon="5.29388">
        <ele>489.4483643</ele>
        <time>2011-05-22T08:56:33Z</time>
      </trkpt>
      <trkpt lat="44.63132" lon="5.29387">
        <ele>489.4483643</ele>
        <time>2011-05-22T08:56:34Z</time>
      </trkpt>
      <trkpt lat="44.63118" lon="5.29383">
        <ele>488.4871826</ele>
        <time>2011-05-22T08:56:40Z</time>
      </trkpt>
      <trkpt lat="44.63109" lon="5.29388">
        <ele>488.0064697</ele>
        <time>2011-05-22T08:56:45Z</time>
      </trkpt>
      <trkpt lat="44.63109" lon="5.29394">
        <ele>488.9677734</ele>
        <time>2011-05-22T08:56:48Z</time>
      </trkpt>
      <trkpt lat="44.63114" lon="5.29404">
        <ele>490.40979</ele>
        <time>2011-05-22T08:56:53Z</time>
      </trkpt>
      <trkpt lat="44.63117" lon="5.29422">
        <ele>490.40979</ele>
        <time>2011-05-22T08:56:59Z</time>
      </trkpt>
      <trkpt lat="44.63116" lon="5.29428">
        <ele>490.40979</ele>
        <time>2011-05-22T08:57:01Z</time>
      </trkpt>
      <trkpt lat="44.63115" lon="5.29443">
        <ele>490.40979</ele>
        <time>2011-05-22T08:57:06Z</time>
      </trkpt>
      <trkpt lat="44.63113" lon="5.29458">
        <ele>491.8516846</ele>
        <time>2011-05-22T08:57:12Z</time>
      </trkpt>
      <trkpt lat="44.6311" lon="5.29471">
        <ele>494.2550049</ele>
        <time>2011-05-22T08:57:17Z</time>
      </trkpt>
      <trkpt lat="44.63106" lon="5.29487">
        <ele>495.2161865</ele>
        <time>2011-05-22T08:57:23Z</time>
      </trkpt>
      <trkpt lat="44.63102" lon="5.29503">
        <ele>496.1777344</ele>
        <time>2011-05-22T08:57:29Z</time>
      </trkpt>
      <trkpt lat="44.63096" lon="5.29519">
        <ele>497.6196289</ele>
        <time>2011-05-22T08:57:35Z</time>
      </trkpt>
      <trkpt lat="44.63095" lon="5.29521">
        <ele>498.1003418</ele>
        <time>2011-05-22T08:57:36Z</time>
      </trkpt>
      <trkpt lat="44.63085" lon="5.29533">
        <ele>499.0615234</ele>
        <time>2011-05-22T08:57:42Z</time>
      </trkpt>
      <trkpt lat="44.63078" lon="5.29543">
        <ele>500.50354</ele>
        <time>2011-05-22T08:57:48Z</time>
      </trkpt>
      <trkpt lat="44.63071" lon="5.29554">
        <ele>502.4261475</ele>
        <time>2011-05-22T08:57:53Z</time>
      </trkpt>
      <trkpt lat="44.63061" lon="5.29568">
        <ele>504.8294678</ele>
        <time>2011-05-22T08:57:59Z</time>
      </trkpt>
      <trkpt lat="44.63052" lon="5.29573">
        <ele>503.8681641</ele>
        <time>2011-05-22T08:58:04Z</time>
      </trkpt>
      <trkpt lat="44.63046" lon="5.29579">
        <ele>504.348877</ele>
        <time>2011-05-22T08:58:08Z</time>
      </trkpt>
      <trkpt lat="44.63043" lon="5.29583">
        <ele>504.8294678</ele>
        <time>2011-05-22T08:58:10Z</time>
      </trkpt>
      <trkpt lat="44.63039" lon="5.29594">
        <ele>505.3101807</ele>
        <time>2011-05-22T08:58:15Z</time>
      </trkpt>
      <trkpt lat="44.63037" lon="5.29602">
        <ele>504.8294678</ele>
        <time>2011-05-22T08:58:18Z</time>
      </trkpt>
      <trkpt lat="44.63034" lon="5.29618">
        <ele>505.3101807</ele>
        <time>2011-05-22T08:58:24Z</time>
      </trkpt>
      <trkpt lat="44.63032" lon="5.29632">
        <ele>505.3101807</ele>
        <time>2011-05-22T08:58:29Z</time>
      </trkpt>
      <trkpt lat="44.63032" lon="5.29635">
        <ele>504.8294678</ele>
        <time>2011-05-22T08:58:30Z</time>
      </trkpt>
      <trkpt lat="44.63032" lon="5.29654">
        <ele>504.8294678</ele>
        <time>2011-05-22T08:58:37Z</time>
      </trkpt>
      <trkpt lat="44.63029" lon="5.2967">
        <ele>506.7520752</ele>
        <time>2011-05-22T08:58:43Z</time>
      </trkpt>
      <trkpt lat="44.63024" lon="5.29686">
        <ele>507.2327881</ele>
        <time>2011-05-22T08:58:49Z</time>
      </trkpt>
      <trkpt lat="44.6302" lon="5.29698">
        <ele>508.1940918</ele>
        <time>2011-05-22T08:58:54Z</time>
      </trkpt>
      <trkpt lat="44.63019" lon="5.29708">
        <ele>508.6746826</ele>
        <time>2011-05-22T08:58:58Z</time>
      </trkpt>
      <trkpt lat="44.63015" lon="5.29726">
        <ele>508.6746826</ele>
        <time>2011-05-22T08:59:05Z</time>
      </trkpt>
      <trkpt lat="44.63012" lon="5.29738">
        <ele>508.6746826</ele>
        <time>2011-05-22T08:59:10Z</time>
      </trkpt>
      <trkpt lat="44.63008" lon="5.2975">
        <ele>509.6361084</ele>
        <time>2011-05-22T08:59:15Z</time>
      </trkpt>
      <trkpt lat="44.63005" lon="5.29762">
        <ele>510.1166992</ele>
        <time>2011-05-22T08:59:20Z</time>
      </trkpt>
      <trkpt lat="44.63004" lon="5.2977">
        <ele>511.0780029</ele>
        <time>2011-05-22T08:59:23Z</time>
      </trkpt>
      <trkpt lat="44.63007" lon="5.29785">
        <ele>511.0780029</ele>
        <time>2011-05-22T08:59:29Z</time>
      </trkpt>
      <trkpt lat="44.6301" lon="5.29801">
        <ele>513.0007324</ele>
        <time>2011-05-22T08:59:36Z</time>
      </trkpt>
      <trkpt lat="44.63011" lon="5.29814">
        <ele>512.5200195</ele>
        <time>2011-05-22T08:59:41Z</time>
      </trkpt>
      <trkpt lat="44.63013" lon="5.29825">
        <ele>513.4814453</ele>
        <time>2011-05-22T08:59:46Z</time>
      </trkpt>
      <trkpt lat="44.63017" lon="5.2984">
        <ele>513.0007324</ele>
        <time>2011-05-22T08:59:52Z</time>
      </trkpt>
      <trkpt lat="44.63018" lon="5.29854">
        <ele>512.5200195</ele>
        <time>2011-05-22T08:59:57Z</time>
      </trkpt>
      <trkpt lat="44.63018" lon="5.29871">
        <ele>512.0394287</ele>
        <time>2011-05-22T09:00:04Z</time>
      </trkpt>
      <trkpt lat="44.6302" lon="5.29887">
        <ele>511.5587158</ele>
        <time>2011-05-22T09:00:10Z</time>
      </trkpt>
      <trkpt lat="44.63023" lon="5.29896">
        <ele>512.0394287</ele>
        <time>2011-05-22T09:00:14Z</time>
      </trkpt>
      <trkpt lat="44.63027" lon="5.29917">
        <ele>515.4040527</ele>
        <time>2011-05-22T09:00:22Z</time>
      </trkpt>
      <trkpt lat="44.63027" lon="5.29929">
        <ele>516.3652344</ele>
        <time>2011-05-22T09:00:27Z</time>
      </trkpt>
      <trkpt lat="44.63024" lon="5.29951">
        <ele>518.2878418</ele>
        <time>2011-05-22T09:00:34Z</time>
      </trkpt>
      <trkpt lat="44.63023" lon="5.2997">
        <ele>520.2105713</ele>
        <time>2011-05-22T09:00:40Z</time>
      </trkpt>
      <trkpt lat="44.63021" lon="5.29983">
        <ele>521.1719971</ele>
        <time>2011-05-22T09:00:45Z</time>
      </trkpt>
      <trkpt lat="44.63019" lon="5.29992">
        <ele>521.6525879</ele>
        <time>2011-05-22T09:00:48Z</time>
      </trkpt>
      <trkpt lat="44.63012" lon="5.30003">
        <ele>521.6525879</ele>
        <time>2011-05-22T09:00:53Z</time>
      </trkpt>
      <trkpt lat="44.63011" lon="5.30005">
        <ele>522.1331787</ele>
        <time>2011-05-22T09:00:54Z</time>
      </trkpt>
      <trkpt lat="44.63003" lon="5.3002">
        <ele>523.0946045</ele>
        <time>2011-05-22T09:01:00Z</time>
      </trkpt>
      <trkpt lat="44.62996" lon="5.30033">
        <ele>524.0557861</ele>
        <time>2011-05-22T09:01:05Z</time>
      </trkpt>
      <trkpt lat="44.62991" lon="5.30045">
        <ele>524.536499</ele>
        <time>2011-05-22T09:01:09Z</time>
      </trkpt>
      <trkpt lat="44.62989" lon="5.30051">
        <ele>525.4978027</ele>
        <time>2011-05-22T09:01:11Z</time>
      </trkpt>
      <trkpt lat="44.62979" lon="5.30053">
        <ele>526.9398193</ele>
        <time>2011-05-22T09:01:16Z</time>
      </trkpt>
      <trkpt lat="44.62968" lon="5.30047">
        <ele>527.4204102</ele>
        <time>2011-05-22T09:01:21Z</time>
      </trkpt>
      <trkpt lat="44.62963" lon="5.30037">
        <ele>527.4204102</ele>
        <time>2011-05-22T09:01:25Z</time>
      </trkpt>
      <trkpt lat="44.62958" lon="5.30018">
        <ele>526.9398193</ele>
        <time>2011-05-22T09:01:30Z</time>
      </trkpt>
      <trkpt lat="44.62954" lon="5.30004">
        <ele>525.4978027</ele>
        <time>2011-05-22T09:01:34Z</time>
      </trkpt>
      <trkpt lat="44.62947" lon="5.29996">
        <ele>525.0172119</ele>
        <time>2011-05-22T09:01:38Z</time>
      </trkpt>
      <trkpt lat="44.62943" lon="5.29979">
        <ele>524.0557861</ele>
        <time>2011-05-22T09:01:42Z</time>
      </trkpt>
      <trkpt lat="44.6294" lon="5.29968">
        <ele>523.5751953</ele>
        <time>2011-05-22T09:01:45Z</time>
      </trkpt>
      <trkpt lat="44.6293" lon="5.29945">
        <ele>524.0557861</ele>
        <time>2011-05-22T09:01:52Z</time>
      </trkpt>
      <trkpt lat="44.62924" lon="5.29926">
        <ele>521.6525879</ele>
        <time>2011-05-22T09:01:57Z</time>
      </trkpt>
      <trkpt lat="44.62919" lon="5.29907">
        <ele>520.6912842</ele>
        <time>2011-05-22T09:02:02Z</time>
      </trkpt>
      <trkpt lat="44.62914" lon="5.2989">
        <ele>518.7685547</ele>
        <time>2011-05-22T09:02:07Z</time>
      </trkpt>
      <trkpt lat="44.6291" lon="5.29874">
        <ele>518.7685547</ele>
        <time>2011-05-22T09:02:12Z</time>
      </trkpt>
      <trkpt lat="44.62905" lon="5.29858">
        <ele>524.0557861</ele>
        <time>2011-05-22T09:02:16Z</time>
      </trkpt>
      <trkpt lat="44.62905" lon="5.29846">
        <ele>526.4591064</ele>
        <time>2011-05-22T09:02:20Z</time>
      </trkpt>
      <trkpt lat="44.62903" lon="5.29825">
        <ele>528.3818359</ele>
        <time>2011-05-22T09:02:26Z</time>
      </trkpt>
      <trkpt lat="44.629" lon="5.29809">
        <ele>529.8237305</ele>
        <time>2011-05-22T09:02:31Z</time>
      </trkpt>
      <trkpt lat="44.62899" lon="5.29801">
        <ele>529.3431396</ele>
        <time>2011-05-22T09:02:33Z</time>
      </trkpt>
      <trkpt lat="44.62895" lon="5.29784">
        <ele>529.3431396</ele>
        <time>2011-05-22T09:02:39Z</time>
      </trkpt>
      <trkpt lat="44.62891" lon="5.29771">
        <ele>527.901001</ele>
        <time>2011-05-22T09:02:44Z</time>
      </trkpt>
      <trkpt lat="44.62886" lon="5.29762">
        <ele>527.901001</ele>
        <time>2011-05-22T09:02:48Z</time>
      </trkpt>
      <trkpt lat="44.62886" lon="5.2976">
        <ele>527.901001</ele>
        <time>2011-05-22T09:02:49Z</time>
      </trkpt>
      <trkpt lat="44.62878" lon="5.29743">
        <ele>528.3818359</ele>
        <time>2011-05-22T09:02:56Z</time>
      </trkpt>
      <trkpt lat="44.62871" lon="5.29729">
        <ele>529.8237305</ele>
        <time>2011-05-22T09:03:02Z</time>
      </trkpt>
      <trkpt lat="44.62865" lon="5.29721">
        <ele>530.7851563</ele>
        <time>2011-05-22T09:03:07Z</time>
      </trkpt>
      <trkpt lat="44.62858" lon="5.29713">
        <ele>530.3044434</ele>
        <time>2011-05-22T09:03:12Z</time>
      </trkpt>
      <trkpt lat="44.62849" lon="5.29701">
        <ele>527.901001</ele>
        <time>2011-05-22T09:03:18Z</time>
      </trkpt>
      <trkpt lat="44.62846" lon="5.29698">
        <ele>527.901001</ele>
        <time>2011-05-22T09:03:20Z</time>
      </trkpt>
      <trkpt lat="44.62839" lon="5.29684">
        <ele>527.4204102</ele>
        <time>2011-05-22T09:03:26Z</time>
      </trkpt>
      <trkpt lat="44.62837" lon="5.29682">
        <ele>527.901001</ele>
        <time>2011-05-22T09:03:27Z</time>
      </trkpt>
      <trkpt lat="44.62833" lon="5.29671">
        <ele>529.3431396</ele>
        <time>2011-05-22T09:03:33Z</time>
      </trkpt>
      <trkpt lat="44.6283" lon="5.29663">
        <ele>530.3044434</ele>
        <time>2011-05-22T09:03:36Z</time>
      </trkpt>
      <trkpt lat="44.62822" lon="5.29647">
        <ele>533.6689453</ele>
        <time>2011-05-22T09:03:42Z</time>
      </trkpt>
      <trkpt lat="44.62817" lon="5.29632">
        <ele>536.0723877</ele>
        <time>2011-05-22T09:03:47Z</time>
      </trkpt>
      <trkpt lat="44.62813" lon="5.29619">
        <ele>538.475708</ele>
        <time>2011-05-22T09:03:51Z</time>
      </trkpt>
      <trkpt lat="44.62812" lon="5.29612">
        <ele>540.8789063</ele>
        <time>2011-05-22T09:03:53Z</time>
      </trkpt>
      <trkpt lat="44.62817" lon="5.29596">
        <ele>542.8015137</ele>
        <time>2011-05-22T09:03:59Z</time>
      </trkpt>
      <trkpt lat="44.62823" lon="5.29586">
        <ele>545.204834</ele>
        <time>2011-05-22T09:04:04Z</time>
      </trkpt>
      <trkpt lat="44.62824" lon="5.29583">
        <ele>546.6468506</ele>
        <time>2011-05-22T09:04:05Z</time>
      </trkpt>
      <trkpt lat="44.62829" lon="5.29573">
        <ele>545.6855469</ele>
        <time>2011-05-22T09:04:09Z</time>
      </trkpt>
      <trkpt lat="44.62836" lon="5.2956">
        <ele>546.1662598</ele>
        <time>2011-05-22T09:04:15Z</time>
      </trkpt>
      <trkpt lat="44.62841" lon="5.29548">
        <ele>545.6855469</ele>
        <time>2011-05-22T09:04:20Z</time>
      </trkpt>
      <trkpt lat="44.62849" lon="5.29534">
        <ele>544.2436523</ele>
        <time>2011-05-22T09:04:26Z</time>
      </trkpt>
      <trkpt lat="44.62855" lon="5.2952">
        <ele>544.7242432</ele>
        <time>2011-05-22T09:04:32Z</time>
      </trkpt>
      <trkpt lat="44.62863" lon="5.29508">
        <ele>544.2436523</ele>
        <time>2011-05-22T09:04:37Z</time>
      </trkpt>
      <trkpt lat="44.6287" lon="5.29499">
        <ele>543.7628174</ele>
        <time>2011-05-22T09:04:41Z</time>
      </trkpt>
      <trkpt lat="44.62878" lon="5.29486">
        <ele>542.3209229</ele>
        <time>2011-05-22T09:04:46Z</time>
      </trkpt>
      <trkpt lat="44.62879" lon="5.29483">
        <ele>542.3209229</ele>
        <time>2011-05-22T09:04:47Z</time>
      </trkpt>
      <trkpt lat="44.62886" lon="5.29476">
        <ele>543.2821045</ele>
        <time>2011-05-22T09:04:51Z</time>
      </trkpt>
      <trkpt lat="44.62894" lon="5.29467">
        <ele>542.3209229</ele>
        <time>2011-05-22T09:04:56Z</time>
      </trkpt>
      <trkpt lat="44.62901" lon="5.29458">
        <ele>542.3209229</ele>
        <time>2011-05-22T09:05:00Z</time>
      </trkpt>
      <trkpt lat="44.62903" lon="5.29449">
        <ele>541.84021</ele>
        <time>2011-05-22T09:05:03Z</time>
      </trkpt>
      <trkpt lat="44.62905" lon="5.29429">
        <ele>541.3594971</ele>
        <time>2011-05-22T09:05:09Z</time>
      </trkpt>
      <trkpt lat="44.62904" lon="5.29426">
        <ele>540.8789063</ele>
        <time>2011-05-22T09:05:10Z</time>
      </trkpt>
      <trkpt lat="44.62886" lon="5.29411">
        <ele>539.9176025</ele>
        <time>2011-05-22T09:05:17Z</time>
      </trkpt>
      <trkpt lat="44.62879" lon="5.29406">
        <ele>538.9562988</ele>
        <time>2011-05-22T09:05:20Z</time>
      </trkpt>
      <trkpt lat="44.62872" lon="5.294">
        <ele>537.0336914</ele>
        <time>2011-05-22T09:05:23Z</time>
      </trkpt>
      <trkpt lat="44.62861" lon="5.29388">
        <ele>533.6689453</ele>
        <time>2011-05-22T09:05:28Z</time>
      </trkpt>
      <trkpt lat="44.62853" lon="5.29383">
        <ele>533.6689453</ele>
        <time>2011-05-22T09:05:31Z</time>
      </trkpt>
      <trkpt lat="44.6284" lon="5.29374">
        <ele>532.2270508</ele>
        <time>2011-05-22T09:05:36Z</time>
      </trkpt>
      <trkpt lat="44.62828" lon="5.2937">
        <ele>530.3044434</ele>
        <time>2011-05-22T09:05:40Z</time>
      </trkpt>
      <trkpt lat="44.62816" lon="5.29362">
        <ele>527.901001</ele>
        <time>2011-05-22T09:05:45Z</time>
      </trkpt>
      <trkpt lat="44.62803" lon="5.29355">
        <ele>525.4978027</ele>
        <time>2011-05-22T09:05:50Z</time>
      </trkpt>
      <trkpt lat="44.628" lon="5.29353">
        <ele>525.0172119</ele>
        <time>2011-05-22T09:05:51Z</time>
      </trkpt>
      <trkpt lat="44.62784" lon="5.29344">
        <ele>522.6138916</ele>
        <time>2011-05-22T09:05:57Z</time>
      </trkpt>
      <trkpt lat="44.62777" lon="5.29336">
        <ele>522.1331787</ele>
        <time>2011-05-22T09:06:00Z</time>
      </trkpt>
      <trkpt lat="44.62765" lon="5.29324">
        <ele>525.9783936</ele>
        <time>2011-05-22T09:06:05Z</time>
      </trkpt>
      <trkpt lat="44.62756" lon="5.29308">
        <ele>525.4978027</ele>
        <time>2011-05-22T09:06:10Z</time>
      </trkpt>
      <trkpt lat="44.62748" lon="5.29286">
        <ele>526.9398193</ele>
        <time>2011-05-22T09:06:16Z</time>
      </trkpt>
      <trkpt lat="44.62739" lon="5.29275">
        <ele>527.4204102</ele>
        <time>2011-05-22T09:06:20Z</time>
      </trkpt>
      <trkpt lat="44.62729" lon="5.2928">
        <ele>529.8237305</ele>
        <time>2011-05-22T09:06:24Z</time>
      </trkpt>
      <trkpt lat="44.62726" lon="5.29293">
        <ele>531.2657471</ele>
        <time>2011-05-22T09:06:28Z</time>
      </trkpt>
      <trkpt lat="44.62726" lon="5.29308">
        <ele>534.1496582</ele>
        <time>2011-05-22T09:06:32Z</time>
      </trkpt>
      <trkpt lat="44.62725" lon="5.2933">
        <ele>534.6303711</ele>
        <time>2011-05-22T09:06:38Z</time>
      </trkpt>
      <trkpt lat="44.6272" lon="5.29346">
        <ele>535.5915527</ele>
        <time>2011-05-22T09:06:43Z</time>
      </trkpt>
      <trkpt lat="44.62715" lon="5.29362">
        <ele>536.5531006</ele>
        <time>2011-05-22T09:06:48Z</time>
      </trkpt>
      <trkpt lat="44.62712" lon="5.29377">
        <ele>536.0723877</ele>
        <time>2011-05-22T09:06:53Z</time>
      </trkpt>
      <trkpt lat="44.62705" lon="5.29389">
        <ele>537.0336914</ele>
        <time>2011-05-22T09:06:58Z</time>
      </trkpt>
      <trkpt lat="44.62695" lon="5.29404">
        <ele>538.475708</ele>
        <time>2011-05-22T09:07:04Z</time>
      </trkpt>
      <trkpt lat="44.62683" lon="5.29415">
        <ele>537.9949951</ele>
        <time>2011-05-22T09:07:10Z</time>
      </trkpt>
      <trkpt lat="44.62678" lon="5.29416">
        <ele>537.9949951</ele>
        <time>2011-05-22T09:07:12Z</time>
      </trkpt>
      <trkpt lat="44.62668" lon="5.29415">
        <ele>537.9949951</ele>
        <time>2011-05-22T09:07:17Z</time>
      </trkpt>
      <trkpt lat="44.62661" lon="5.29413">
        <ele>537.9949951</ele>
        <time>2011-05-22T09:07:20Z</time>
      </trkpt>
      <trkpt lat="44.62652" lon="5.29412">
        <ele>537.5142822</ele>
        <time>2011-05-22T09:07:24Z</time>
      </trkpt>
      <trkpt lat="44.62641" lon="5.29414">
        <ele>537.5142822</ele>
        <time>2011-05-22T09:07:29Z</time>
      </trkpt>
      <trkpt lat="44.62632" lon="5.29414">
        <ele>537.5142822</ele>
        <time>2011-05-22T09:07:33Z</time>
      </trkpt>
      <trkpt lat="44.62627" lon="5.29416">
        <ele>537.9949951</ele>
        <time>2011-05-22T09:07:35Z</time>
      </trkpt>
      <trkpt lat="44.62619" lon="5.29412">
        <ele>537.5142822</ele>
        <time>2011-05-22T09:07:39Z</time>
      </trkpt>
      <trkpt lat="44.62609" lon="5.29415">
        <ele>537.0336914</ele>
        <time>2011-05-22T09:07:43Z</time>
      </trkpt>
      <trkpt lat="44.62601" lon="5.29419">
        <ele>539.4368896</ele>
        <time>2011-05-22T09:07:47Z</time>
      </trkpt>
      <trkpt lat="44.62599" lon="5.2942">
        <ele>539.9176025</ele>
        <time>2011-05-22T09:07:48Z</time>
      </trkpt>
      <trkpt lat="44.62588" lon="5.2943">
        <ele>542.3209229</ele>
        <time>2011-05-22T09:07:53Z</time>
      </trkpt>
      <trkpt lat="44.62575" lon="5.29443">
        <ele>546.6468506</ele>
        <time>2011-05-22T09:07:59Z</time>
      </trkpt>
      <trkpt lat="44.62571" lon="5.29455">
        <ele>548.5693359</ele>
        <time>2011-05-22T09:08:03Z</time>
      </trkpt>
      <trkpt lat="44.62575" lon="5.29469">
        <ele>549.0500488</ele>
        <time>2011-05-22T09:08:08Z</time>
      </trkpt>
      <trkpt lat="44.62584" lon="5.29479">
        <ele>549.5307617</ele>
        <time>2011-05-22T09:08:13Z</time>
      </trkpt>
      <trkpt lat="44.62586" lon="5.29481">
        <ele>549.5307617</ele>
        <time>2011-05-22T09:08:14Z</time>
      </trkpt>
      <trkpt lat="44.62595" lon="5.29493">
        <ele>548.5693359</ele>
        <time>2011-05-22T09:08:20Z</time>
      </trkpt>
      <trkpt lat="44.62595" lon="5.29505">
        <ele>548.0888672</ele>
        <time>2011-05-22T09:08:24Z</time>
      </trkpt>
      <trkpt lat="44.62584" lon="5.29515">
        <ele>549.0500488</ele>
        <time>2011-05-22T09:08:30Z</time>
      </trkpt>
      <trkpt lat="44.6258" lon="5.29517">
        <ele>549.5307617</ele>
        <time>2011-05-22T09:08:32Z</time>
      </trkpt>
      <trkpt lat="44.62567" lon="5.29531">
        <ele>551.934082</ele>
        <time>2011-05-22T09:08:39Z</time>
      </trkpt>
      <trkpt lat="44.62557" lon="5.29541">
        <ele>552.8952637</ele>
        <time>2011-05-22T09:08:45Z</time>
      </trkpt>
      <trkpt lat="44.62555" lon="5.29542">
        <ele>552.8952637</ele>
        <time>2011-05-22T09:08:46Z</time>
      </trkpt>
      <trkpt lat="44.62548" lon="5.29548">
        <ele>553.8566895</ele>
        <time>2011-05-22T09:08:50Z</time>
      </trkpt>
      <trkpt lat="44.62536" lon="5.29559">
        <ele>553.8566895</ele>
        <time>2011-05-22T09:08:57Z</time>
      </trkpt>
      <trkpt lat="44.62528" lon="5.29569">
        <ele>555.7792969</ele>
        <time>2011-05-22T09:09:01Z</time>
      </trkpt>
      <trkpt lat="44.62519" lon="5.29581">
        <ele>557.7021484</ele>
        <time>2011-05-22T09:09:06Z</time>
      </trkpt>
      <trkpt lat="44.62512" lon="5.29594">
        <ele>558.1828613</ele>
        <time>2011-05-22T09:09:11Z</time>
      </trkpt>
      <trkpt lat="44.62505" lon="5.29609">
        <ele>558.1828613</ele>
        <time>2011-05-22T09:09:17Z</time>
      </trkpt>
      <trkpt lat="44.62498" lon="5.29626">
        <ele>559.144043</ele>
        <time>2011-05-22T09:09:23Z</time>
      </trkpt>
      <trkpt lat="44.62494" lon="5.29642">
        <ele>558.6633301</ele>
        <time>2011-05-22T09:09:28Z</time>
      </trkpt>
      <trkpt lat="44.62494" lon="5.29654">
        <ele>558.1828613</ele>
        <time>2011-05-22T09:09:32Z</time>
      </trkpt>
      <trkpt lat="44.62501" lon="5.29664">
        <ele>557.7021484</ele>
        <time>2011-05-22T09:09:37Z</time>
      </trkpt>
      <trkpt lat="44.62509" lon="5.29672">
        <ele>559.6247559</ele>
        <time>2011-05-22T09:09:42Z</time>
      </trkpt>
      <trkpt lat="44.62516" lon="5.29686">
        <ele>559.6247559</ele>
        <time>2011-05-22T09:09:48Z</time>
      </trkpt>
      <trkpt lat="44.62521" lon="5.29696">
        <ele>559.6247559</ele>
        <time>2011-05-22T09:09:52Z</time>
      </trkpt>
      <trkpt lat="44.62523" lon="5.29702">
        <ele>559.6247559</ele>
        <time>2011-05-22T09:09:54Z</time>
      </trkpt>
      <trkpt lat="44.62527" lon="5.29719">
        <ele>560.5859375</ele>
        <time>2011-05-22T09:10:00Z</time>
      </trkpt>
      <trkpt lat="44.62529" lon="5.29738">
        <ele>562.9892578</ele>
        <time>2011-05-22T09:10:06Z</time>
      </trkpt>
      <trkpt lat="44.62529" lon="5.29755">
        <ele>564.4311523</ele>
        <time>2011-05-22T09:10:11Z</time>
      </trkpt>
      <trkpt lat="44.62525" lon="5.29767">
        <ele>564.4311523</ele>
        <time>2011-05-22T09:10:15Z</time>
      </trkpt>
      <trkpt lat="44.62522" lon="5.29786">
        <ele>564.9118652</ele>
        <time>2011-05-22T09:10:21Z</time>
      </trkpt>
      <trkpt lat="44.62523" lon="5.29795">
        <ele>563.9504395</ele>
        <time>2011-05-22T09:10:24Z</time>
      </trkpt>
      <trkpt lat="44.62528" lon="5.29806">
        <ele>563.9504395</ele>
        <time>2011-05-22T09:10:28Z</time>
      </trkpt>
      <trkpt lat="44.62532" lon="5.29819">
        <ele>566.3537598</ele>
        <time>2011-05-22T09:10:34Z</time>
      </trkpt>
      <trkpt lat="44.62532" lon="5.29823">
        <ele>565.873291</ele>
        <time>2011-05-22T09:10:41Z</time>
      </trkpt>
      <trkpt lat="44.62532" lon="5.29823">
        <ele>565.3925781</ele>
        <time>2011-05-22T09:10:54Z</time>
      </trkpt>
      <trkpt lat="44.62531" lon="5.29822">
        <ele>566.3537598</ele>
        <time>2011-05-22T09:10:59Z</time>
      </trkpt>
      <trkpt lat="44.62522" lon="5.29812">
        <ele>566.8344727</ele>
        <time>2011-05-22T09:11:05Z</time>
      </trkpt>
      <trkpt lat="44.62507" lon="5.29799">
        <ele>567.3151855</ele>
        <time>2011-05-22T09:11:13Z</time>
      </trkpt>
      <trkpt lat="44.62496" lon="5.29796">
        <ele>567.3151855</ele>
        <time>2011-05-22T09:11:18Z</time>
      </trkpt>
      <trkpt lat="44.62484" lon="5.29794">
        <ele>567.7956543</ele>
        <time>2011-05-22T09:11:23Z</time>
      </trkpt>
      <trkpt lat="44.62477" lon="5.29792">
        <ele>568.2763672</ele>
        <time>2011-05-22T09:11:27Z</time>
      </trkpt>
      <trkpt lat="44.62472" lon="5.29792">
        <ele>569.237793</ele>
        <time>2011-05-22T09:11:29Z</time>
      </trkpt>
      <trkpt lat="44.62457" lon="5.29791">
        <ele>571.6408691</ele>
        <time>2011-05-22T09:11:36Z</time>
      </trkpt>
      <trkpt lat="44.62442" lon="5.29794">
        <ele>573.083252</ele>
        <time>2011-05-22T09:11:42Z</time>
      </trkpt>
      <trkpt lat="44.62433" lon="5.29793">
        <ele>574.0444336</ele>
        <time>2011-05-22T09:11:47Z</time>
      </trkpt>
      <trkpt lat="44.62427" lon="5.29793">
        <ele>574.5251465</ele>
        <time>2011-05-22T09:11:50Z</time>
      </trkpt>
      <trkpt lat="44.62418" lon="5.29795">
        <ele>575.0058594</ele>
        <time>2011-05-22T09:11:54Z</time>
      </trkpt>
      <trkpt lat="44.6241" lon="5.29797">
        <ele>574.0444336</ele>
        <time>2011-05-22T09:11:57Z</time>
      </trkpt>
      <trkpt lat="44.62408" lon="5.29797">
        <ele>574.5251465</ele>
        <time>2011-05-22T09:11:58Z</time>
      </trkpt>
      <trkpt lat="44.62395" lon="5.29794">
        <ele>575.4863281</ele>
        <time>2011-05-22T09:12:04Z</time>
      </trkpt>
      <trkpt lat="44.62386" lon="5.2979">
        <ele>575.967041</ele>
        <time>2011-05-22T09:12:08Z</time>
      </trkpt>
      <trkpt lat="44.62377" lon="5.29782">
        <ele>575.0058594</ele>
        <time>2011-05-22T09:12:13Z</time>
      </trkpt>
      <trkpt lat="44.62367" lon="5.29778">
        <ele>575.4863281</ele>
        <time>2011-05-22T09:12:17Z</time>
      </trkpt>
      <trkpt lat="44.62356" lon="5.29772">
        <ele>575.4863281</ele>
        <time>2011-05-22T09:12:22Z</time>
      </trkpt>
      <trkpt lat="44.62349" lon="5.2977">
        <ele>575.967041</ele>
        <time>2011-05-22T09:12:25Z</time>
      </trkpt>
      <trkpt lat="44.62337" lon="5.29768">
        <ele>576.4477539</ele>
        <time>2011-05-22T09:12:30Z</time>
      </trkpt>
      <trkpt lat="44.62326" lon="5.29766">
        <ele>576.9284668</ele>
        <time>2011-05-22T09:12:35Z</time>
      </trkpt>
      <trkpt lat="44.62321" lon="5.29764">
        <ele>576.9284668</ele>
        <time>2011-05-22T09:12:38Z</time>
      </trkpt>
      <trkpt lat="44.6231" lon="5.29762">
        <ele>576.9284668</ele>
        <time>2011-05-22T09:12:43Z</time>
      </trkpt>
      <trkpt lat="44.62298" lon="5.2975">
        <ele>575.4863281</ele>
        <time>2011-05-22T09:12:50Z</time>
      </trkpt>
      <trkpt lat="44.62297" lon="5.29749">
        <ele>575.0058594</ele>
        <time>2011-05-22T09:12:51Z</time>
      </trkpt>
      <trkpt lat="44.62293" lon="5.29738">
        <ele>572.1218262</ele>
        <time>2011-05-22T09:12:55Z</time>
      </trkpt>
      <trkpt lat="44.62288" lon="5.29727">
        <ele>569.237793</ele>
        <time>2011-05-22T09:12:59Z</time>
      </trkpt>
      <trkpt lat="44.62287" lon="5.29716">
        <ele>566.8344727</ele>
        <time>2011-05-22T09:13:02Z</time>
      </trkpt>
      <trkpt lat="44.62287" lon="5.29705">
        <ele>565.3925781</ele>
        <time>2011-05-22T09:13:05Z</time>
      </trkpt>
      <trkpt lat="44.62284" lon="5.29693">
        <ele>562.0280762</ele>
        <time>2011-05-22T09:13:10Z</time>
      </trkpt>
      <trkpt lat="44.62276" lon="5.29689">
        <ele>560.1052246</ele>
        <time>2011-05-22T09:13:14Z</time>
      </trkpt>
      <trkpt lat="44.62268" lon="5.29679">
        <ele>560.5859375</ele>
        <time>2011-05-22T09:13:18Z</time>
      </trkpt>
      <trkpt lat="44.62263" lon="5.29671">
        <ele>561.0666504</ele>
        <time>2011-05-22T09:13:21Z</time>
      </trkpt>
      <trkpt lat="44.62259" lon="5.29667">
        <ele>561.5473633</ele>
        <time>2011-05-22T09:13:23Z</time>
      </trkpt>
      <trkpt lat="44.62248" lon="5.29662">
        <ele>561.0666504</ele>
        <time>2011-05-22T09:13:28Z</time>
      </trkpt>
      <trkpt lat="44.62238" lon="5.29656">
        <ele>561.0666504</ele>
        <time>2011-05-22T09:13:32Z</time>
      </trkpt>
      <trkpt lat="44.62229" lon="5.29651">
        <ele>562.0280762</ele>
        <time>2011-05-22T09:13:36Z</time>
      </trkpt>
      <trkpt lat="44.62218" lon="5.29639">
        <ele>561.0666504</ele>
        <time>2011-05-22T09:13:41Z</time>
      </trkpt>
      <trkpt lat="44.62208" lon="5.29625">
        <ele>560.5859375</ele>
        <time>2011-05-22T09:13:46Z</time>
      </trkpt>
      <trkpt lat="44.62201" lon="5.29613">
        <ele>559.144043</ele>
        <time>2011-05-22T09:13:50Z</time>
      </trkpt>
      <trkpt lat="44.62192" lon="5.29598">
        <ele>555.298584</ele>
        <time>2011-05-22T09:13:55Z</time>
      </trkpt>
      <trkpt lat="44.62186" lon="5.29585">
        <ele>553.3759766</ele>
        <time>2011-05-22T09:13:59Z</time>
      </trkpt>
      <trkpt lat="44.62183" lon="5.29573">
        <ele>552.4145508</ele>
        <time>2011-05-22T09:14:02Z</time>
      </trkpt>
      <trkpt lat="44.62172" lon="5.29559">
        <ele>549.0500488</ele>
        <time>2011-05-22T09:14:08Z</time>
      </trkpt>
      <trkpt lat="44.62169" lon="5.29554">
        <ele>548.5693359</ele>
        <time>2011-05-22T09:14:10Z</time>
      </trkpt>
      <trkpt lat="44.62163" lon="5.29555">
        <ele>547.1274414</ele>
        <time>2011-05-22T09:14:15Z</time>
      </trkpt>
      <trkpt lat="44.62158" lon="5.29562">
        <ele>546.6468506</ele>
        <time>2011-05-22T09:14:19Z</time>
      </trkpt>
      <trkpt lat="44.62148" lon="5.29559">
        <ele>546.1662598</ele>
        <time>2011-05-22T09:14:23Z</time>
      </trkpt>
      <trkpt lat="44.62142" lon="5.29558">
        <ele>545.6855469</ele>
        <time>2011-05-22T09:14:27Z</time>
      </trkpt>
      <trkpt lat="44.62133" lon="5.29565">
        <ele>547.1274414</ele>
        <time>2011-05-22T09:14:32Z</time>
      </trkpt>
      <trkpt lat="44.62126" lon="5.29565">
        <ele>548.0888672</ele>
        <time>2011-05-22T09:14:36Z</time>
      </trkpt>
      <trkpt lat="44.62121" lon="5.29567">
        <ele>549.0500488</ele>
        <time>2011-05-22T09:14:39Z</time>
      </trkpt>
      <trkpt lat="44.62115" lon="5.29569">
        <ele>550.4921875</ele>
        <time>2011-05-22T09:14:42Z</time>
      </trkpt>
      <trkpt lat="44.62103" lon="5.29572">
        <ele>551.934082</ele>
        <time>2011-05-22T09:14:48Z</time>
      </trkpt>
      <trkpt lat="44.62092" lon="5.29576">
        <ele>554.3374023</ele>
        <time>2011-05-22T09:14:53Z</time>
      </trkpt>
      <trkpt lat="44.6209" lon="5.29577">
        <ele>554.8178711</ele>
        <time>2011-05-22T09:14:54Z</time>
      </trkpt>
      <trkpt lat="44.62078" lon="5.29578">
        <ele>557.2214355</ele>
        <time>2011-05-22T09:15:00Z</time>
      </trkpt>
      <trkpt lat="44.62068" lon="5.29576">
        <ele>558.1828613</ele>
        <time>2011-05-22T09:15:05Z</time>
      </trkpt>
      <trkpt lat="44.62056" lon="5.29571">
        <ele>558.6633301</ele>
        <time>2011-05-22T09:15:11Z</time>
      </trkpt>
      <trkpt lat="44.62049" lon="5.29569">
        <ele>559.144043</ele>
        <time>2011-05-22T09:15:14Z</time>
      </trkpt>
      <trkpt lat="44.62034" lon="5.29562">
        <ele>557.7021484</ele>
        <time>2011-05-22T09:15:21Z</time>
      </trkpt>
      <trkpt lat="44.62027" lon="5.2956">
        <ele>558.1828613</ele>
        <time>2011-05-22T09:15:24Z</time>
      </trkpt>
      <trkpt lat="44.6201" lon="5.29566">
        <ele>558.1828613</ele>
        <time>2011-05-22T09:15:31Z</time>
      </trkpt>
      <trkpt lat="44.62003" lon="5.29565">
        <ele>559.144043</ele>
        <time>2011-05-22T09:15:34Z</time>
      </trkpt>
      <trkpt lat="44.61989" lon="5.29571">
        <ele>559.144043</ele>
        <time>2011-05-22T09:15:40Z</time>
      </trkpt>
      <trkpt lat="44.61977" lon="5.29572">
        <ele>559.6247559</ele>
        <time>2011-05-22T09:15:45Z</time>
      </trkpt>
      <trkpt lat="44.61968" lon="5.29572">
        <ele>559.6247559</ele>
        <time>2011-05-22T09:15:49Z</time>
      </trkpt>
      <trkpt lat="44.61958" lon="5.29576">
        <ele>559.6247559</ele>
        <time>2011-05-22T09:15:53Z</time>
      </trkpt>
      <trkpt lat="44.61947" lon="5.29581">
        <ele>561.0666504</ele>
        <time>2011-05-22T09:15:58Z</time>
      </trkpt>
      <trkpt lat="44.61935" lon="5.29591">
        <ele>563.4699707</ele>
        <time>2011-05-22T09:16:03Z</time>
      </trkpt>
      <trkpt lat="44.61926" lon="5.29603">
        <ele>563.4699707</ele>
        <time>2011-05-22T09:16:08Z</time>
      </trkpt>
      <trkpt lat="44.61915" lon="5.29615">
        <ele>563.9504395</ele>
        <time>2011-05-22T09:16:13Z</time>
      </trkpt>
      <trkpt lat="44.61905" lon="5.29626">
        <ele>563.4699707</ele>
        <time>2011-05-22T09:16:18Z</time>
      </trkpt>
      <trkpt lat="44.61898" lon="5.29637">
        <ele>562.5085449</ele>
        <time>2011-05-22T09:16:22Z</time>
      </trkpt>
      <trkpt lat="44.61889" lon="5.29639">
        <ele>561.5473633</ele>
        <time>2011-05-22T09:16:25Z</time>
      </trkpt>
      <trkpt lat="44.61881" lon="5.29634">
        <ele>560.1052246</ele>
        <time>2011-05-22T09:16:28Z</time>
      </trkpt>
      <trkpt lat="44.61874" lon="5.29612">
        <ele>558.6633301</ele>
        <time>2011-05-22T09:16:34Z</time>
      </trkpt>
      <trkpt lat="44.61871" lon="5.29592">
        <ele>558.1828613</ele>
        <time>2011-05-22T09:16:39Z</time>
      </trkpt>
      <trkpt lat="44.61867" lon="5.29568">
        <ele>559.144043</ele>
        <time>2011-05-22T09:16:45Z</time>
      </trkpt>
      <trkpt lat="44.61864" lon="5.29553">
        <ele>558.1828613</ele>
        <time>2011-05-22T09:16:49Z</time>
      </trkpt>
      <trkpt lat="44.61858" lon="5.29536">
        <ele>557.2214355</ele>
        <time>2011-05-22T09:16:54Z</time>
      </trkpt>
      <trkpt lat="44.6185" lon="5.29515">
        <ele>555.7792969</ele>
        <time>2011-05-22T09:17:00Z</time>
      </trkpt>
      <trkpt lat="44.61842" lon="5.29504">
        <ele>552.8952637</ele>
        <time>2011-05-22T09:17:05Z</time>
      </trkpt>
      <trkpt lat="44.61838" lon="5.295">
        <ele>551.934082</ele>
        <time>2011-05-22T09:17:07Z</time>
      </trkpt>
      <trkpt lat="44.61823" lon="5.29493">
        <ele>546.6468506</ele>
        <time>2011-05-22T09:17:14Z</time>
      </trkpt>
      <trkpt lat="44.61812" lon="5.2949">
        <ele>542.3209229</ele>
        <time>2011-05-22T09:17:19Z</time>
      </trkpt>
      <trkpt lat="44.61801" lon="5.29484">
        <ele>540.3983154</ele>
        <time>2011-05-22T09:17:24Z</time>
      </trkpt>
      <trkpt lat="44.61791" lon="5.29479">
        <ele>537.5142822</ele>
        <time>2011-05-22T09:17:29Z</time>
      </trkpt>
      <trkpt lat="44.6179" lon="5.29477">
        <ele>536.5531006</ele>
        <time>2011-05-22T09:17:30Z</time>
      </trkpt>
      <trkpt lat="44.61788" lon="5.29472">
        <ele>535.1109619</ele>
        <time>2011-05-22T09:17:32Z</time>
      </trkpt>
      <trkpt lat="44.61781" lon="5.29459">
        <ele>531.2657471</ele>
        <time>2011-05-22T09:17:38Z</time>
      </trkpt>
      <trkpt lat="44.61772" lon="5.29455">
        <ele>528.8625488</ele>
        <time>2011-05-22T09:17:44Z</time>
      </trkpt>
      <trkpt lat="44.61768" lon="5.2946">
        <ele>529.3431396</ele>
        <time>2011-05-22T09:17:47Z</time>
      </trkpt>
      <trkpt lat="44.61758" lon="5.29473">
        <ele>529.8237305</ele>
        <time>2011-05-22T09:17:53Z</time>
      </trkpt>
      <trkpt lat="44.6175" lon="5.29478">
        <ele>529.8237305</ele>
        <time>2011-05-22T09:17:57Z</time>
      </trkpt>
      <trkpt lat="44.61744" lon="5.29483">
        <ele>531.2657471</ele>
        <time>2011-05-22T09:18:01Z</time>
      </trkpt>
      <trkpt lat="44.61736" lon="5.29487">
        <ele>531.7463379</ele>
        <time>2011-05-22T09:18:05Z</time>
      </trkpt>
      <trkpt lat="44.61725" lon="5.29492">
        <ele>533.6689453</ele>
        <time>2011-05-22T09:18:11Z</time>
      </trkpt>
      <trkpt lat="44.61713" lon="5.29496">
        <ele>534.6303711</ele>
        <time>2011-05-22T09:18:17Z</time>
      </trkpt>
      <trkpt lat="44.617" lon="5.295">
        <ele>536.5531006</ele>
        <time>2011-05-22T09:18:23Z</time>
      </trkpt>
      <trkpt lat="44.61692" lon="5.29503">
        <ele>536.5531006</ele>
        <time>2011-05-22T09:18:27Z</time>
      </trkpt>
      <trkpt lat="44.61684" lon="5.29504">
        <ele>537.0336914</ele>
        <time>2011-05-22T09:18:31Z</time>
      </trkpt>
      <trkpt lat="44.61675" lon="5.29506">
        <ele>538.475708</ele>
        <time>2011-05-22T09:18:36Z</time>
      </trkpt>
      <trkpt lat="44.61665" lon="5.29509">
        <ele>539.9176025</ele>
        <time>2011-05-22T09:18:41Z</time>
      </trkpt>
      <trkpt lat="44.61656" lon="5.29512">
        <ele>539.9176025</ele>
        <time>2011-05-22T09:18:45Z</time>
      </trkpt>
      <trkpt lat="44.61645" lon="5.29514">
        <ele>538.475708</ele>
        <time>2011-05-22T09:18:50Z</time>
      </trkpt>
      <trkpt lat="44.61635" lon="5.2952">
        <ele>536.5531006</ele>
        <time>2011-05-22T09:18:54Z</time>
      </trkpt>
      <trkpt lat="44.61628" lon="5.29526">
        <ele>535.5915527</ele>
        <time>2011-05-22T09:18:57Z</time>
      </trkpt>
      <trkpt lat="44.61615" lon="5.29538">
        <ele>533.1883545</ele>
        <time>2011-05-22T09:19:03Z</time>
      </trkpt>
      <trkpt lat="44.61602" lon="5.29551">
        <ele>532.2270508</ele>
        <time>2011-05-22T09:19:09Z</time>
      </trkpt>
      <trkpt lat="44.61593" lon="5.29563">
        <ele>531.2657471</ele>
        <time>2011-05-22T09:19:14Z</time>
      </trkpt>
      <trkpt lat="44.6159" lon="5.29567">
        <ele>530.7851563</ele>
        <time>2011-05-22T09:19:15Z</time>
      </trkpt>
      <trkpt lat="44.61578" lon="5.29574">
        <ele>529.3431396</ele>
        <time>2011-05-22T09:19:20Z</time>
      </trkpt>
      <trkpt lat="44.61568" lon="5.29573">
        <ele>527.4204102</ele>
        <time>2011-05-22T09:19:24Z</time>
      </trkpt>
      <trkpt lat="44.61558" lon="5.29569">
        <ele>525.0172119</ele>
        <time>2011-05-22T09:19:28Z</time>
      </trkpt>
      <trkpt lat="44.61552" lon="5.29563">
        <ele>522.6138916</ele>
        <time>2011-05-22T09:19:32Z</time>
      </trkpt>
      <trkpt lat="44.61543" lon="5.29561">
        <ele>518.7685547</ele>
        <time>2011-05-22T09:19:36Z</time>
      </trkpt>
      <trkpt lat="44.61533" lon="5.29562">
        <ele>515.8846436</ele>
        <time>2011-05-22T09:19:40Z</time>
      </trkpt>
      <trkpt lat="44.61524" lon="5.29559">
        <ele>511.5587158</ele>
        <time>2011-05-22T09:19:45Z</time>
      </trkpt>
      <trkpt lat="44.61518" lon="5.29556">
        <ele>509.1553955</ele>
        <time>2011-05-22T09:19:48Z</time>
      </trkpt>
      <trkpt lat="44.61511" lon="5.29553">
        <ele>506.7520752</ele>
        <time>2011-05-22T09:19:51Z</time>
      </trkpt>
      <trkpt lat="44.61502" lon="5.29549">
        <ele>504.8294678</ele>
        <time>2011-05-22T09:19:55Z</time>
      </trkpt>
      <trkpt lat="44.61494" lon="5.29542">
        <ele>501.4648438</ele>
        <time>2011-05-22T09:19:59Z</time>
      </trkpt>
      <trkpt lat="44.61488" lon="5.29539">
        <ele>500.9841309</ele>
        <time>2011-05-22T09:20:02Z</time>
      </trkpt>
      <trkpt lat="44.61479" lon="5.29533">
        <ele>497.138916</ele>
        <time>2011-05-22T09:20:07Z</time>
      </trkpt>
      <trkpt lat="44.61477" lon="5.29532">
        <ele>496.1777344</ele>
        <time>2011-05-22T09:20:08Z</time>
      </trkpt>
      <trkpt lat="44.61463" lon="5.29529">
        <ele>495.6968994</ele>
        <time>2011-05-22T09:20:14Z</time>
      </trkpt>
      <trkpt lat="44.61461" lon="5.29529">
        <ele>496.1777344</ele>
        <time>2011-05-22T09:20:15Z</time>
      </trkpt>
      <trkpt lat="44.61451" lon="5.29528">
        <ele>495.6968994</ele>
        <time>2011-05-22T09:20:19Z</time>
      </trkpt>
      <trkpt lat="44.61444" lon="5.29522">
        <ele>493.774292</ele>
        <time>2011-05-22T09:20:23Z</time>
      </trkpt>
      <trkpt lat="44.61436" lon="5.29521">
        <ele>491.3709717</ele>
        <time>2011-05-22T09:20:27Z</time>
      </trkpt>
      <trkpt lat="44.61432" lon="5.29522">
        <ele>489.4483643</ele>
        <time>2011-05-22T09:20:29Z</time>
      </trkpt>
      <trkpt lat="44.61423" lon="5.29519">
        <ele>485.6030273</ele>
        <time>2011-05-22T09:20:35Z</time>
      </trkpt>
      <trkpt lat="44.6142" lon="5.2952">
        <ele>486.5644531</ele>
        <time>2011-05-22T09:20:37Z</time>
      </trkpt>
      <trkpt lat="44.61416" lon="5.2952">
        <ele>488.9677734</ele>
        <time>2011-05-22T09:20:41Z</time>
      </trkpt>
      <trkpt lat="44.61412" lon="5.29518">
        <ele>492.8129883</ele>
        <time>2011-05-22T09:20:47Z</time>
      </trkpt>
      <trkpt lat="44.61407" lon="5.29517">
        <ele>495.6968994</ele>
        <time>2011-05-22T09:20:53Z</time>
      </trkpt>
      <trkpt lat="44.61404" lon="5.29517">
        <ele>498.5809326</ele>
        <time>2011-05-22T09:20:58Z</time>
      </trkpt>
      <trkpt lat="44.614" lon="5.29518">
        <ele>500.0229492</ele>
        <time>2011-05-22T09:21:02Z</time>
      </trkpt>
      <trkpt lat="44.61395" lon="5.29521">
        <ele>503.3874512</ele>
        <time>2011-05-22T09:21:09Z</time>
      </trkpt>
      <trkpt lat="44.6139" lon="5.29525">
        <ele>506.7520752</ele>
        <time>2011-05-22T09:21:16Z</time>
      </trkpt>
      <trkpt lat="44.61384" lon="5.29531">
        <ele>509.6361084</ele>
        <time>2011-05-22T09:21:24Z</time>
      </trkpt>
      <trkpt lat="44.61379" lon="5.29533">
        <ele>511.5587158</ele>
        <time>2011-05-22T09:21:29Z</time>
      </trkpt>
      <trkpt lat="44.61372" lon="5.29536">
        <ele>513.4814453</ele>
        <time>2011-05-22T09:21:37Z</time>
      </trkpt>
      <trkpt lat="44.61364" lon="5.29538">
        <ele>514.9233398</ele>
        <time>2011-05-22T09:21:42Z</time>
      </trkpt>
      <trkpt lat="44.61355" lon="5.29537">
        <ele>515.4040527</ele>
        <time>2011-05-22T09:21:47Z</time>
      </trkpt>
      <trkpt lat="44.61342" lon="5.29534">
        <ele>513.4814453</ele>
        <time>2011-05-22T09:21:53Z</time>
      </trkpt>
      <trkpt lat="44.6133" lon="5.29535">
        <ele>512.5200195</ele>
        <time>2011-05-22T09:21:58Z</time>
      </trkpt>
      <trkpt lat="44.61323" lon="5.29538">
        <ele>512.5200195</ele>
        <time>2011-05-22T09:22:01Z</time>
      </trkpt>
      <trkpt lat="44.61313" lon="5.29544">
        <ele>511.5587158</ele>
        <time>2011-05-22T09:22:05Z</time>
      </trkpt>
      <trkpt lat="44.6131" lon="5.29545">
        <ele>511.0780029</ele>
        <time>2011-05-22T09:22:06Z</time>
      </trkpt>
      <trkpt lat="44.61297" lon="5.29552">
        <ele>510.59729</ele>
        <time>2011-05-22T09:22:12Z</time>
      </trkpt>
      <trkpt lat="44.61287" lon="5.29556">
        <ele>511.0780029</ele>
        <time>2011-05-22T09:22:16Z</time>
      </trkpt>
      <trkpt lat="44.61275" lon="5.2956">
        <ele>512.0394287</ele>
        <time>2011-05-22T09:22:21Z</time>
      </trkpt>
      <trkpt lat="44.61263" lon="5.29561">
        <ele>512.0394287</ele>
        <time>2011-05-22T09:22:26Z</time>
      </trkpt>
      <trkpt lat="44.61252" lon="5.2956">
        <ele>511.5587158</ele>
        <time>2011-05-22T09:22:31Z</time>
      </trkpt>
      <trkpt lat="44.61241" lon="5.29553">
        <ele>508.1940918</ele>
        <time>2011-05-22T09:22:37Z</time>
      </trkpt>
      <trkpt lat="44.61235" lon="5.29551">
        <ele>505.3101807</ele>
        <time>2011-05-22T09:22:40Z</time>
      </trkpt>
      <trkpt lat="44.61224" lon="5.29549">
        <ele>501.4648438</ele>
        <time>2011-05-22T09:22:45Z</time>
      </trkpt>
      <trkpt lat="44.61217" lon="5.2955">
        <ele>499.0615234</ele>
        <time>2011-05-22T09:22:49Z</time>
      </trkpt>
      <trkpt lat="44.61213" lon="5.29558">
        <ele>497.6196289</ele>
        <time>2011-05-22T09:22:53Z</time>
      </trkpt>
      <trkpt lat="44.61211" lon="5.29559">
        <ele>497.6196289</ele>
        <time>2011-05-22T09:22:54Z</time>
      </trkpt>
      <trkpt lat="44.61208" lon="5.29562">
        <ele>500.50354</ele>
        <time>2011-05-22T09:23:00Z</time>
      </trkpt>
      <trkpt lat="44.61205" lon="5.29563">
        <ele>501.9455566</ele>
        <time>2011-05-22T09:23:05Z</time>
      </trkpt>
      <trkpt lat="44.61204" lon="5.29565">
        <ele>502.4261475</ele>
        <time>2011-05-22T09:23:09Z</time>
      </trkpt>
      <trkpt lat="44.61201" lon="5.29567">
        <ele>505.3101807</ele>
        <time>2011-05-22T09:23:14Z</time>
      </trkpt>
      <trkpt lat="44.61197" lon="5.29566">
        <ele>506.2714844</ele>
        <time>2011-05-22T09:23:19Z</time>
      </trkpt>
      <trkpt lat="44.61192" lon="5.29568">
        <ele>511.5587158</ele>
        <time>2011-05-22T09:23:25Z</time>
      </trkpt>
      <trkpt lat="44.61187" lon="5.29571">
        <ele>514.442627</ele>
        <time>2011-05-22T09:23:31Z</time>
      </trkpt>
      <trkpt lat="44.61183" lon="5.29572">
        <ele>516.3652344</ele>
        <time>2011-05-22T09:23:35Z</time>
      </trkpt>
      <trkpt lat="44.61181" lon="5.29573">
        <ele>516.8459473</ele>
        <time>2011-05-22T09:23:37Z</time>
      </trkpt>
      <trkpt lat="44.61173" lon="5.29582">
        <ele>519.2492676</ele>
        <time>2011-05-22T09:23:41Z</time>
      </trkpt>
      <trkpt lat="44.61164" lon="5.29583">
        <ele>519.2492676</ele>
        <time>2011-05-22T09:23:45Z</time>
      </trkpt>
      <trkpt lat="44.61157" lon="5.29581">
        <ele>518.2878418</ele>
        <time>2011-05-22T09:23:48Z</time>
      </trkpt>
      <trkpt lat="44.61149" lon="5.29577">
        <ele>517.3266602</ele>
        <time>2011-05-22T09:23:52Z</time>
      </trkpt>
      <trkpt lat="44.61141" lon="5.29571">
        <ele>515.4040527</ele>
        <time>2011-05-22T09:23:56Z</time>
      </trkpt>
      <trkpt lat="44.61128" lon="5.29565">
        <ele>514.9233398</ele>
        <time>2011-05-22T09:24:02Z</time>
      </trkpt>
      <trkpt lat="44.61117" lon="5.29552">
        <ele>513.9620361</ele>
        <time>2011-05-22T09:24:08Z</time>
      </trkpt>
      <trkpt lat="44.6111" lon="5.29546">
        <ele>511.5587158</ele>
        <time>2011-05-22T09:24:12Z</time>
      </trkpt>
      <trkpt lat="44.61107" lon="5.29533">
        <ele>510.59729</ele>
        <time>2011-05-22T09:24:16Z</time>
      </trkpt>
      <trkpt lat="44.61109" lon="5.29515">
        <ele>510.1166992</ele>
        <time>2011-05-22T09:24:23Z</time>
      </trkpt>
      <trkpt lat="44.61109" lon="5.29498">
        <ele>513.4814453</ele>
        <time>2011-05-22T09:24:29Z</time>
      </trkpt>
      <trkpt lat="44.61103" lon="5.29485">
        <ele>511.5587158</ele>
        <time>2011-05-22T09:24:34Z</time>
      </trkpt>
      <trkpt lat="44.61089" lon="5.29473">
        <ele>506.2714844</ele>
        <time>2011-05-22T09:24:41Z</time>
      </trkpt>
      <trkpt lat="44.61077" lon="5.29471">
        <ele>502.9067383</ele>
        <time>2011-05-22T09:24:46Z</time>
      </trkpt>
      <trkpt lat="44.61063" lon="5.2947">
        <ele>499.5422363</ele>
        <time>2011-05-22T09:24:52Z</time>
      </trkpt>
      <trkpt lat="44.61051" lon="5.29468">
        <ele>496.1777344</ele>
        <time>2011-05-22T09:24:57Z</time>
      </trkpt>
      <trkpt lat="44.61046" lon="5.29467">
        <ele>494.2550049</ele>
        <time>2011-05-22T09:24:59Z</time>
      </trkpt>
      <trkpt lat="44.61037" lon="5.29465">
        <ele>493.774292</ele>
        <time>2011-05-22T09:25:03Z</time>
      </trkpt>
      <trkpt lat="44.61029" lon="5.29458">
        <ele>492.3323975</ele>
        <time>2011-05-22T09:25:07Z</time>
      </trkpt>
      <trkpt lat="44.61027" lon="5.29456">
        <ele>492.3323975</ele>
        <time>2011-05-22T09:25:08Z</time>
      </trkpt>
      <trkpt lat="44.61013" lon="5.29452">
        <ele>493.2935791</ele>
        <time>2011-05-22T09:25:15Z</time>
      </trkpt>
      <trkpt lat="44.6101" lon="5.29452">
        <ele>493.774292</ele>
        <time>2011-05-22T09:25:17Z</time>
      </trkpt>
      <trkpt lat="44.61006" lon="5.29447">
        <ele>494.7355957</ele>
        <time>2011-05-22T09:25:21Z</time>
      </trkpt>
      <trkpt lat="44.61005" lon="5.29441">
        <ele>497.138916</ele>
        <time>2011-05-22T09:25:25Z</time>
      </trkpt>
      <trkpt lat="44.61005" lon="5.29438">
        <ele>498.1003418</ele>
        <time>2011-05-22T09:25:27Z</time>
      </trkpt>
      <trkpt lat="44.60995" lon="5.29427">
        <ele>499.0615234</ele>
        <time>2011-05-22T09:25:34Z</time>
      </trkpt>
      <trkpt lat="44.60983" lon="5.29416">
        <ele>497.6196289</ele>
        <time>2011-05-22T09:25:40Z</time>
      </trkpt>
      <trkpt lat="44.60974" lon="5.29404">
        <ele>495.6968994</ele>
        <time>2011-05-22T09:25:45Z</time>
      </trkpt>
      <trkpt lat="44.60962" lon="5.29398">
        <ele>493.2935791</ele>
        <time>2011-05-22T09:25:51Z</time>
      </trkpt>
      <trkpt lat="44.60952" lon="5.294">
        <ele>494.2550049</ele>
        <time>2011-05-22T09:25:55Z</time>
      </trkpt>
      <trkpt lat="44.60944" lon="5.29403">
        <ele>494.2550049</ele>
        <time>2011-05-22T09:25:58Z</time>
      </trkpt>
      <trkpt lat="44.6094" lon="5.29403">
        <ele>493.2935791</ele>
        <time>2011-05-22T09:26:00Z</time>
      </trkpt>
      <trkpt lat="44.60928" lon="5.29402">
        <ele>490.8903809</ele>
        <time>2011-05-22T09:26:05Z</time>
      </trkpt>
      <trkpt lat="44.60919" lon="5.29399">
        <ele>489.4483643</ele>
        <time>2011-05-22T09:26:09Z</time>
      </trkpt>
      <trkpt lat="44.60916" lon="5.29397">
        <ele>488.9677734</ele>
        <time>2011-05-22T09:26:11Z</time>
      </trkpt>
      <trkpt lat="44.60908" lon="5.29389">
        <ele>488.4871826</ele>
        <time>2011-05-22T09:26:17Z</time>
      </trkpt>
      <trkpt lat="44.60905" lon="5.29383">
        <ele>489.9290771</ele>
        <time>2011-05-22T09:26:21Z</time>
      </trkpt>
      <trkpt lat="44.60902" lon="5.29376">
        <ele>493.2935791</ele>
        <time>2011-05-22T09:26:25Z</time>
      </trkpt>
      <trkpt lat="44.60902" lon="5.2936">
        <ele>496.6583252</ele>
        <time>2011-05-22T09:26:32Z</time>
      </trkpt>
      <trkpt lat="44.60903" lon="5.29349">
        <ele>500.0229492</ele>
        <time>2011-05-22T09:26:37Z</time>
      </trkpt>
      <trkpt lat="44.60903" lon="5.29339">
        <ele>502.4261475</ele>
        <time>2011-05-22T09:26:43Z</time>
      </trkpt>
      <trkpt lat="44.60899" lon="5.29326">
        <ele>505.3101807</ele>
        <time>2011-05-22T09:26:49Z</time>
      </trkpt>
      <trkpt lat="44.60895" lon="5.29315">
        <ele>507.713501</ele>
        <time>2011-05-22T09:26:54Z</time>
      </trkpt>
      <trkpt lat="44.60893" lon="5.29306">
        <ele>507.713501</ele>
        <time>2011-05-22T09:26:59Z</time>
      </trkpt>
      <trkpt lat="44.60893" lon="5.29294">
        <ele>509.6361084</ele>
        <time>2011-05-22T09:27:06Z</time>
      </trkpt>
      <trkpt lat="44.60891" lon="5.29284">
        <ele>512.0394287</ele>
        <time>2011-05-22T09:27:12Z</time>
      </trkpt>
      <trkpt lat="44.60891" lon="5.29277">
        <ele>511.5587158</ele>
        <time>2011-05-22T09:27:17Z</time>
      </trkpt>
      <trkpt lat="44.60888" lon="5.29267">
        <ele>514.9233398</ele>
        <time>2011-05-22T09:27:22Z</time>
      </trkpt>
      <trkpt lat="44.60886" lon="5.29264">
        <ele>514.9233398</ele>
        <time>2011-05-22T09:27:26Z</time>
      </trkpt>
      <trkpt lat="44.60881" lon="5.29263">
        <ele>516.3652344</ele>
        <time>2011-05-22T09:27:29Z</time>
      </trkpt>
      <trkpt lat="44.60879" lon="5.29262">
        <ele>516.3652344</ele>
        <time>2011-05-22T09:27:31Z</time>
      </trkpt>
      <trkpt lat="44.60875" lon="5.29261">
        <ele>517.3266602</ele>
        <time>2011-05-22T09:27:34Z</time>
      </trkpt>
      <trkpt lat="44.60871" lon="5.29257">
        <ele>517.807251</ele>
        <time>2011-05-22T09:27:38Z</time>
      </trkpt>
      <trkpt lat="44.60865" lon="5.29254">
        <ele>517.807251</ele>
        <time>2011-05-22T09:27:42Z</time>
      </trkpt>
      <trkpt lat="44.60859" lon="5.29248">
        <ele>518.7685547</ele>
        <time>2011-05-22T09:27:47Z</time>
      </trkpt>
      <trkpt lat="44.60857" lon="5.29247">
        <ele>518.7685547</ele>
        <time>2011-05-22T09:27:48Z</time>
      </trkpt>
      <trkpt lat="44.60842" lon="5.29241">
        <ele>518.7685547</ele>
        <time>2011-05-22T09:27:54Z</time>
      </trkpt>
      <trkpt lat="44.60833" lon="5.29234">
        <ele>517.3266602</ele>
        <time>2011-05-22T09:27:58Z</time>
      </trkpt>
      <trkpt lat="44.60823" lon="5.29227">
        <ele>515.4040527</ele>
        <time>2011-05-22T09:28:02Z</time>
      </trkpt>
      <trkpt lat="44.60812" lon="5.29204">
        <ele>513.0007324</ele>
        <time>2011-05-22T09:28:09Z</time>
      </trkpt>
      <trkpt lat="44.60806" lon="5.29186">
        <ele>511.5587158</ele>
        <time>2011-05-22T09:28:14Z</time>
      </trkpt>
      <trkpt lat="44.60805" lon="5.2917">
        <ele>511.5587158</ele>
        <time>2011-05-22T09:28:18Z</time>
      </trkpt>
      <trkpt lat="44.6081" lon="5.29151">
        <ele>512.0394287</ele>
        <time>2011-05-22T09:28:23Z</time>
      </trkpt>
      <trkpt lat="44.60816" lon="5.29134">
        <ele>511.5587158</ele>
        <time>2011-05-22T09:28:28Z</time>
      </trkpt>
      <trkpt lat="44.6082" lon="5.29115">
        <ele>512.5200195</ele>
        <time>2011-05-22T09:28:33Z</time>
      </trkpt>
      <trkpt lat="44.60818" lon="5.29097">
        <ele>511.0780029</ele>
        <time>2011-05-22T09:28:38Z</time>
      </trkpt>
      <trkpt lat="44.60814" lon="5.29087">
        <ele>511.5587158</ele>
        <time>2011-05-22T09:28:41Z</time>
      </trkpt>
      <trkpt lat="44.60802" lon="5.29071">
        <ele>512.0394287</ele>
        <time>2011-05-22T09:28:47Z</time>
      </trkpt>
      <trkpt lat="44.60789" lon="5.2906">
        <ele>513.9620361</ele>
        <time>2011-05-22T09:28:53Z</time>
      </trkpt>
      <trkpt lat="44.60785" lon="5.29058">
        <ele>514.9233398</ele>
        <time>2011-05-22T09:28:58Z</time>
      </trkpt>
      <trkpt lat="44.60785" lon="5.29058">
        <ele>517.3266602</ele>
        <time>2011-05-22T09:29:07Z</time>
      </trkpt>
      <trkpt lat="44.60785" lon="5.29058">
        <ele>518.7685547</ele>
        <time>2011-05-22T09:29:14Z</time>
      </trkpt>
      <trkpt lat="44.60784" lon="5.29059">
        <ele>518.7685547</ele>
        <time>2011-05-22T09:29:22Z</time>
      </trkpt>
      <trkpt lat="44.60783" lon="5.29058">
        <ele>518.7685547</ele>
        <time>2011-05-22T09:29:23Z</time>
      </trkpt>
      <trkpt lat="44.60772" lon="5.29056">
        <ele>519.2492676</ele>
        <time>2011-05-22T09:29:29Z</time>
      </trkpt>
      <trkpt lat="44.60761" lon="5.2905">
        <ele>518.7685547</ele>
        <time>2011-05-22T09:29:33Z</time>
      </trkpt>
      <trkpt lat="44.60745" lon="5.29043">
        <ele>518.2878418</ele>
        <time>2011-05-22T09:29:39Z</time>
      </trkpt>
      <trkpt lat="44.6073" lon="5.29036">
        <ele>517.3266602</ele>
        <time>2011-05-22T09:29:45Z</time>
      </trkpt>
      <trkpt lat="44.60719" lon="5.2903">
        <ele>515.8846436</ele>
        <time>2011-05-22T09:29:49Z</time>
      </trkpt>
      <trkpt lat="44.60705" lon="5.29019">
        <ele>515.8846436</ele>
        <time>2011-05-22T09:29:55Z</time>
      </trkpt>
      <trkpt lat="44.60703" lon="5.29016">
        <ele>515.8846436</ele>
        <time>2011-05-22T09:29:56Z</time>
      </trkpt>
      <trkpt lat="44.60697" lon="5.29001">
        <ele>518.2878418</ele>
        <time>2011-05-22T09:30:02Z</time>
      </trkpt>
      <trkpt lat="44.60696" lon="5.28998">
        <ele>518.7685547</ele>
        <time>2011-05-22T09:30:03Z</time>
      </trkpt>
      <trkpt lat="44.60688" lon="5.28989">
        <ele>519.7298584</ele>
        <time>2011-05-22T09:30:08Z</time>
      </trkpt>
      <trkpt lat="44.60686" lon="5.28983">
        <ele>520.2105713</ele>
        <time>2011-05-22T09:30:10Z</time>
      </trkpt>
      <trkpt lat="44.60681" lon="5.28968">
        <ele>519.2492676</ele>
        <time>2011-05-22T09:30:16Z</time>
      </trkpt>
      <trkpt lat="44.60674" lon="5.28953">
        <ele>517.807251</ele>
        <time>2011-05-22T09:30:22Z</time>
      </trkpt>
      <trkpt lat="44.60671" lon="5.28946">
        <ele>518.2878418</ele>
        <time>2011-05-22T09:30:25Z</time>
      </trkpt>
      <trkpt lat="44.60665" lon="5.28932">
        <ele>519.2492676</ele>
        <time>2011-05-22T09:30:31Z</time>
      </trkpt>
      <trkpt lat="44.60659" lon="5.28921">
        <ele>520.2105713</ele>
        <time>2011-05-22T09:30:36Z</time>
      </trkpt>
      <trkpt lat="44.60656" lon="5.28909">
        <ele>521.6525879</ele>
        <time>2011-05-22T09:30:41Z</time>
      </trkpt>
      <trkpt lat="44.60651" lon="5.289">
        <ele>522.6138916</ele>
        <time>2011-05-22T09:30:45Z</time>
      </trkpt>
      <trkpt lat="44.60646" lon="5.28891">
        <ele>522.1331787</ele>
        <time>2011-05-22T09:30:49Z</time>
      </trkpt>
      <trkpt lat="44.60638" lon="5.28875">
        <ele>523.5751953</ele>
        <time>2011-05-22T09:30:55Z</time>
      </trkpt>
      <trkpt lat="44.6063" lon="5.28863">
        <ele>524.0557861</ele>
        <time>2011-05-22T09:31:00Z</time>
      </trkpt>
      <trkpt lat="44.60623" lon="5.2885">
        <ele>524.536499</ele>
        <time>2011-05-22T09:31:05Z</time>
      </trkpt>
      <trkpt lat="44.60618" lon="5.28834">
        <ele>523.5751953</ele>
        <time>2011-05-22T09:31:10Z</time>
      </trkpt>
      <trkpt lat="44.60617" lon="5.28817">
        <ele>522.1331787</ele>
        <time>2011-05-22T09:31:15Z</time>
      </trkpt>
      <trkpt lat="44.60618" lon="5.28804">
        <ele>520.6912842</ele>
        <time>2011-05-22T09:31:19Z</time>
      </trkpt>
      <trkpt lat="44.60619" lon="5.28794">
        <ele>519.7298584</ele>
        <time>2011-05-22T09:31:22Z</time>
      </trkpt>
      <trkpt lat="44.60611" lon="5.28787">
        <ele>518.7685547</ele>
        <time>2011-05-22T09:31:27Z</time>
      </trkpt>
      <trkpt lat="44.60607" lon="5.28787">
        <ele>518.2878418</ele>
        <time>2011-05-22T09:31:29Z</time>
      </trkpt>
      <trkpt lat="44.60593" lon="5.2878">
        <ele>516.8459473</ele>
        <time>2011-05-22T09:31:35Z</time>
      </trkpt>
      <trkpt lat="44.60587" lon="5.28777">
        <ele>517.3266602</ele>
        <time>2011-05-22T09:31:38Z</time>
      </trkpt>
      <trkpt lat="44.60575" lon="5.2878">
        <ele>516.8459473</ele>
        <time>2011-05-22T09:31:43Z</time>
      </trkpt>
      <trkpt lat="44.60568" lon="5.28779">
        <ele>518.2878418</ele>
        <time>2011-05-22T09:31:47Z</time>
      </trkpt>
      <trkpt lat="44.60557" lon="5.28774">
        <ele>518.7685547</ele>
        <time>2011-05-22T09:31:53Z</time>
      </trkpt>
      <trkpt lat="44.60545" lon="5.28766">
        <ele>519.2492676</ele>
        <time>2011-05-22T09:31:59Z</time>
      </trkpt>
      <trkpt lat="44.60536" lon="5.28756">
        <ele>520.2105713</ele>
        <time>2011-05-22T09:32:06Z</time>
      </trkpt>
      <trkpt lat="44.60531" lon="5.28747">
        <ele>522.1331787</ele>
        <time>2011-05-22T09:32:11Z</time>
      </trkpt>
      <trkpt lat="44.60524" lon="5.28739">
        <ele>524.536499</ele>
        <time>2011-05-22T09:32:17Z</time>
      </trkpt>
      <trkpt lat="44.60516" lon="5.28726">
        <ele>528.3818359</ele>
        <time>2011-05-22T09:32:25Z</time>
      </trkpt>
      <trkpt lat="44.60511" lon="5.28715">
        <ele>530.3044434</ele>
        <time>2011-05-22T09:32:31Z</time>
      </trkpt>
      <trkpt lat="44.60503" lon="5.28708">
        <ele>532.7077637</ele>
        <time>2011-05-22T09:32:37Z</time>
      </trkpt>
      <trkpt lat="44.60496" lon="5.28701">
        <ele>533.6689453</ele>
        <time>2011-05-22T09:32:43Z</time>
      </trkpt>
      <trkpt lat="44.60493" lon="5.28698">
        <ele>534.1496582</ele>
        <time>2011-05-22T09:32:45Z</time>
      </trkpt>
      <trkpt lat="44.60492" lon="5.28694">
        <ele>534.6303711</ele>
        <time>2011-05-22T09:32:47Z</time>
      </trkpt>
      <trkpt lat="44.60488" lon="5.28688">
        <ele>535.1109619</ele>
        <time>2011-05-22T09:32:51Z</time>
      </trkpt>
      <trkpt lat="44.60483" lon="5.28677">
        <ele>536.0723877</ele>
        <time>2011-05-22T09:32:58Z</time>
      </trkpt>
      <trkpt lat="44.6048" lon="5.28662">
        <ele>536.0723877</ele>
        <time>2011-05-22T09:33:05Z</time>
      </trkpt>
      <trkpt lat="44.60476" lon="5.28649">
        <ele>534.6303711</ele>
        <time>2011-05-22T09:33:10Z</time>
      </trkpt>
      <trkpt lat="44.60471" lon="5.28646">
        <ele>535.5915527</ele>
        <time>2011-05-22T09:33:13Z</time>
      </trkpt>
      <trkpt lat="44.60457" lon="5.28644">
        <ele>535.1109619</ele>
        <time>2011-05-22T09:33:19Z</time>
      </trkpt>
      <trkpt lat="44.60443" lon="5.28645">
        <ele>535.1109619</ele>
        <time>2011-05-22T09:33:24Z</time>
      </trkpt>
      <trkpt lat="44.60436" lon="5.28647">
        <ele>535.5915527</ele>
        <time>2011-05-22T09:33:28Z</time>
      </trkpt>
      <trkpt lat="44.60426" lon="5.28645">
        <ele>535.1109619</ele>
        <time>2011-05-22T09:33:32Z</time>
      </trkpt>
      <trkpt lat="44.60417" lon="5.28639">
        <ele>534.6303711</ele>
        <time>2011-05-22T09:33:36Z</time>
      </trkpt>
      <trkpt lat="44.60412" lon="5.28636">
        <ele>535.1109619</ele>
        <time>2011-05-22T09:33:38Z</time>
      </trkpt>
      <trkpt lat="44.60399" lon="5.28636">
        <ele>535.5915527</ele>
        <time>2011-05-22T09:33:43Z</time>
      </trkpt>
      <trkpt lat="44.60393" lon="5.28636">
        <ele>535.5915527</ele>
        <time>2011-05-22T09:33:45Z</time>
      </trkpt>
      <trkpt lat="44.60379" lon="5.28636">
        <ele>533.1883545</ele>
        <time>2011-05-22T09:33:50Z</time>
      </trkpt>
      <trkpt lat="44.60366" lon="5.28633">
        <ele>531.7463379</ele>
        <time>2011-05-22T09:33:55Z</time>
      </trkpt>
      <trkpt lat="44.6036" lon="5.28632">
        <ele>531.7463379</ele>
        <time>2011-05-22T09:33:57Z</time>
      </trkpt>
      <trkpt lat="44.60347" lon="5.28627">
        <ele>530.3044434</ele>
        <time>2011-05-22T09:34:02Z</time>
      </trkpt>
      <trkpt lat="44.60336" lon="5.28624">
        <ele>528.8625488</ele>
        <time>2011-05-22T09:34:06Z</time>
      </trkpt>
      <trkpt lat="44.6032" lon="5.28617">
        <ele>526.4591064</ele>
        <time>2011-05-22T09:34:12Z</time>
      </trkpt>
      <trkpt lat="44.60311" lon="5.28603">
        <ele>523.5751953</ele>
        <time>2011-05-22T09:34:17Z</time>
      </trkpt>
      <trkpt lat="44.60304" lon="5.28587">
        <ele>520.6912842</ele>
        <time>2011-05-22T09:34:22Z</time>
      </trkpt>
      <trkpt lat="44.60299" lon="5.28571">
        <ele>516.8459473</ele>
        <time>2011-05-22T09:34:27Z</time>
      </trkpt>
      <trkpt lat="44.60291" lon="5.28561">
        <ele>514.9233398</ele>
        <time>2011-05-22T09:34:31Z</time>
      </trkpt>
      <trkpt lat="44.60279" lon="5.28563">
        <ele>512.5200195</ele>
        <time>2011-05-22T09:34:36Z</time>
      </trkpt>
      <trkpt lat="44.60276" lon="5.28575">
        <ele>511.5587158</ele>
        <time>2011-05-22T09:34:39Z</time>
      </trkpt>
      <trkpt lat="44.60275" lon="5.28583">
        <ele>511.5587158</ele>
        <time>2011-05-22T09:34:41Z</time>
      </trkpt>
      <trkpt lat="44.60271" lon="5.28607">
        <ele>511.0780029</ele>
        <time>2011-05-22T09:34:47Z</time>
      </trkpt>
      <trkpt lat="44.60268" lon="5.28618">
        <ele>511.0780029</ele>
        <time>2011-05-22T09:34:50Z</time>
      </trkpt>
      <trkpt lat="44.60264" lon="5.28638">
        <ele>510.59729</ele>
        <time>2011-05-22T09:34:55Z</time>
      </trkpt>
      <trkpt lat="44.60259" lon="5.28656">
        <ele>509.1553955</ele>
        <time>2011-05-22T09:35:00Z</time>
      </trkpt>
      <trkpt lat="44.60255" lon="5.28673">
        <ele>509.1553955</ele>
        <time>2011-05-22T09:35:05Z</time>
      </trkpt>
      <trkpt lat="44.60247" lon="5.28692">
        <ele>508.1940918</ele>
        <time>2011-05-22T09:35:11Z</time>
      </trkpt>
      <trkpt lat="44.60242" lon="5.28701">
        <ele>508.6746826</ele>
        <time>2011-05-22T09:35:14Z</time>
      </trkpt>
      <trkpt lat="44.60239" lon="5.28708">
        <ele>508.6746826</ele>
        <time>2011-05-22T09:35:16Z</time>
      </trkpt>
      <trkpt lat="44.60227" lon="5.28705">
        <ele>507.2327881</ele>
        <time>2011-05-22T09:35:21Z</time>
      </trkpt>
      <trkpt lat="44.60208" lon="5.28693">
        <ele>507.2327881</ele>
        <time>2011-05-22T09:35:29Z</time>
      </trkpt>
      <trkpt lat="44.60195" lon="5.28686">
        <ele>507.713501</ele>
        <time>2011-05-22T09:35:34Z</time>
      </trkpt>
      <trkpt lat="44.60187" lon="5.28676">
        <ele>508.6746826</ele>
        <time>2011-05-22T09:35:39Z</time>
      </trkpt>
      <trkpt lat="44.60186" lon="5.28655">
        <ele>508.6746826</ele>
        <time>2011-05-22T09:35:45Z</time>
      </trkpt>
      <trkpt lat="44.60191" lon="5.28634">
        <ele>507.713501</ele>
        <time>2011-05-22T09:35:51Z</time>
      </trkpt>
      <trkpt lat="44.60192" lon="5.28627">
        <ele>507.2327881</ele>
        <time>2011-05-22T09:35:53Z</time>
      </trkpt>
      <trkpt lat="44.60194" lon="5.28603">
        <ele>508.6746826</ele>
        <time>2011-05-22T09:36:00Z</time>
      </trkpt>
      <trkpt lat="44.60192" lon="5.28586">
        <ele>509.1553955</ele>
        <time>2011-05-22T09:36:05Z</time>
      </trkpt>
      <trkpt lat="44.6019" lon="5.28563">
        <ele>510.1166992</ele>
        <time>2011-05-22T09:36:12Z</time>
      </trkpt>
      <trkpt lat="44.6019" lon="5.28559">
        <ele>510.1166992</ele>
        <time>2011-05-22T09:36:13Z</time>
      </trkpt>
      <trkpt lat="44.6019" lon="5.28546">
        <ele>511.0780029</ele>
        <time>2011-05-22T09:36:17Z</time>
      </trkpt>
      <trkpt lat="44.60188" lon="5.28524">
        <ele>510.1166992</ele>
        <time>2011-05-22T09:36:24Z</time>
      </trkpt>
      <trkpt lat="44.60184" lon="5.28508">
        <ele>508.6746826</ele>
        <time>2011-05-22T09:36:29Z</time>
      </trkpt>
      <trkpt lat="44.60184" lon="5.28495">
        <ele>508.6746826</ele>
        <time>2011-05-22T09:36:33Z</time>
      </trkpt>
      <trkpt lat="44.60181" lon="5.28488">
        <ele>508.1940918</ele>
        <time>2011-05-22T09:36:36Z</time>
      </trkpt>
      <trkpt lat="44.60176" lon="5.28476">
        <ele>507.2327881</ele>
        <time>2011-05-22T09:36:41Z</time>
      </trkpt>
      <trkpt lat="44.60171" lon="5.28467">
        <ele>505.7908936</ele>
        <time>2011-05-22T09:36:46Z</time>
      </trkpt>
      <trkpt lat="44.60168" lon="5.2846">
        <ele>503.3874512</ele>
        <time>2011-05-22T09:36:50Z</time>
      </trkpt>
      <trkpt lat="44.60166" lon="5.28452">
        <ele>503.3874512</ele>
        <time>2011-05-22T09:36:54Z</time>
      </trkpt>
      <trkpt lat="44.60158" lon="5.28448">
        <ele>504.8294678</ele>
        <time>2011-05-22T09:36:58Z</time>
      </trkpt>
      <trkpt lat="44.6015" lon="5.28444">
        <ele>505.3101807</ele>
        <time>2011-05-22T09:37:02Z</time>
      </trkpt>
      <trkpt lat="44.60138" lon="5.28447">
        <ele>507.2327881</ele>
        <time>2011-05-22T09:37:07Z</time>
      </trkpt>
      <trkpt lat="44.6013" lon="5.28448">
        <ele>507.713501</ele>
        <time>2011-05-22T09:37:10Z</time>
      </trkpt>
      <trkpt lat="44.60115" lon="5.28451">
        <ele>510.1166992</ele>
        <time>2011-05-22T09:37:15Z</time>
      </trkpt>
      <trkpt lat="44.60109" lon="5.28453">
        <ele>510.59729</ele>
        <time>2011-05-22T09:37:19Z</time>
      </trkpt>
      <trkpt lat="44.60102" lon="5.2846">
        <ele>510.59729</ele>
        <time>2011-05-22T09:37:23Z</time>
      </trkpt>
      <trkpt lat="44.60093" lon="5.28459">
        <ele>510.59729</ele>
        <time>2011-05-22T09:37:27Z</time>
      </trkpt>
      <trkpt lat="44.60088" lon="5.28454">
        <ele>510.59729</ele>
        <time>2011-05-22T09:37:31Z</time>
      </trkpt>
      <trkpt lat="44.60082" lon="5.2845">
        <ele>511.0780029</ele>
        <time>2011-05-22T09:37:35Z</time>
      </trkpt>
      <trkpt lat="44.6008" lon="5.28449">
        <ele>511.0780029</ele>
        <time>2011-05-22T09:37:36Z</time>
      </trkpt>
      <trkpt lat="44.60069" lon="5.28443">
        <ele>512.0394287</ele>
        <time>2011-05-22T09:37:42Z</time>
      </trkpt>
      <trkpt lat="44.60063" lon="5.28435">
        <ele>512.5200195</ele>
        <time>2011-05-22T09:37:48Z</time>
      </trkpt>
      <trkpt lat="44.60057" lon="5.28431">
        <ele>512.5200195</ele>
        <time>2011-05-22T09:37:52Z</time>
      </trkpt>
      <trkpt lat="44.60054" lon="5.28428">
        <ele>513.0007324</ele>
        <time>2011-05-22T09:37:55Z</time>
      </trkpt>
      <trkpt lat="44.60051" lon="5.28423">
        <ele>514.442627</ele>
        <time>2011-05-22T09:38:00Z</time>
      </trkpt>
      <trkpt lat="44.60046" lon="5.28421">
        <ele>513.9620361</ele>
        <time>2011-05-22T09:38:04Z</time>
      </trkpt>
      <trkpt lat="44.60045" lon="5.2842">
        <ele>513.9620361</ele>
        <time>2011-05-22T09:38:06Z</time>
      </trkpt>
      <trkpt lat="44.60038" lon="5.28409">
        <ele>515.8846436</ele>
        <time>2011-05-22T09:38:13Z</time>
      </trkpt>
      <trkpt lat="44.60036" lon="5.28404">
        <ele>515.4040527</ele>
        <time>2011-05-22T09:38:16Z</time>
      </trkpt>
      <trkpt lat="44.60035" lon="5.28403">
        <ele>515.4040527</ele>
        <time>2011-05-22T09:38:17Z</time>
      </trkpt>
      <trkpt lat="44.6003" lon="5.28401">
        <ele>517.807251</ele>
        <time>2011-05-22T09:38:22Z</time>
      </trkpt>
      <trkpt lat="44.60027" lon="5.284">
        <ele>518.7685547</ele>
        <time>2011-05-22T09:38:24Z</time>
      </trkpt>
      <trkpt lat="44.60017" lon="5.28395">
        <ele>519.2492676</ele>
        <time>2011-05-22T09:38:30Z</time>
      </trkpt>
      <trkpt lat="44.60015" lon="5.28395">
        <ele>518.7685547</ele>
        <time>2011-05-22T09:38:31Z</time>
      </trkpt>
      <trkpt lat="44.60003" lon="5.28393">
        <ele>518.7685547</ele>
        <time>2011-05-22T09:38:35Z</time>
      </trkpt>
      <trkpt lat="44.60001" lon="5.28392">
        <ele>518.2878418</ele>
        <time>2011-05-22T09:38:36Z</time>
      </trkpt>
      <trkpt lat="44.59992" lon="5.28383">
        <ele>516.8459473</ele>
        <time>2011-05-22T09:38:41Z</time>
      </trkpt>
      <trkpt lat="44.59985" lon="5.28378">
        <ele>516.3652344</ele>
        <time>2011-05-22T09:38:45Z</time>
      </trkpt>
      <trkpt lat="44.59983" lon="5.28377">
        <ele>515.8846436</ele>
        <time>2011-05-22T09:38:46Z</time>
      </trkpt>
      <trkpt lat="44.59971" lon="5.28372">
        <ele>515.8846436</ele>
        <time>2011-05-22T09:38:52Z</time>
      </trkpt>
      <trkpt lat="44.5997" lon="5.2837">
        <ele>515.8846436</ele>
        <time>2011-05-22T09:38:53Z</time>
      </trkpt>
      <trkpt lat="44.59961" lon="5.28367">
        <ele>515.8846436</ele>
        <time>2011-05-22T09:38:57Z</time>
      </trkpt>
      <trkpt lat="44.59951" lon="5.28358">
        <ele>518.2878418</ele>
        <time>2011-05-22T09:39:05Z</time>
      </trkpt>
      <trkpt lat="44.59943" lon="5.2835">
        <ele>520.6912842</ele>
        <time>2011-05-22T09:39:10Z</time>
      </trkpt>
      <trkpt lat="44.59939" lon="5.28347">
        <ele>521.6525879</ele>
        <time>2011-05-22T09:39:13Z</time>
      </trkpt>
      <trkpt lat="44.59932" lon="5.28336">
        <ele>523.0946045</ele>
        <time>2011-05-22T09:39:19Z</time>
      </trkpt>
      <trkpt lat="44.59926" lon="5.28321">
        <ele>524.536499</ele>
        <time>2011-05-22T09:39:25Z</time>
      </trkpt>
      <trkpt lat="44.59921" lon="5.28312">
        <ele>524.0557861</ele>
        <time>2011-05-22T09:39:29Z</time>
      </trkpt>
      <trkpt lat="44.59916" lon="5.283">
        <ele>521.1719971</ele>
        <time>2011-05-22T09:39:34Z</time>
      </trkpt>
      <trkpt lat="44.59908" lon="5.28291">
        <ele>519.2492676</ele>
        <time>2011-05-22T09:39:39Z</time>
      </trkpt>
      <trkpt lat="44.59904" lon="5.28284">
        <ele>517.807251</ele>
        <time>2011-05-22T09:39:42Z</time>
      </trkpt>
      <trkpt lat="44.59896" lon="5.28278">
        <ele>516.3652344</ele>
        <time>2011-05-22T09:39:46Z</time>
      </trkpt>
      <trkpt lat="44.5989" lon="5.28275">
        <ele>514.9233398</ele>
        <time>2011-05-22T09:39:49Z</time>
      </trkpt>
      <trkpt lat="44.59878" lon="5.28276">
        <ele>514.442627</ele>
        <time>2011-05-22T09:39:54Z</time>
      </trkpt>
      <trkpt lat="44.59865" lon="5.28276">
        <ele>514.442627</ele>
        <time>2011-05-22T09:39:59Z</time>
      </trkpt>
      <trkpt lat="44.59854" lon="5.28274">
        <ele>513.4814453</ele>
        <time>2011-05-22T09:40:04Z</time>
      </trkpt>
      <trkpt lat="44.59841" lon="5.28268">
        <ele>513.9620361</ele>
        <time>2011-05-22T09:40:10Z</time>
      </trkpt>
      <trkpt lat="44.59834" lon="5.28263">
        <ele>513.4814453</ele>
        <time>2011-05-22T09:40:13Z</time>
      </trkpt>
      <trkpt lat="44.59822" lon="5.28256">
        <ele>513.9620361</ele>
        <time>2011-05-22T09:40:18Z</time>
      </trkpt>
      <trkpt lat="44.59813" lon="5.28248">
        <ele>514.442627</ele>
        <time>2011-05-22T09:40:22Z</time>
      </trkpt>
      <trkpt lat="44.59816" lon="5.28236">
        <ele>515.4040527</ele>
        <time>2011-05-22T09:40:27Z</time>
      </trkpt>
      <trkpt lat="44.59812" lon="5.28228">
        <ele>515.4040527</ele>
        <time>2011-05-22T09:40:31Z</time>
      </trkpt>
      <trkpt lat="44.59806" lon="5.28222">
        <ele>518.7685547</ele>
        <time>2011-05-22T09:40:36Z</time>
      </trkpt>
      <trkpt lat="44.59797" lon="5.28221">
        <ele>520.2105713</ele>
        <time>2011-05-22T09:40:41Z</time>
      </trkpt>
      <trkpt lat="44.59795" lon="5.28221">
        <ele>520.2105713</ele>
        <time>2011-05-22T09:40:42Z</time>
      </trkpt>
      <trkpt lat="44.5979" lon="5.2822">
        <ele>520.6912842</ele>
        <time>2011-05-22T09:40:45Z</time>
      </trkpt>
      <trkpt lat="44.59785" lon="5.2823">
        <ele>520.6912842</ele>
        <time>2011-05-22T09:40:50Z</time>
      </trkpt>
      <trkpt lat="44.59779" lon="5.28232">
        <ele>521.6525879</ele>
        <time>2011-05-22T09:40:54Z</time>
      </trkpt>
      <trkpt lat="44.59777" lon="5.2823">
        <ele>521.6525879</ele>
        <time>2011-05-22T09:40:55Z</time>
      </trkpt>
      <trkpt lat="44.59763" lon="5.28224">
        <ele>519.2492676</ele>
        <time>2011-05-22T09:41:01Z</time>
      </trkpt>
      <trkpt lat="44.59754" lon="5.28218">
        <ele>518.2878418</ele>
        <time>2011-05-22T09:41:05Z</time>
      </trkpt>
      <trkpt lat="44.59738" lon="5.28213">
        <ele>517.807251</ele>
        <time>2011-05-22T09:41:10Z</time>
      </trkpt>
      <trkpt lat="44.59732" lon="5.28211">
        <ele>515.8846436</ele>
        <time>2011-05-22T09:41:14Z</time>
      </trkpt>
      <trkpt lat="44.59725" lon="5.28204">
        <ele>514.9233398</ele>
        <time>2011-05-22T09:41:19Z</time>
      </trkpt>
      <trkpt lat="44.59719" lon="5.28197">
        <ele>514.9233398</ele>
        <time>2011-05-22T09:41:22Z</time>
      </trkpt>
      <trkpt lat="44.59707" lon="5.2819">
        <ele>515.8846436</ele>
        <time>2011-05-22T09:41:28Z</time>
      </trkpt>
      <trkpt lat="44.59699" lon="5.28185">
        <ele>517.3266602</ele>
        <time>2011-05-22T09:41:33Z</time>
      </trkpt>
      <trkpt lat="44.59691" lon="5.28182">
        <ele>518.7685547</ele>
        <time>2011-05-22T09:41:37Z</time>
      </trkpt>
      <trkpt lat="44.59681" lon="5.28176">
        <ele>519.7298584</ele>
        <time>2011-05-22T09:41:42Z</time>
      </trkpt>
      <trkpt lat="44.59679" lon="5.28176">
        <ele>520.2105713</ele>
        <time>2011-05-22T09:41:43Z</time>
      </trkpt>
      <trkpt lat="44.59666" lon="5.28175">
        <ele>520.2105713</ele>
        <time>2011-05-22T09:41:48Z</time>
      </trkpt>
      <trkpt lat="44.5966" lon="5.28177">
        <ele>520.2105713</ele>
        <time>2011-05-22T09:41:51Z</time>
      </trkpt>
      <trkpt lat="44.59651" lon="5.28178">
        <ele>517.3266602</ele>
        <time>2011-05-22T09:41:56Z</time>
      </trkpt>
      <trkpt lat="44.59643" lon="5.28177">
        <ele>516.8459473</ele>
        <time>2011-05-22T09:41:59Z</time>
      </trkpt>
      <trkpt lat="44.5963" lon="5.28178">
        <ele>514.442627</ele>
        <time>2011-05-22T09:42:05Z</time>
      </trkpt>
      <trkpt lat="44.59619" lon="5.28177">
        <ele>514.442627</ele>
        <time>2011-05-22T09:42:09Z</time>
      </trkpt>
      <trkpt lat="44.59612" lon="5.28177">
        <ele>514.9233398</ele>
        <time>2011-05-22T09:42:12Z</time>
      </trkpt>
      <trkpt lat="44.596" lon="5.28174">
        <ele>516.8459473</ele>
        <time>2011-05-22T09:42:17Z</time>
      </trkpt>
      <trkpt lat="44.59596" lon="5.28173">
        <ele>516.8459473</ele>
        <time>2011-05-22T09:42:19Z</time>
      </trkpt>
      <trkpt lat="44.5959" lon="5.2817">
        <ele>517.3266602</ele>
        <time>2011-05-22T09:42:22Z</time>
      </trkpt>
      <trkpt lat="44.59577" lon="5.28162">
        <ele>519.2492676</ele>
        <time>2011-05-22T09:42:28Z</time>
      </trkpt>
      <trkpt lat="44.59571" lon="5.28166">
        <ele>519.7298584</ele>
        <time>2011-05-22T09:42:30Z</time>
      </trkpt>
      <trkpt lat="44.59555" lon="5.28158">
        <ele>520.6912842</ele>
        <time>2011-05-22T09:42:37Z</time>
      </trkpt>
      <trkpt lat="44.59549" lon="5.28152">
        <ele>519.7298584</ele>
        <time>2011-05-22T09:42:41Z</time>
      </trkpt>
      <trkpt lat="44.59544" lon="5.28145">
        <ele>518.7685547</ele>
        <time>2011-05-22T09:42:44Z</time>
      </trkpt>
      <trkpt lat="44.59537" lon="5.28132">
        <ele>522.6138916</ele>
        <time>2011-05-22T09:42:49Z</time>
      </trkpt>
      <trkpt lat="44.5953" lon="5.28123">
        <ele>524.0557861</ele>
        <time>2011-05-22T09:42:53Z</time>
      </trkpt>
      <trkpt lat="44.59521" lon="5.28115">
        <ele>526.4591064</ele>
        <time>2011-05-22T09:42:57Z</time>
      </trkpt>
      <trkpt lat="44.59515" lon="5.28105">
        <ele>525.9783936</ele>
        <time>2011-05-22T09:43:01Z</time>
      </trkpt>
      <trkpt lat="44.5951" lon="5.28101">
        <ele>525.0172119</ele>
        <time>2011-05-22T09:43:03Z</time>
      </trkpt>
      <trkpt lat="44.59502" lon="5.28093">
        <ele>523.5751953</ele>
        <time>2011-05-22T09:43:08Z</time>
      </trkpt>
      <trkpt lat="44.59496" lon="5.2809">
        <ele>523.5751953</ele>
        <time>2011-05-22T09:43:11Z</time>
      </trkpt>
      <trkpt lat="44.59489" lon="5.28085">
        <ele>523.0946045</ele>
        <time>2011-05-22T09:43:15Z</time>
      </trkpt>
      <trkpt lat="44.59485" lon="5.2808">
        <ele>522.6138916</ele>
        <time>2011-05-22T09:43:18Z</time>
      </trkpt>
      <trkpt lat="44.59477" lon="5.28072">
        <ele>523.5751953</ele>
        <time>2011-05-22T09:43:24Z</time>
      </trkpt>
      <trkpt lat="44.59476" lon="5.2807">
        <ele>523.5751953</ele>
        <time>2011-05-22T09:43:25Z</time>
      </trkpt>
      <trkpt lat="44.59471" lon="5.28058">
        <ele>524.0557861</ele>
        <time>2011-05-22T09:43:31Z</time>
      </trkpt>
      <trkpt lat="44.59469" lon="5.28046">
        <ele>524.536499</ele>
        <time>2011-05-22T09:43:36Z</time>
      </trkpt>
      <trkpt lat="44.59465" lon="5.28035">
        <ele>523.5751953</ele>
        <time>2011-05-22T09:43:40Z</time>
      </trkpt>
      <trkpt lat="44.59461" lon="5.2803">
        <ele>522.6138916</ele>
        <time>2011-05-22T09:43:43Z</time>
      </trkpt>
      <trkpt lat="44.59455" lon="5.28022">
        <ele>521.6525879</ele>
        <time>2011-05-22T09:43:47Z</time>
      </trkpt>
      <trkpt lat="44.59453" lon="5.28013">
        <ele>521.1719971</ele>
        <time>2011-05-22T09:43:50Z</time>
      </trkpt>
      <trkpt lat="44.59451" lon="5.28008">
        <ele>520.2105713</ele>
        <time>2011-05-22T09:43:52Z</time>
      </trkpt>
      <trkpt lat="44.59442" lon="5.27995">
        <ele>519.7298584</ele>
        <time>2011-05-22T09:43:57Z</time>
      </trkpt>
      <trkpt lat="44.59441" lon="5.27993">
        <ele>519.2492676</ele>
        <time>2011-05-22T09:43:58Z</time>
      </trkpt>
      <trkpt lat="44.59431" lon="5.27982">
        <ele>519.2492676</ele>
        <time>2011-05-22T09:44:04Z</time>
      </trkpt>
      <trkpt lat="44.59427" lon="5.27979">
        <ele>519.7298584</ele>
        <time>2011-05-22T09:44:06Z</time>
      </trkpt>
      <trkpt lat="44.5942" lon="5.2797">
        <ele>520.2105713</ele>
        <time>2011-05-22T09:44:10Z</time>
      </trkpt>
      <trkpt lat="44.59418" lon="5.27965">
        <ele>521.1719971</ele>
        <time>2011-05-22T09:44:12Z</time>
      </trkpt>
      <trkpt lat="44.59411" lon="5.27958">
        <ele>523.0946045</ele>
        <time>2011-05-22T09:44:18Z</time>
      </trkpt>
      <trkpt lat="44.59408" lon="5.27953">
        <ele>525.9783936</ele>
        <time>2011-05-22T09:44:21Z</time>
      </trkpt>
      <trkpt lat="44.59407" lon="5.27951">
        <ele>526.9398193</ele>
        <time>2011-05-22T09:44:23Z</time>
      </trkpt>
      <trkpt lat="44.59408" lon="5.27948">
        <ele>528.8625488</ele>
        <time>2011-05-22T09:44:25Z</time>
      </trkpt>
      <trkpt lat="44.59404" lon="5.27948">
        <ele>526.9398193</ele>
        <time>2011-05-22T09:44:30Z</time>
      </trkpt>
      <trkpt lat="44.59395" lon="5.2796">
        <ele>526.4591064</ele>
        <time>2011-05-22T09:44:35Z</time>
      </trkpt>
      <trkpt lat="44.59386" lon="5.27974">
        <ele>527.901001</ele>
        <time>2011-05-22T09:44:41Z</time>
      </trkpt>
      <trkpt lat="44.5938" lon="5.27978">
        <ele>528.3818359</ele>
        <time>2011-05-22T09:44:45Z</time>
      </trkpt>
      <trkpt lat="44.59369" lon="5.27965">
        <ele>528.8625488</ele>
        <time>2011-05-22T09:44:52Z</time>
      </trkpt>
      <trkpt lat="44.59362" lon="5.27962">
        <ele>528.3818359</ele>
        <time>2011-05-22T09:44:56Z</time>
      </trkpt>
      <trkpt lat="44.5936" lon="5.27962">
        <ele>528.3818359</ele>
        <time>2011-05-22T09:44:57Z</time>
      </trkpt>
      <trkpt lat="44.59348" lon="5.27965">
        <ele>528.8625488</ele>
        <time>2011-05-22T09:45:03Z</time>
      </trkpt>
      <trkpt lat="44.59344" lon="5.27968">
        <ele>528.3818359</ele>
        <time>2011-05-22T09:45:05Z</time>
      </trkpt>
      <trkpt lat="44.59335" lon="5.27968">
        <ele>528.8625488</ele>
        <time>2011-05-22T09:45:09Z</time>
      </trkpt>
      <trkpt lat="44.59326" lon="5.27969">
        <ele>529.8237305</ele>
        <time>2011-05-22T09:45:13Z</time>
      </trkpt>
      <trkpt lat="44.5932" lon="5.2797">
        <ele>529.3431396</ele>
        <time>2011-05-22T09:45:16Z</time>
      </trkpt>
      <trkpt lat="44.59318" lon="5.27969">
        <ele>529.8237305</ele>
        <time>2011-05-22T09:45:17Z</time>
      </trkpt>
      <trkpt lat="44.59313" lon="5.27969">
        <ele>529.8237305</ele>
        <time>2011-05-22T09:45:19Z</time>
      </trkpt>
      <trkpt lat="44.5931" lon="5.27971">
        <ele>528.8625488</ele>
        <time>2011-05-22T09:45:21Z</time>
      </trkpt>
      <trkpt lat="44.593" lon="5.2797">
        <ele>528.8625488</ele>
        <time>2011-05-22T09:45:25Z</time>
      </trkpt>
      <trkpt lat="44.59289" lon="5.27973">
        <ele>528.3818359</ele>
        <time>2011-05-22T09:45:30Z</time>
      </trkpt>
      <trkpt lat="44.59271" lon="5.27979">
        <ele>527.4204102</ele>
        <time>2011-05-22T09:45:38Z</time>
      </trkpt>
      <trkpt lat="44.59267" lon="5.27978">
        <ele>527.901001</ele>
        <time>2011-05-22T09:45:40Z</time>
      </trkpt>
      <trkpt lat="44.59253" lon="5.27988">
        <ele>528.3818359</ele>
        <time>2011-05-22T09:45:46Z</time>
      </trkpt>
      <trkpt lat="44.59245" lon="5.27994">
        <ele>528.3818359</ele>
        <time>2011-05-22T09:45:50Z</time>
      </trkpt>
      <trkpt lat="44.59242" lon="5.27995">
        <ele>528.3818359</ele>
        <time>2011-05-22T09:45:51Z</time>
      </trkpt>
      <trkpt lat="44.59231" lon="5.28">
        <ele>527.901001</ele>
        <time>2011-05-22T09:45:57Z</time>
      </trkpt>
      <trkpt lat="44.59222" lon="5.28004">
        <ele>527.901001</ele>
        <time>2011-05-22T09:46:01Z</time>
      </trkpt>
      <trkpt lat="44.59211" lon="5.28005">
        <ele>527.4204102</ele>
        <time>2011-05-22T09:46:06Z</time>
      </trkpt>
      <trkpt lat="44.59201" lon="5.28008">
        <ele>527.4204102</ele>
        <time>2011-05-22T09:46:10Z</time>
      </trkpt>
      <trkpt lat="44.59192" lon="5.28011">
        <ele>527.4204102</ele>
        <time>2011-05-22T09:46:14Z</time>
      </trkpt>
      <trkpt lat="44.59184" lon="5.28015">
        <ele>526.4591064</ele>
        <time>2011-05-22T09:46:17Z</time>
      </trkpt>
      <trkpt lat="44.59175" lon="5.28019">
        <ele>523.5751953</ele>
        <time>2011-05-22T09:46:21Z</time>
      </trkpt>
      <trkpt lat="44.59172" lon="5.2802">
        <ele>524.0557861</ele>
        <time>2011-05-22T09:46:22Z</time>
      </trkpt>
      <trkpt lat="44.59166" lon="5.2802">
        <ele>524.0557861</ele>
        <time>2011-05-22T09:46:26Z</time>
      </trkpt>
      <trkpt lat="44.59161" lon="5.28021">
        <ele>524.536499</ele>
        <time>2011-05-22T09:46:29Z</time>
      </trkpt>
      <trkpt lat="44.59151" lon="5.28032">
        <ele>525.4978027</ele>
        <time>2011-05-22T09:46:33Z</time>
      </trkpt>
      <trkpt lat="44.59144" lon="5.28036">
        <ele>526.9398193</ele>
        <time>2011-05-22T09:46:36Z</time>
      </trkpt>
      <trkpt lat="44.5914" lon="5.28039">
        <ele>527.4204102</ele>
        <time>2011-05-22T09:46:38Z</time>
      </trkpt>
      <trkpt lat="44.59126" lon="5.28049">
        <ele>528.3818359</ele>
        <time>2011-05-22T09:46:44Z</time>
      </trkpt>
      <trkpt lat="44.59115" lon="5.28059">
        <ele>529.8237305</ele>
        <time>2011-05-22T09:46:50Z</time>
      </trkpt>
      <trkpt lat="44.59105" lon="5.28066">
        <ele>531.2657471</ele>
        <time>2011-05-22T09:46:55Z</time>
      </trkpt>
      <trkpt lat="44.59095" lon="5.28073">
        <ele>530.3044434</ele>
        <time>2011-05-22T09:47:00Z</time>
      </trkpt>
      <trkpt lat="44.5909" lon="5.28077">
        <ele>528.8625488</ele>
        <time>2011-05-22T09:47:03Z</time>
      </trkpt>
      <trkpt lat="44.59082" lon="5.28081">
        <ele>530.7851563</ele>
        <time>2011-05-22T09:47:07Z</time>
      </trkpt>
      <trkpt lat="44.59077" lon="5.28084">
        <ele>528.8625488</ele>
        <time>2011-05-22T09:47:09Z</time>
      </trkpt>
      <trkpt lat="44.5906" lon="5.28092">
        <ele>526.9398193</ele>
        <time>2011-05-22T09:47:17Z</time>
      </trkpt>
      <trkpt lat="44.59049" lon="5.28097">
        <ele>526.9398193</ele>
        <time>2011-05-22T09:47:21Z</time>
      </trkpt>
      <trkpt lat="44.59039" lon="5.28101">
        <ele>527.901001</ele>
        <time>2011-05-22T09:47:25Z</time>
      </trkpt>
      <trkpt lat="44.5903" lon="5.28106">
        <ele>527.901001</ele>
        <time>2011-05-22T09:47:29Z</time>
      </trkpt>
      <trkpt lat="44.59021" lon="5.28111">
        <ele>527.4204102</ele>
        <time>2011-05-22T09:47:32Z</time>
      </trkpt>
      <trkpt lat="44.59007" lon="5.28122">
        <ele>526.4591064</ele>
        <time>2011-05-22T09:47:36Z</time>
      </trkpt>
      <trkpt lat="44.59005" lon="5.28123">
        <ele>525.9783936</ele>
        <time>2011-05-22T09:47:37Z</time>
      </trkpt>
      <trkpt lat="44.5899" lon="5.28125">
        <ele>523.0946045</ele>
        <time>2011-05-22T09:47:43Z</time>
      </trkpt>
      <trkpt lat="44.58981" lon="5.28128">
        <ele>523.5751953</ele>
        <time>2011-05-22T09:47:46Z</time>
      </trkpt>
      <trkpt lat="44.5897" lon="5.2813">
        <ele>521.6525879</ele>
        <time>2011-05-22T09:47:50Z</time>
      </trkpt>
      <trkpt lat="44.58956" lon="5.28131">
        <ele>521.1719971</ele>
        <time>2011-05-22T09:47:55Z</time>
      </trkpt>
      <trkpt lat="44.58953" lon="5.2813">
        <ele>520.6912842</ele>
        <time>2011-05-22T09:47:56Z</time>
      </trkpt>
      <trkpt lat="44.58944" lon="5.28125">
        <ele>526.4591064</ele>
        <time>2011-05-22T09:48:00Z</time>
      </trkpt>
      <trkpt lat="44.58936" lon="5.28124">
        <ele>529.8237305</ele>
        <time>2011-05-22T09:48:03Z</time>
      </trkpt>
      <trkpt lat="44.5893" lon="5.28122">
        <ele>531.7463379</ele>
        <time>2011-05-22T09:48:06Z</time>
      </trkpt>
      <trkpt lat="44.5892" lon="5.28123">
        <ele>532.7077637</ele>
        <time>2011-05-22T09:48:10Z</time>
      </trkpt>
      <trkpt lat="44.58913" lon="5.28125">
        <ele>532.7077637</ele>
        <time>2011-05-22T09:48:13Z</time>
      </trkpt>
      <trkpt lat="44.58899" lon="5.28129">
        <ele>533.6689453</ele>
        <time>2011-05-22T09:48:18Z</time>
      </trkpt>
      <trkpt lat="44.58886" lon="5.28132">
        <ele>535.5915527</ele>
        <time>2011-05-22T09:48:23Z</time>
      </trkpt>
      <trkpt lat="44.58876" lon="5.28138">
        <ele>537.9949951</ele>
        <time>2011-05-22T09:48:26Z</time>
      </trkpt>
      <trkpt lat="44.58865" lon="5.28139">
        <ele>538.9562988</ele>
        <time>2011-05-22T09:48:30Z</time>
      </trkpt>
      <trkpt lat="44.58858" lon="5.28141">
        <ele>538.9562988</ele>
        <time>2011-05-22T09:48:32Z</time>
      </trkpt>
      <trkpt lat="44.58848" lon="5.28134">
        <ele>537.9949951</ele>
        <time>2011-05-22T09:48:38Z</time>
      </trkpt>
      <trkpt lat="44.58845" lon="5.28133">
        <ele>537.9949951</ele>
        <time>2011-05-22T09:48:40Z</time>
      </trkpt>
      <trkpt lat="44.58835" lon="5.28128">
        <ele>538.475708</ele>
        <time>2011-05-22T09:48:45Z</time>
      </trkpt>
      <trkpt lat="44.58827" lon="5.28125">
        <ele>539.4368896</ele>
        <time>2011-05-22T09:48:49Z</time>
      </trkpt>
      <trkpt lat="44.58824" lon="5.28123">
        <ele>539.4368896</ele>
        <time>2011-05-22T09:48:51Z</time>
      </trkpt>
      <trkpt lat="44.58814" lon="5.28123">
        <ele>540.3983154</ele>
        <time>2011-05-22T09:48:55Z</time>
      </trkpt>
      <trkpt lat="44.58808" lon="5.28122">
        <ele>541.84021</ele>
        <time>2011-05-22T09:48:58Z</time>
      </trkpt>
      <trkpt lat="44.58801" lon="5.28119">
        <ele>542.3209229</ele>
        <time>2011-05-22T09:49:02Z</time>
      </trkpt>
      <trkpt lat="44.58799" lon="5.28118">
        <ele>543.2821045</ele>
        <time>2011-05-22T09:49:03Z</time>
      </trkpt>
      <trkpt lat="44.5879" lon="5.28112">
        <ele>544.7242432</ele>
        <time>2011-05-22T09:49:07Z</time>
      </trkpt>
      <trkpt lat="44.58779" lon="5.28108">
        <ele>544.2436523</ele>
        <time>2011-05-22T09:49:12Z</time>
      </trkpt>
      <trkpt lat="44.58771" lon="5.28108">
        <ele>543.7628174</ele>
        <time>2011-05-22T09:49:15Z</time>
      </trkpt>
      <trkpt lat="44.58768" lon="5.28108">
        <ele>543.2821045</ele>
        <time>2011-05-22T09:49:16Z</time>
      </trkpt>
      <trkpt lat="44.58752" lon="5.28112">
        <ele>542.8015137</ele>
        <time>2011-05-22T09:49:22Z</time>
      </trkpt>
      <trkpt lat="44.58744" lon="5.28114">
        <ele>542.3209229</ele>
        <time>2011-05-22T09:49:25Z</time>
      </trkpt>
      <trkpt lat="44.5873" lon="5.28113">
        <ele>541.84021</ele>
        <time>2011-05-22T09:49:30Z</time>
      </trkpt>
      <trkpt lat="44.5872" lon="5.2811">
        <ele>541.84021</ele>
        <time>2011-05-22T09:49:34Z</time>
      </trkpt>
      <trkpt lat="44.58709" lon="5.28107">
        <ele>541.84021</ele>
        <time>2011-05-22T09:49:38Z</time>
      </trkpt>
      <trkpt lat="44.587" lon="5.28106">
        <ele>541.3594971</ele>
        <time>2011-05-22T09:49:42Z</time>
      </trkpt>
      <trkpt lat="44.58688" lon="5.28102">
        <ele>541.3594971</ele>
        <time>2011-05-22T09:49:46Z</time>
      </trkpt>
      <trkpt lat="44.58682" lon="5.28097">
        <ele>541.84021</ele>
        <time>2011-05-22T09:49:50Z</time>
      </trkpt>
      <trkpt lat="44.58669" lon="5.28092">
        <ele>542.8015137</ele>
        <time>2011-05-22T09:49:56Z</time>
      </trkpt>
      <trkpt lat="44.5866" lon="5.28092">
        <ele>543.2821045</ele>
        <time>2011-05-22T09:50:00Z</time>
      </trkpt>
      <trkpt lat="44.58647" lon="5.28091">
        <ele>543.2821045</ele>
        <time>2011-05-22T09:50:05Z</time>
      </trkpt>
      <trkpt lat="44.58632" lon="5.28094">
        <ele>544.7242432</ele>
        <time>2011-05-22T09:50:10Z</time>
      </trkpt>
      <trkpt lat="44.58625" lon="5.28095">
        <ele>545.6855469</ele>
        <time>2011-05-22T09:50:13Z</time>
      </trkpt>
      <trkpt lat="44.5861" lon="5.28097">
        <ele>547.6081543</ele>
        <time>2011-05-22T09:50:19Z</time>
      </trkpt>
      <trkpt lat="44.58601" lon="5.281">
        <ele>548.5693359</ele>
        <time>2011-05-22T09:50:23Z</time>
      </trkpt>
      <trkpt lat="44.58594" lon="5.28103">
        <ele>548.5693359</ele>
        <time>2011-05-22T09:50:25Z</time>
      </trkpt>
      <trkpt lat="44.58586" lon="5.281">
        <ele>549.5307617</ele>
        <time>2011-05-22T09:50:30Z</time>
      </trkpt>
      <trkpt lat="44.58584" lon="5.281">
        <ele>550.0114746</ele>
        <time>2011-05-22T09:50:31Z</time>
      </trkpt>
      <trkpt lat="44.58579" lon="5.28101">
        <ele>551.4533691</ele>
        <time>2011-05-22T09:50:33Z</time>
      </trkpt>
      <trkpt lat="44.58563" lon="5.28105">
        <ele>552.8952637</ele>
        <time>2011-05-22T09:50:39Z</time>
      </trkpt>
      <trkpt lat="44.5856" lon="5.28105">
        <ele>552.4145508</ele>
        <time>2011-05-22T09:50:40Z</time>
      </trkpt>
      <trkpt lat="44.58555" lon="5.28104">
        <ele>552.4145508</ele>
        <time>2011-05-22T09:50:42Z</time>
      </trkpt>
      <trkpt lat="44.58548" lon="5.28098">
        <ele>552.4145508</ele>
        <time>2011-05-22T09:50:46Z</time>
      </trkpt>
      <trkpt lat="44.58541" lon="5.28095">
        <ele>552.4145508</ele>
        <time>2011-05-22T09:50:49Z</time>
      </trkpt>
      <trkpt lat="44.58529" lon="5.28086">
        <ele>551.4533691</ele>
        <time>2011-05-22T09:50:55Z</time>
      </trkpt>
      <trkpt lat="44.58525" lon="5.28083">
        <ele>550.9726563</ele>
        <time>2011-05-22T09:50:57Z</time>
      </trkpt>
      <trkpt lat="44.58515" lon="5.28075">
        <ele>548.5693359</ele>
        <time>2011-05-22T09:51:02Z</time>
      </trkpt>
      <trkpt lat="44.58513" lon="5.28073">
        <ele>548.5693359</ele>
        <time>2011-05-22T09:51:03Z</time>
      </trkpt>
      <trkpt lat="44.58501" lon="5.28068">
        <ele>547.1274414</ele>
        <time>2011-05-22T09:51:09Z</time>
      </trkpt>
      <trkpt lat="44.58492" lon="5.28057">
        <ele>543.2821045</ele>
        <time>2011-05-22T09:51:15Z</time>
      </trkpt>
      <trkpt lat="44.58485" lon="5.2805">
        <ele>542.8015137</ele>
        <time>2011-05-22T09:51:19Z</time>
      </trkpt>
      <trkpt lat="44.58478" lon="5.28045">
        <ele>543.7628174</ele>
        <time>2011-05-22T09:51:22Z</time>
      </trkpt>
      <trkpt lat="44.58466" lon="5.28037">
        <ele>543.7628174</ele>
        <time>2011-05-22T09:51:28Z</time>
      </trkpt>
      <trkpt lat="44.5846" lon="5.28034">
        <ele>543.7628174</ele>
        <time>2011-05-22T09:51:31Z</time>
      </trkpt>
      <trkpt lat="44.58449" lon="5.28027">
        <ele>545.6855469</ele>
        <time>2011-05-22T09:51:36Z</time>
      </trkpt>
      <trkpt lat="44.5844" lon="5.28021">
        <ele>546.1662598</ele>
        <time>2011-05-22T09:51:41Z</time>
      </trkpt>
      <trkpt lat="44.58435" lon="5.2802">
        <ele>545.6855469</ele>
        <time>2011-05-22T09:51:43Z</time>
      </trkpt>
      <trkpt lat="44.58427" lon="5.28013">
        <ele>545.204834</ele>
        <time>2011-05-22T09:51:48Z</time>
      </trkpt>
      <trkpt lat="44.5842" lon="5.28008">
        <ele>544.7242432</ele>
        <time>2011-05-22T09:51:52Z</time>
      </trkpt>
      <trkpt lat="44.58413" lon="5.28">
        <ele>545.204834</ele>
        <time>2011-05-22T09:51:56Z</time>
      </trkpt>
      <trkpt lat="44.58401" lon="5.27992">
        <ele>544.2436523</ele>
        <time>2011-05-22T09:52:02Z</time>
      </trkpt>
      <trkpt lat="44.58389" lon="5.27986">
        <ele>544.7242432</ele>
        <time>2011-05-22T09:52:08Z</time>
      </trkpt>
      <trkpt lat="44.58388" lon="5.27985">
        <ele>544.2436523</ele>
        <time>2011-05-22T09:52:09Z</time>
      </trkpt>
      <trkpt lat="44.58378" lon="5.27982">
        <ele>544.2436523</ele>
        <time>2011-05-22T09:52:13Z</time>
      </trkpt>
      <trkpt lat="44.58371" lon="5.27979">
        <ele>546.1662598</ele>
        <time>2011-05-22T09:52:17Z</time>
      </trkpt>
      <trkpt lat="44.58361" lon="5.27979">
        <ele>546.6468506</ele>
        <time>2011-05-22T09:52:22Z</time>
      </trkpt>
      <trkpt lat="44.58353" lon="5.2798">
        <ele>547.6081543</ele>
        <time>2011-05-22T09:52:26Z</time>
      </trkpt>
      <trkpt lat="44.58342" lon="5.27983">
        <ele>548.0888672</ele>
        <time>2011-05-22T09:52:30Z</time>
      </trkpt>
      <trkpt lat="44.58331" lon="5.2798">
        <ele>549.5307617</ele>
        <time>2011-05-22T09:52:34Z</time>
      </trkpt>
      <trkpt lat="44.58325" lon="5.27975">
        <ele>552.4145508</ele>
        <time>2011-05-22T09:52:37Z</time>
      </trkpt>
      <trkpt lat="44.58324" lon="5.27974">
        <ele>552.4145508</ele>
        <time>2011-05-22T09:52:38Z</time>
      </trkpt>
      <trkpt lat="44.58317" lon="5.27966">
        <ele>553.8566895</ele>
        <time>2011-05-22T09:52:42Z</time>
      </trkpt>
      <trkpt lat="44.58308" lon="5.27957">
        <ele>555.298584</ele>
        <time>2011-05-22T09:52:46Z</time>
      </trkpt>
      <trkpt lat="44.58302" lon="5.27953">
        <ele>554.8178711</ele>
        <time>2011-05-22T09:52:49Z</time>
      </trkpt>
      <trkpt lat="44.58288" lon="5.27945">
        <ele>559.144043</ele>
        <time>2011-05-22T09:52:54Z</time>
      </trkpt>
      <trkpt lat="44.58271" lon="5.27938">
        <ele>558.1828613</ele>
        <time>2011-05-22T09:53:00Z</time>
      </trkpt>
      <trkpt lat="44.58259" lon="5.27931">
        <ele>557.7021484</ele>
        <time>2011-05-22T09:53:04Z</time>
      </trkpt>
      <trkpt lat="44.58251" lon="5.27922">
        <ele>556.2600098</ele>
        <time>2011-05-22T09:53:08Z</time>
      </trkpt>
      <trkpt lat="44.58244" lon="5.27912">
        <ele>553.3759766</ele>
        <time>2011-05-22T09:53:12Z</time>
      </trkpt>
      <trkpt lat="44.58243" lon="5.2791">
        <ele>552.8952637</ele>
        <time>2011-05-22T09:53:13Z</time>
      </trkpt>
      <trkpt lat="44.58234" lon="5.27901">
        <ele>549.5307617</ele>
        <time>2011-05-22T09:53:18Z</time>
      </trkpt>
      <trkpt lat="44.58217" lon="5.27898">
        <ele>548.0888672</ele>
        <time>2011-05-22T09:53:24Z</time>
      </trkpt>
      <trkpt lat="44.58203" lon="5.27895">
        <ele>548.0888672</ele>
        <time>2011-05-22T09:53:29Z</time>
      </trkpt>
      <trkpt lat="44.58187" lon="5.27892">
        <ele>549.5307617</ele>
        <time>2011-05-22T09:53:35Z</time>
      </trkpt>
      <trkpt lat="44.58173" lon="5.27893">
        <ele>551.4533691</ele>
        <time>2011-05-22T09:53:40Z</time>
      </trkpt>
      <trkpt lat="44.58161" lon="5.27893">
        <ele>553.3759766</ele>
        <time>2011-05-22T09:53:45Z</time>
      </trkpt>
      <trkpt lat="44.58147" lon="5.27898">
        <ele>554.3374023</ele>
        <time>2011-05-22T09:53:50Z</time>
      </trkpt>
      <trkpt lat="44.58139" lon="5.27902">
        <ele>554.8178711</ele>
        <time>2011-05-22T09:53:53Z</time>
      </trkpt>
      <trkpt lat="44.58132" lon="5.27907">
        <ele>555.7792969</ele>
        <time>2011-05-22T09:53:57Z</time>
      </trkpt>
      <trkpt lat="44.58126" lon="5.27913">
        <ele>556.2600098</ele>
        <time>2011-05-22T09:54:00Z</time>
      </trkpt>
      <trkpt lat="44.58124" lon="5.27916">
        <ele>557.2214355</ele>
        <time>2011-05-22T09:54:01Z</time>
      </trkpt>
      <trkpt lat="44.58112" lon="5.27926">
        <ele>559.6247559</ele>
        <time>2011-05-22T09:54:07Z</time>
      </trkpt>
      <trkpt lat="44.58105" lon="5.2793">
        <ele>560.5859375</ele>
        <time>2011-05-22T09:54:10Z</time>
      </trkpt>
      <trkpt lat="44.58092" lon="5.27935">
        <ele>560.1052246</ele>
        <time>2011-05-22T09:54:15Z</time>
      </trkpt>
      <trkpt lat="44.58078" lon="5.27937">
        <ele>559.6247559</ele>
        <time>2011-05-22T09:54:20Z</time>
      </trkpt>
      <trkpt lat="44.58066" lon="5.27939">
        <ele>557.7021484</ele>
        <time>2011-05-22T09:54:25Z</time>
      </trkpt>
      <trkpt lat="44.58058" lon="5.27939">
        <ele>556.2600098</ele>
        <time>2011-05-22T09:54:28Z</time>
      </trkpt>
      <trkpt lat="44.58044" lon="5.27943">
        <ele>551.934082</ele>
        <time>2011-05-22T09:54:34Z</time>
      </trkpt>
      <trkpt lat="44.58031" lon="5.27943">
        <ele>550.4921875</ele>
        <time>2011-05-22T09:54:39Z</time>
      </trkpt>
      <trkpt lat="44.58018" lon="5.2794">
        <ele>552.8952637</ele>
        <time>2011-05-22T09:54:44Z</time>
      </trkpt>
      <trkpt lat="44.58007" lon="5.27941">
        <ele>553.8566895</ele>
        <time>2011-05-22T09:54:48Z</time>
      </trkpt>
      <trkpt lat="44.57996" lon="5.27941">
        <ele>554.8178711</ele>
        <time>2011-05-22T09:54:52Z</time>
      </trkpt>
      <trkpt lat="44.57982" lon="5.27943">
        <ele>556.7407227</ele>
        <time>2011-05-22T09:54:57Z</time>
      </trkpt>
      <trkpt lat="44.57968" lon="5.27945">
        <ele>558.1828613</ele>
        <time>2011-05-22T09:55:01Z</time>
      </trkpt>
      <trkpt lat="44.57959" lon="5.27942">
        <ele>559.6247559</ele>
        <time>2011-05-22T09:55:05Z</time>
      </trkpt>
      <trkpt lat="44.57951" lon="5.27938">
        <ele>559.6247559</ele>
        <time>2011-05-22T09:55:09Z</time>
      </trkpt>
      <trkpt lat="44.57938" lon="5.27934">
        <ele>559.144043</ele>
        <time>2011-05-22T09:55:14Z</time>
      </trkpt>
      <trkpt lat="44.57927" lon="5.27927">
        <ele>559.6247559</ele>
        <time>2011-05-22T09:55:19Z</time>
      </trkpt>
      <trkpt lat="44.57919" lon="5.27924">
        <ele>559.6247559</ele>
        <time>2011-05-22T09:55:23Z</time>
      </trkpt>
      <trkpt lat="44.57913" lon="5.27923">
        <ele>559.6247559</ele>
        <time>2011-05-22T09:55:26Z</time>
      </trkpt>
      <trkpt lat="44.57905" lon="5.27921">
        <ele>562.0280762</ele>
        <time>2011-05-22T09:55:30Z</time>
      </trkpt>
      <trkpt lat="44.57896" lon="5.27918">
        <ele>564.4311523</ele>
        <time>2011-05-22T09:55:35Z</time>
      </trkpt>
      <trkpt lat="44.57894" lon="5.27919">
        <ele>564.4311523</ele>
        <time>2011-05-22T09:55:36Z</time>
      </trkpt>
      <trkpt lat="44.57883" lon="5.27915">
        <ele>564.4311523</ele>
        <time>2011-05-22T09:55:41Z</time>
      </trkpt>
      <trkpt lat="44.57872" lon="5.27911">
        <ele>566.3537598</ele>
        <time>2011-05-22T09:55:45Z</time>
      </trkpt>
      <trkpt lat="44.57866" lon="5.27909">
        <ele>567.7956543</ele>
        <time>2011-05-22T09:55:47Z</time>
      </trkpt>
      <trkpt lat="44.57848" lon="5.27901">
        <ele>565.873291</ele>
        <time>2011-05-22T09:55:53Z</time>
      </trkpt>
      <trkpt lat="44.57832" lon="5.27896">
        <ele>563.4699707</ele>
        <time>2011-05-22T09:55:59Z</time>
      </trkpt>
      <trkpt lat="44.57822" lon="5.27891">
        <ele>563.4699707</ele>
        <time>2011-05-22T09:56:03Z</time>
      </trkpt>
      <trkpt lat="44.57811" lon="5.27887">
        <ele>562.9892578</ele>
        <time>2011-05-22T09:56:07Z</time>
      </trkpt>
      <trkpt lat="44.57801" lon="5.27889">
        <ele>562.0280762</ele>
        <time>2011-05-22T09:56:11Z</time>
      </trkpt>
      <trkpt lat="44.57789" lon="5.27897">
        <ele>561.0666504</ele>
        <time>2011-05-22T09:56:16Z</time>
      </trkpt>
      <trkpt lat="44.57775" lon="5.27902">
        <ele>559.6247559</ele>
        <time>2011-05-22T09:56:21Z</time>
      </trkpt>
      <trkpt lat="44.57758" lon="5.27907">
        <ele>558.6633301</ele>
        <time>2011-05-22T09:56:27Z</time>
      </trkpt>
      <trkpt lat="44.57744" lon="5.2791">
        <ele>560.1052246</ele>
        <time>2011-05-22T09:56:32Z</time>
      </trkpt>
      <trkpt lat="44.57735" lon="5.27911">
        <ele>560.5859375</ele>
        <time>2011-05-22T09:56:36Z</time>
      </trkpt>
      <trkpt lat="44.57728" lon="5.27899">
        <ele>561.0666504</ele>
        <time>2011-05-22T09:56:41Z</time>
      </trkpt>
      <trkpt lat="44.57732" lon="5.27889">
        <ele>561.0666504</ele>
        <time>2011-05-22T09:56:44Z</time>
      </trkpt>
      <trkpt lat="44.57743" lon="5.27863">
        <ele>559.6247559</ele>
        <time>2011-05-22T09:56:51Z</time>
      </trkpt>
      <trkpt lat="44.5775" lon="5.27852">
        <ele>557.2214355</ele>
        <time>2011-05-22T09:56:55Z</time>
      </trkpt>
      <trkpt lat="44.57758" lon="5.27836">
        <ele>552.8952637</ele>
        <time>2011-05-22T09:57:01Z</time>
      </trkpt>
      <trkpt lat="44.57754" lon="5.27821">
        <ele>550.9726563</ele>
        <time>2011-05-22T09:57:06Z</time>
      </trkpt>
      <trkpt lat="44.57745" lon="5.27811">
        <ele>550.0114746</ele>
        <time>2011-05-22T09:57:11Z</time>
      </trkpt>
      <trkpt lat="44.57733" lon="5.27805">
        <ele>549.5307617</ele>
        <time>2011-05-22T09:57:16Z</time>
      </trkpt>
      <trkpt lat="44.5773" lon="5.27803">
        <ele>549.5307617</ele>
        <time>2011-05-22T09:57:17Z</time>
      </trkpt>
      <trkpt lat="44.57719" lon="5.27789">
        <ele>547.6081543</ele>
        <time>2011-05-22T09:57:23Z</time>
      </trkpt>
      <trkpt lat="44.57715" lon="5.27785">
        <ele>547.6081543</ele>
        <time>2011-05-22T09:57:25Z</time>
      </trkpt>
      <trkpt lat="44.57707" lon="5.27772">
        <ele>547.6081543</ele>
        <time>2011-05-22T09:57:30Z</time>
      </trkpt>
      <trkpt lat="44.57698" lon="5.27764">
        <ele>547.6081543</ele>
        <time>2011-05-22T09:57:34Z</time>
      </trkpt>
      <trkpt lat="44.57691" lon="5.27755">
        <ele>548.0888672</ele>
        <time>2011-05-22T09:57:38Z</time>
      </trkpt>
      <trkpt lat="44.5768" lon="5.27745">
        <ele>548.5693359</ele>
        <time>2011-05-22T09:57:43Z</time>
      </trkpt>
      <trkpt lat="44.57668" lon="5.27735">
        <ele>550.0114746</ele>
        <time>2011-05-22T09:57:48Z</time>
      </trkpt>
      <trkpt lat="44.5766" lon="5.27727">
        <ele>550.4921875</ele>
        <time>2011-05-22T09:57:52Z</time>
      </trkpt>
      <trkpt lat="44.57658" lon="5.27725">
        <ele>550.4921875</ele>
        <time>2011-05-22T09:57:53Z</time>
      </trkpt>
      <trkpt lat="44.57648" lon="5.27716">
        <ele>550.9726563</ele>
        <time>2011-05-22T09:57:58Z</time>
      </trkpt>
      <trkpt lat="44.57642" lon="5.27711">
        <ele>550.9726563</ele>
        <time>2011-05-22T09:58:01Z</time>
      </trkpt>
      <trkpt lat="44.5764" lon="5.2771">
        <ele>550.9726563</ele>
        <time>2011-05-22T09:58:02Z</time>
      </trkpt>
      <trkpt lat="44.57626" lon="5.27704">
        <ele>550.4921875</ele>
        <time>2011-05-22T09:58:08Z</time>
      </trkpt>
      <trkpt lat="44.57616" lon="5.27697">
        <ele>550.4921875</ele>
        <time>2011-05-22T09:58:13Z</time>
      </trkpt>
      <trkpt lat="44.57607" lon="5.27694">
        <ele>551.934082</ele>
        <time>2011-05-22T09:58:17Z</time>
      </trkpt>
      <trkpt lat="44.57597" lon="5.27692">
        <ele>553.3759766</ele>
        <time>2011-05-22T09:58:21Z</time>
      </trkpt>
      <trkpt lat="44.57586" lon="5.2769">
        <ele>554.8178711</ele>
        <time>2011-05-22T09:58:26Z</time>
      </trkpt>
      <trkpt lat="44.57574" lon="5.27689">
        <ele>555.7792969</ele>
        <time>2011-05-22T09:58:31Z</time>
      </trkpt>
      <trkpt lat="44.57564" lon="5.27691">
        <ele>557.2214355</ele>
        <time>2011-05-22T09:58:35Z</time>
      </trkpt>
      <trkpt lat="44.57561" lon="5.27691">
        <ele>557.7021484</ele>
        <time>2011-05-22T09:58:36Z</time>
      </trkpt>
      <trkpt lat="44.57546" lon="5.27697">
        <ele>558.6633301</ele>
        <time>2011-05-22T09:58:43Z</time>
      </trkpt>
      <trkpt lat="44.57537" lon="5.27706">
        <ele>559.144043</ele>
        <time>2011-05-22T09:58:48Z</time>
      </trkpt>
      <trkpt lat="44.57531" lon="5.27717">
        <ele>560.1052246</ele>
        <time>2011-05-22T09:58:53Z</time>
      </trkpt>
      <trkpt lat="44.57526" lon="5.27733">
        <ele>560.1052246</ele>
        <time>2011-05-22T09:58:58Z</time>
      </trkpt>
      <trkpt lat="44.57522" lon="5.27751">
        <ele>559.6247559</ele>
        <time>2011-05-22T09:59:03Z</time>
      </trkpt>
      <trkpt lat="44.57518" lon="5.27762">
        <ele>558.6633301</ele>
        <time>2011-05-22T09:59:07Z</time>
      </trkpt>
      <trkpt lat="44.5752" lon="5.27768">
        <ele>558.6633301</ele>
        <time>2011-05-22T09:59:13Z</time>
      </trkpt>
      <trkpt lat="44.57517" lon="5.2777">
        <ele>557.7021484</ele>
        <time>2011-05-22T09:59:18Z</time>
      </trkpt>
      <trkpt lat="44.57515" lon="5.27771">
        <ele>558.1828613</ele>
        <time>2011-05-22T09:59:20Z</time>
      </trkpt>
      <trkpt lat="44.57507" lon="5.27763">
        <ele>558.1828613</ele>
        <time>2011-05-22T09:59:25Z</time>
      </trkpt>
      <trkpt lat="44.57505" lon="5.27759">
        <ele>560.1052246</ele>
        <time>2011-05-22T09:59:26Z</time>
      </trkpt>
      <trkpt lat="44.57498" lon="5.27749">
        <ele>561.5473633</ele>
        <time>2011-05-22T09:59:30Z</time>
      </trkpt>
      <trkpt lat="44.57491" lon="5.27742">
        <ele>563.9504395</ele>
        <time>2011-05-22T09:59:34Z</time>
      </trkpt>
      <trkpt lat="44.5748" lon="5.27731">
        <ele>563.9504395</ele>
        <time>2011-05-22T09:59:40Z</time>
      </trkpt>
      <trkpt lat="44.57465" lon="5.27731">
        <ele>562.9892578</ele>
        <time>2011-05-22T09:59:46Z</time>
      </trkpt>
      <trkpt lat="44.57454" lon="5.27733">
        <ele>562.9892578</ele>
        <time>2011-05-22T09:59:50Z</time>
      </trkpt>
      <trkpt lat="44.57436" lon="5.27736">
        <ele>562.5085449</ele>
        <time>2011-05-22T09:59:57Z</time>
      </trkpt>
      <trkpt lat="44.57426" lon="5.27733">
        <ele>562.0280762</ele>
        <time>2011-05-22T10:00:02Z</time>
      </trkpt>
      <trkpt lat="44.57417" lon="5.27724">
        <ele>561.5473633</ele>
        <time>2011-05-22T10:00:07Z</time>
      </trkpt>
      <trkpt lat="44.5741" lon="5.27716">
        <ele>559.144043</ele>
        <time>2011-05-22T10:00:12Z</time>
      </trkpt>
      <trkpt lat="44.57406" lon="5.27707">
        <ele>562.0280762</ele>
        <time>2011-05-22T10:00:16Z</time>
      </trkpt>
      <trkpt lat="44.57402" lon="5.27702">
        <ele>563.9504395</ele>
        <time>2011-05-22T10:00:18Z</time>
      </trkpt>
      <trkpt lat="44.57393" lon="5.27688">
        <ele>568.7570801</ele>
        <time>2011-05-22T10:00:23Z</time>
      </trkpt>
      <trkpt lat="44.57384" lon="5.27679">
        <ele>569.7185059</ele>
        <time>2011-05-22T10:00:27Z</time>
      </trkpt>
      <trkpt lat="44.57374" lon="5.27664">
        <ele>569.237793</ele>
        <time>2011-05-22T10:00:33Z</time>
      </trkpt>
      <trkpt lat="44.57363" lon="5.27655">
        <ele>568.7570801</ele>
        <time>2011-05-22T10:00:39Z</time>
      </trkpt>
      <trkpt lat="44.57357" lon="5.2765">
        <ele>567.3151855</ele>
        <time>2011-05-22T10:00:42Z</time>
      </trkpt>
      <trkpt lat="44.57344" lon="5.27645">
        <ele>565.873291</ele>
        <time>2011-05-22T10:00:48Z</time>
      </trkpt>
      <trkpt lat="44.57331" lon="5.2764">
        <ele>569.7185059</ele>
        <time>2011-05-22T10:00:54Z</time>
      </trkpt>
      <trkpt lat="44.57321" lon="5.27633">
        <ele>570.1989746</ele>
        <time>2011-05-22T10:00:59Z</time>
      </trkpt>
      <trkpt lat="44.57309" lon="5.27629">
        <ele>566.3537598</ele>
        <time>2011-05-22T10:01:04Z</time>
      </trkpt>
      <trkpt lat="44.57297" lon="5.27626">
        <ele>563.9504395</ele>
        <time>2011-05-22T10:01:09Z</time>
      </trkpt>
      <trkpt lat="44.57286" lon="5.27625">
        <ele>561.0666504</ele>
        <time>2011-05-22T10:01:14Z</time>
      </trkpt>
      <trkpt lat="44.57272" lon="5.27625">
        <ele>557.7021484</ele>
        <time>2011-05-22T10:01:20Z</time>
      </trkpt>
      <trkpt lat="44.57259" lon="5.27631">
        <ele>555.7792969</ele>
        <time>2011-05-22T10:01:26Z</time>
      </trkpt>
      <trkpt lat="44.57244" lon="5.27633">
        <ele>553.8566895</ele>
        <time>2011-05-22T10:01:33Z</time>
      </trkpt>
      <trkpt lat="44.57227" lon="5.27631">
        <ele>550.9726563</ele>
        <time>2011-05-22T10:01:40Z</time>
      </trkpt>
      <trkpt lat="44.57225" lon="5.27631">
        <ele>550.0114746</ele>
        <time>2011-05-22T10:01:41Z</time>
      </trkpt>
      <trkpt lat="44.57219" lon="5.2763">
        <ele>549.5307617</ele>
        <time>2011-05-22T10:01:43Z</time>
      </trkpt>
      <trkpt lat="44.57203" lon="5.27623">
        <ele>548.0888672</ele>
        <time>2011-05-22T10:01:49Z</time>
      </trkpt>
      <trkpt lat="44.57197" lon="5.27621">
        <ele>549.0500488</ele>
        <time>2011-05-22T10:01:51Z</time>
      </trkpt>
      <trkpt lat="44.57185" lon="5.2762">
        <ele>549.5307617</ele>
        <time>2011-05-22T10:01:55Z</time>
      </trkpt>
      <trkpt lat="44.57172" lon="5.27622">
        <ele>548.0888672</ele>
        <time>2011-05-22T10:01:59Z</time>
      </trkpt>
      <trkpt lat="44.57162" lon="5.27618">
        <ele>547.6081543</ele>
        <time>2011-05-22T10:02:02Z</time>
      </trkpt>
      <trkpt lat="44.57147" lon="5.27608">
        <ele>548.5693359</ele>
        <time>2011-05-22T10:02:08Z</time>
      </trkpt>
      <trkpt lat="44.57134" lon="5.27608">
        <ele>549.5307617</ele>
        <time>2011-05-22T10:02:12Z</time>
      </trkpt>
      <trkpt lat="44.57122" lon="5.27608">
        <ele>550.0114746</ele>
        <time>2011-05-22T10:02:16Z</time>
      </trkpt>
      <trkpt lat="44.57108" lon="5.27603">
        <ele>554.3374023</ele>
        <time>2011-05-22T10:02:20Z</time>
      </trkpt>
      <trkpt lat="44.57092" lon="5.27599">
        <ele>557.7021484</ele>
        <time>2011-05-22T10:02:25Z</time>
      </trkpt>
      <trkpt lat="44.57089" lon="5.27599">
        <ele>557.2214355</ele>
        <time>2011-05-22T10:02:26Z</time>
      </trkpt>
      <trkpt lat="44.57078" lon="5.27606">
        <ele>556.7407227</ele>
        <time>2011-05-22T10:02:31Z</time>
      </trkpt>
      <trkpt lat="44.57076" lon="5.27619">
        <ele>559.144043</ele>
        <time>2011-05-22T10:02:34Z</time>
      </trkpt>
      <trkpt lat="44.57062" lon="5.27632">
        <ele>558.6633301</ele>
        <time>2011-05-22T10:02:40Z</time>
      </trkpt>
      <trkpt lat="44.57044" lon="5.2763">
        <ele>558.1828613</ele>
        <time>2011-05-22T10:02:45Z</time>
      </trkpt>
      <trkpt lat="44.57034" lon="5.27628">
        <ele>559.6247559</ele>
        <time>2011-05-22T10:02:48Z</time>
      </trkpt>
      <trkpt lat="44.57026" lon="5.27626">
        <ele>562.9892578</ele>
        <time>2011-05-22T10:02:51Z</time>
      </trkpt>
      <trkpt lat="44.57014" lon="5.27631">
        <ele>562.9892578</ele>
        <time>2011-05-22T10:02:55Z</time>
      </trkpt>
      <trkpt lat="44.57011" lon="5.27631">
        <ele>563.4699707</ele>
        <time>2011-05-22T10:02:56Z</time>
      </trkpt>
      <trkpt lat="44.56999" lon="5.2763">
        <ele>564.9118652</ele>
        <time>2011-05-22T10:03:00Z</time>
      </trkpt>
      <trkpt lat="44.5699" lon="5.2763">
        <ele>564.9118652</ele>
        <time>2011-05-22T10:03:03Z</time>
      </trkpt>
      <trkpt lat="44.56976" lon="5.27619">
        <ele>564.9118652</ele>
        <time>2011-05-22T10:03:08Z</time>
      </trkpt>
      <trkpt lat="44.56968" lon="5.27613">
        <ele>564.4311523</ele>
        <time>2011-05-22T10:03:11Z</time>
      </trkpt>
      <trkpt lat="44.56969" lon="5.27595">
        <ele>568.7570801</ele>
        <time>2011-05-22T10:03:15Z</time>
      </trkpt>
      <trkpt lat="44.56971" lon="5.27589">
        <ele>570.6796875</ele>
        <time>2011-05-22T10:03:16Z</time>
      </trkpt>
      <trkpt lat="44.56977" lon="5.2756">
        <ele>571.6408691</ele>
        <time>2011-05-22T10:03:23Z</time>
      </trkpt>
      <trkpt lat="44.56974" lon="5.27543">
        <ele>568.7570801</ele>
        <time>2011-05-22T10:03:27Z</time>
      </trkpt>
      <trkpt lat="44.56969" lon="5.27531">
        <ele>569.237793</ele>
        <time>2011-05-22T10:03:31Z</time>
      </trkpt>
      <trkpt lat="44.56968" lon="5.27526">
        <ele>570.6796875</ele>
        <time>2011-05-22T10:03:32Z</time>
      </trkpt>
      <trkpt lat="44.56973" lon="5.27504">
        <ele>570.1989746</ele>
        <time>2011-05-22T10:03:37Z</time>
      </trkpt>
      <trkpt lat="44.5698" lon="5.27484">
        <ele>570.6796875</ele>
        <time>2011-05-22T10:03:42Z</time>
      </trkpt>
      <trkpt lat="44.56982" lon="5.27481">
        <ele>570.6796875</ele>
        <time>2011-05-22T10:03:43Z</time>
      </trkpt>
      <trkpt lat="44.56999" lon="5.27475">
        <ele>571.1604004</ele>
        <time>2011-05-22T10:03:49Z</time>
      </trkpt>
      <trkpt lat="44.57001" lon="5.27476">
        <ele>570.1989746</ele>
        <time>2011-05-22T10:03:50Z</time>
      </trkpt>
      <trkpt lat="44.57012" lon="5.27491">
        <ele>565.873291</ele>
        <time>2011-05-22T10:03:55Z</time>
      </trkpt>
      <trkpt lat="44.57016" lon="5.27495">
        <ele>564.9118652</ele>
        <time>2011-05-22T10:03:57Z</time>
      </trkpt>
      <trkpt lat="44.57034" lon="5.27506">
        <ele>563.4699707</ele>
        <time>2011-05-22T10:04:04Z</time>
      </trkpt>
      <trkpt lat="44.57037" lon="5.27508">
        <ele>562.9892578</ele>
        <time>2011-05-22T10:04:05Z</time>
      </trkpt>
      <trkpt lat="44.5704" lon="5.27516">
        <ele>562.5085449</ele>
        <time>2011-05-22T10:04:07Z</time>
      </trkpt>
      <trkpt lat="44.57037" lon="5.2754">
        <ele>561.0666504</ele>
        <time>2011-05-22T10:04:13Z</time>
      </trkpt>
      <trkpt lat="44.57035" lon="5.2756">
        <ele>560.5859375</ele>
        <time>2011-05-22T10:04:18Z</time>
      </trkpt>
      <trkpt lat="44.57033" lon="5.27573">
        <ele>559.6247559</ele>
        <time>2011-05-22T10:04:21Z</time>
      </trkpt>
    </trkseg>
    </trkseg>
  </trk>
</gpx>